[[{"header":{"parameterUnit":"m.s-1","parameterCategory":1,"la1":30.6,"la2":28.766,"lo1":-90.7593,"lo2":-88.6598,"dy":0.0162,"dx":0.0183,"nx":116,"ny":114,"refTime":"2024-05-18T06:00:00:Z","depth":0,"parameterNumber":2,"parameterNumberName":"U-component_of_WINDS"},"data":[0.0,0.0,0.0,0.0,0.0,0.0,0.0,0.0,0.0,0.0,0.0,0.0,0.0,0.0,0.0,0.0,0.0,0.0,0.0,0.0,0.0,0.0,0.0,0.0,0.0,0.0,0.0,0.0,0.0,0.0,0.0,0.0,0.0,0.0,0.0,0.0,0.0,0.0,0.0,0.0,0.0,0.0,0.0,0.0,0.0,0.0,0.0,0.0,0.0,0.0,0.0,0.0,0.0,0.0,0.0,0.0,0.0,0.0,0.0,0.0,0.0,0.0,0.0,0.0,0.0,0.0,0.0,0.0,0.0,0.0,0.0,0.0,0.0,0.0,0.0,0.0,0.0,0.0,0.0,0.0,0.0,0.0,0.0,0.0,0.0,0.0,0.0,0.0,0.0,0.0,0.0,0.0,0.0,0.0,0.0,0.0,0.0,0.0,0.0,0.0,0.0,0.0,0.0,0.0,0.0,0.0,0.0,0.0,0.0,0.0,0.0,0.0,0.0,0.0,0.0,0.0,0.0,0.0,0.0,0.0,0.0,0.0,0.0,0.0,0.0,0.0,0.0,0.0,0.0,0.0,0.0,0.0,0.0,0.0,0.0,0.0,0.0,0.0,0.0,0.0,0.0,0.0,0.0,0.0,0.0,0.0,0.0,0.0,0.0,0.0,0.0,0.0,0.0,0.0,0.0,0.0,0.0,0.0,0.0,0.0,0.0,0.0,0.0,0.0,0.0,0.0,0.0,0.0,0.0,0.0,0.0,0.0,0.0,0.0,0.0,0.0,0.0,0.0,0.0,0.0,0.0,0.0,0.0,0.0,0.0,0.0,0.0,0.0,0.0,0.0,0.0,0.0,0.0,0.0,0.0,0.0,0.0,0.0,0.0,0.0,0.0,0.0,0.0,0.0,0.0,0.0,0.0,0.0,0.0,0.0,0.0,0.0,0.0,0.0,0.0,0.0,0.0,0.0,0.0,0.0,0.0,0.0,0.0,0.0,0.0,0.0,0.0,0.0,0.0,0.0,0.0,0.0,0.0,0.0,0.0,0.0,0.0,0.0,0.0,0.0,0.0,0.0,0.0,0.0,0.0,0.0,0.0,0.0,0.0,0.0,0.0,0.0,0.0,0.0,0.0,0.0,0.0,0.0,0.0,0.0,0.0,0.0,0.0,0.0,0.0,0.0,0.0,0.0,0.0,0.0,0.0,0.0,0.0,0.0,0.0,0.0,0.0,0.0,0.0,0.0,0.0,0.0,0.0,0.0,0.0,0.0,0.0,0.0,0.0,0.0,0.0,0.0,0.0,0.0,0.0,0.0,0.0,0.0,0.0,0.0,0.0,0.0,0.0,0.0,0.0,0.0,0.0,0.0,0.0,0.0,0.0,0.0,0.0,0.0,0.0,0.0,0.0,0.0,0.0,0.0,0.0,0.0,0.0,0.0,0.0,0.0,0.0,0.0,0.0,0.0,0.0,0.0,0.0,0.0,0.0,0.0,0.0,0.0,0.0,0.0,0.0,0.0,0.0,0.0,0.0,0.0,0.0,0.0,0.0,0.0,0.0,0.0,0.0,0.0,0.0,0.0,0.0,0.0,0.0,0.0,0.0,0.0,0.0,0.0,0.0,0.0,0.0,0.0,0.0,0.0,0.0,0.0,0.0,0.0,0.0,0.0,0.0,0.0,0.0,0.0,0.0,0.0,0.0,0.0,0.0,0.0,0.0,0.0,0.0,0.0,0.0,0.0,0.0,0.0,0.0,0.0,0.0,0.0,0.0,0.0,0.0,0.0,0.0,0.0,0.0,0.0,0.0,0.0,0.0,0.0,0.0,0.0,0.0,0.0,0.0,0.0,0.0,0.0,0.0,0.0,0.0,0.0,0.0,0.0,0.0,0.0,0.0,0.0,0.0,0.0,0.0,0.0,0.0,0.0,0.0,0.0,0.0,0.0,0.0,0.0,0.0,0.0,0.0,0.0,0.0,0.0,0.0,0.0,0.0,0.0,0.0,0.0,0.0,0.0,0.0,0.0,0.0,0.0,0.0,0.0,0.0,0.0,0.0,0.0,0.0,0.0,0.0,0.0,0.0,0.0,0.0,0.0,0.0,0.0,0.0,0.0,0.0,0.0,0.0,0.0,0.0,0.0,0.0,0.0,0.0,0.0,0.0,0.0,0.0,0.0,0.0,0.0,0.0,0.0,0.0,0.0,0.0,0.0,0.0,0.0,0.0,0.0,0.0,0.0,0.0,0.0,0.0,0.0,0.0,0.0,0.0,0.0,0.0,0.0,0.0,0.0,0.0,0.0,0.0,0.0,0.0,0.0,0.0,0.0,0.0,0.0,0.0,0.0,0.0,0.0,0.0,0.0,0.0,0.0,0.0,0.0,0.0,0.0,0.0,0.0,0.0,0.0,0.0,0.0,0.0,0.0,0.0,0.0,0.0,0.0,0.0,0.0,0.0,0.0,0.0,0.0,0.0,0.0,0.0,0.0,0.0,0.0,0.0,0.0,0.0,0.0,0.0,0.0,0.0,0.0,0.0,0.0,0.0,0.0,0.0,0.0,0.0,0.0,0.0,0.0,0.0,0.0,0.0,0.0,0.0,0.0,0.0,0.0,0.0,0.0,0.0,0.0,0.0,0.0,0.0,0.0,0.0,0.0,0.0,0.0,0.0,0.0,0.0,0.0,0.0,0.0,0.0,0.0,0.0,0.0,0.0,0.0,0.0,0.0,0.0,0.0,0.0,0.0,0.0,0.0,0.0,0.0,0.0,0.0,0.0,0.0,0.0,0.0,0.0,0.0,0.0,0.0,0.0,0.0,0.0,0.0,0.0,0.0,0.0,0.0,0.0,0.0,0.0,0.0,0.0,0.0,0.0,0.0,0.0,0.0,0.0,0.0,0.0,0.0,0.0,0.0,0.0,0.0,0.0,0.0,0.0,0.0,0.0,0.0,0.0,0.0,0.0,0.0,0.0,0.0,0.0,0.0,0.0,0.0,0.0,0.0,0.0,0.0,0.0,0.0,0.0,0.0,0.0,0.0,0.0,0.0,0.0,0.0,0.0,0.0,0.0,0.0,0.0,0.0,0.0,0.0,0.0,0.0,0.0,0.0,0.0,0.0,0.0,0.0,0.0,0.0,0.0,0.0,0.0,0.0,0.0,0.0,0.0,0.0,0.0,0.0,0.0,0.0,0.0,0.0,0.0,0.0,0.0,0.0,0.0,0.0,0.0,0.0,0.0,0.0,0.0,0.0,0.0,0.0,0.0,0.0,0.0,0.0,0.0,0.0,0.0,0.0,0.0,0.0,0.0,0.0,0.0,0.0,0.0,0.0,0.0,0.0,0.0,0.0,0.0,0.0,0.0,0.0,0.0,0.0,0.0,0.0,0.0,0.0,0.0,0.0,0.0,0.0,0.0,0.0,0.0,0.0,0.0,0.0,0.0,0.0,0.0,0.0,0.0,0.0,0.0,0.0,0.0,0.0,0.0,0.0,0.0,0.0,0.0,0.0,0.0,0.0,0.0,0.0,0.0,0.0,0.0,0.0,0.0,0.0,0.0,0.0,0.0,0.0,0.0,0.0,0.0,0.0,0.0,0.0,0.0,0.0,0.0,0.0,0.0,0.0,0.0,0.0,0.0,0.0,0.0,0.0,0.0,0.0,0.0,0.0,0.0,0.0,0.0,0.0,0.0,0.0,0.0,0.0,0.0,0.0,0.0,0.0,0.0,0.0,0.0,0.0,0.0,0.0,0.0,0.0,0.0,0.0,0.0,0.0,0.0,0.0,0.0,0.0,0.0,0.0,0.0,0.0,0.0,0.0,0.0,0.0,0.0,0.0,0.0,0.0,0.0,0.0,0.0,0.0,0.0,0.0,0.0,0.0,0.0,0.0,0.0,0.0,0.0,0.0,0.0,0.0,0.0,0.0,0.0,0.0,0.0,0.0,0.0,0.0,0.0,0.0,0.0,0.0,0.0,0.0,0.0,0.0,0.0,0.0,0.0,0.0,0.0,0.0,0.0,0.0,0.0,0.0,0.0,0.0,0.0,0.0,0.0,0.0,0.0,0.0,0.0,0.0,0.0,0.0,0.0,0.0,0.0,0.0,0.0,0.0,0.0,0.0,0.0,0.0,0.0,0.0,0.0,0.0,0.0,0.0,0.0,0.0,0.0,0.0,0.0,0.0,0.0,0.0,0.0,0.0,0.0,0.0,0.0,0.0,0.0,0.0,0.0,0.0,0.0,0.0,0.0,0.0,0.0,0.0,0.0,0.0,0.0,0.0,0.0,0.0,0.0,0.0,0.0,0.0,0.0,0.0,0.0,0.0,0.0,0.0,0.0,0.0,0.0,0.0,0.0,0.0,0.0,0.0,0.0,0.0,0.0,0.0,0.0,0.0,0.0,0.0,0.0,0.0,0.0,0.0,0.0,0.0,0.0,0.0,0.0,0.0,0.0,0.0,0.0,0.0,0.0,0.0,0.0,0.0,0.0,0.0,0.0,0.0,0.0,0.0,0.0,0.0,0.0,0.0,0.0,0.0,0.0,0.0,0.0,0.0,0.0,0.0,0.0,0.0,0.0,0.0,0.0,0.0,0.0,0.0,0.0,0.0,0.0,0.0,0.0,0.0,0.0,0.0,0.0,0.0,0.0,0.0,0.0,0.0,0.0,0.0,0.0,0.0,0.0,0.0,0.0,0.0,0.0,0.0,0.0,0.0,0.0,0.0,0.0,0.0,0.0,0.0,0.0,0.0,0.0,0.0,0.0,0.0,0.0,0.0,0.0,0.0,0.0,0.0,0.0,0.0,0.0,0.0,0.0,0.0,0.0,0.0,0.0,0.0,0.0,0.0,0.0,0.0,0.0,0.0,0.0,0.0,0.0,0.0,0.0,0.0,0.0,0.0,0.0,0.0,0.0,0.0,0.0,0.0,0.0,0.0,0.0,0.0,0.0,0.0,0.0,0.0,0.0,0.0,0.0,0.0,0.0,0.0,0.0,0.0,0.0,0.0,0.0,0.0,0.0,0.0,0.0,0.0,0.0,0.0,0.0,0.0,0.0,0.0,0.0,0.0,0.0,0.0,0.0,0.0,0.0,0.0,0.0,0.0,0.0,0.0,0.0,0.0,0.0,0.0,0.0,0.0,0.0,0.0,0.0,0.0,0.0,0.0,0.0,0.0,0.0,0.0,0.0,0.0,0.0,0.0,0.0,0.0,0.0,0.0,0.0,0.0,0.0,0.0,0.0,0.0,0.0,0.0,0.0,0.0,0.0,0.0,0.0,0.0,0.0,0.0,0.0,0.0,0.0,0.0,0.0,0.0,0.0,0.0,0.0,0.0,0.0,0.0,0.0,0.0,0.0,0.0,0.0,0.0,0.0,0.0,0.0,0.0,0.0,0.0,0.0,0.0,0.0,0.0,0.0,0.0,0.0,0.0,0.0,0.0,0.0,0.0,0.0,0.0,0.0,0.0,0.0,0.0,0.0,0.0,0.0,0.0,0.0,0.0,0.0,0.0,0.0,0.0,0.0,0.0,0.0,0.0,0.0,0.0,0.0,0.0,0.0,0.0,0.0,0.0,0.0,0.0,0.0,0.0,0.0,0.0,0.0,0.0,0.0,0.0,0.0,0.0,0.0,0.0,0.0,0.0,0.0,0.0,0.0,0.0,0.0,0.0,0.0,0.0,0.0,0.0,0.0,0.0,0.0,0.0,0.0,0.0,0.0,0.0,0.0,0.0,0.0,0.0,0.0,0.0,0.0,0.0,0.0,0.0,0.0,0.0,0.0,0.0,0.0,0.0,0.0,0.0,0.0,0.0,0.0,0.0,0.0,0.0,0.0,0.0,0.0,0.0,0.0,0.0,0.0,0.0,0.0,0.0,0.0,0.0,0.0,0.0,0.0,0.0,0.0,0.0,0.0,0.0,0.0,0.0,0.0,0.0,0.0,0.0,0.0,0.0,0.0,0.0,0.0,0.0,0.0,0.0,0.0,0.0,0.0,0.0,0.0,0.0,0.0,0.0,0.0,0.0,0.0,0.0,0.0,0.0,0.0,0.0,0.0,0.0,0.0,0.0,0.0,0.0,0.0,0.0,0.0,0.0,0.0,0.0,0.0,0.0,0.0,0.0,-2.8941,0.0,0.0,0.0,0.0,0.0,0.0,0.0,0.0,0.0,0.0,0.0,0.0,0.0,0.0,0.0,0.0,0.0,0.0,0.0,0.0,0.0,0.0,0.0,0.0,-1.793,-1.8576,-1.9561,-1.9672,-1.9782,-2.0,0.0,0.0,0.0,0.0,0.0,-1.9468,-1.8384,-1.785,-1.792,-1.6885,-1.6786,-1.7562,-1.8587,-1.9203,-1.9467,0.0,0.0,0.0,0.0,0.0,0.0,0.0,0.0,0.0,0.0,0.0,0.0,0.0,0.0,0.0,0.0,0.0,0.0,0.0,0.0,0.0,0.0,0.0,0.0,0.0,0.0,0.0,0.0,0.0,0.0,0.0,0.0,0.0,0.0,0.0,0.0,0.0,0.0,0.0,0.0,0.0,0.0,0.0,0.0,0.0,0.0,0.0,0.0,0.0,0.0,0.0,0.0,0.0,0.0,0.0,0.0,0.0,0.0,0.0,0.0,0.0,0.0,0.0,0.0,0.0,0.0,0.0,0.0,0.0,0.0,0.0,-2.8505,0.0,0.0,0.0,0.0,0.0,0.0,0.0,0.0,0.0,0.0,0.0,0.0,0.0,0.0,0.0,0.0,0.0,0.0,0.0,0.0,0.0,-1.4551,-1.7089,-1.737,-1.79,-1.9207,-1.9384,-1.9457,-1.953,-1.9548,0.0,0.0,0.0,-2.0041,-1.9936,-1.9123,-1.8667,-1.8602,-1.7312,-1.6959,-1.7513,-1.8211,-1.8383,-1.8135,-1.873,0.0,0.0,0.0,0.0,0.0,0.0,0.0,0.0,0.0,0.0,0.0,0.0,0.0,0.0,0.0,0.0,0.0,0.0,0.0,0.0,0.0,0.0,0.0,0.0,0.0,0.0,0.0,0.0,0.0,0.0,0.0,0.0,0.0,0.0,0.0,0.0,0.0,0.0,0.0,0.0,0.0,0.0,0.0,0.0,0.0,0.0,0.0,0.0,0.0,0.0,0.0,0.0,0.0,0.0,0.0,0.0,0.0,0.0,0.0,0.0,0.0,0.0,0.0,-2.8321,-2.8338,-2.8339,-2.8083,-2.7981,-2.8032,-2.799,-2.8053,-2.8177,-2.8206,0.0,0.0,0.0,0.0,0.0,0.0,0.0,0.0,0.0,0.0,0.0,0.0,0.0,0.0,0.0,0.0,0.0,0.0,0.0,-1.4127,-1.6615,-1.6645,-1.6962,-1.819,-1.8302,-1.8491,-1.8898,-1.8917,0.0,0.0,-1.9665,-1.9435,-1.8906,-1.9047,-1.8666,-1.7769,-1.7,-1.6368,-1.5903,-1.6421,-1.6626,-1.6662,-1.8274,-1.86,-1.7983,0.0,0.0,0.0,0.0,0.0,0.0,0.0,0.0,0.0,0.0,0.0,0.0,0.0,0.0,0.0,0.0,0.0,0.0,0.0,0.0,0.0,0.0,0.0,0.0,0.0,0.0,0.0,0.0,0.0,0.0,0.0,0.0,0.0,0.0,0.0,0.0,0.0,0.0,0.0,0.0,0.0,-2.4593,-2.4067,0.0,0.0,0.0,0.0,0.0,0.0,0.0,0.0,0.0,0.0,0.0,0.0,0.0,-2.7667,-2.7739,-2.8893,-2.9532,-2.9649,-2.9604,-2.9625,-2.9692,-2.8402,-2.793,-2.8048,-2.7376,0.0,-2.8111,-2.8226,0.0,0.0,0.0,0.0,0.0,0.0,0.0,0.0,0.0,0.0,0.0,0.0,0.0,0.0,0.0,0.0,0.0,0.0,0.0,0.0,0.0,-1.583,-1.6141,-1.7015,-1.7158,-1.7423,-1.7918,-1.7965,-1.8196,-1.8741,-1.8755,-1.8493,-1.7935,-1.8053,-1.7577,-1.6414,-1.5749,-1.5272,-1.4997,-1.5374,-1.558,-1.5609,-1.6631,-1.7383,-1.7923,-1.8435,0.0,0.0,0.0,0.0,0.0,0.0,0.0,0.0,0.0,0.0,0.0,0.0,0.0,0.0,0.0,0.0,0.0,0.0,0.0,0.0,0.0,0.0,0.0,0.0,0.0,0.0,0.0,0.0,0.0,0.0,0.0,0.0,0.0,0.0,0.0,0.0,0.0,0.0,0.0,-2.4837,-2.498,-2.4052,-2.5001,-2.5497,0.0,0.0,0.0,0.0,0.0,0.0,0.0,0.0,0.0,-2.7346,-2.7661,-2.7987,-2.8322,-2.8885,-2.9021,-2.8656,-2.8629,-2.8451,-2.8119,-2.7472,-2.723,-2.7323,-2.7408,-2.7428,-2.7367,-2.747,-2.7613,-2.7771,0.0,0.0,0.0,0.0,-2.6327,-2.5703,0.0,0.0,0.0,0.0,0.0,0.0,0.0,0.0,0.0,0.0,0.0,0.0,-1.4702,-1.4748,-1.4919,-1.5509,-1.5691,-1.597,0.0,0.0,-1.7159,-1.7693,-1.7812,-1.7581,-1.7061,-1.6651,-1.5974,-1.5081,-1.4593,-1.439,-1.4485,-1.4752,-1.486,-1.4891,-1.518,-1.6067,-1.7338,-1.7636,-1.8102,0.0,0.0,0.0,0.0,0.0,0.0,0.0,0.0,0.0,0.0,0.0,0.0,0.0,0.0,0.0,0.0,0.0,0.0,0.0,0.0,0.0,0.0,0.0,0.0,0.0,0.0,0.0,0.0,0.0,0.0,0.0,0.0,0.0,0.0,0.0,0.0,0.0,0.0,-2.489,-2.5073,-2.3911,-2.4792,-2.5179,0.0,0.0,0.0,0.0,0.0,0.0,-2.6041,-2.6724,-2.7251,-2.7542,-2.772,-2.7991,-2.8377,-2.8699,-2.8506,-2.7777,-2.7724,-2.7348,-2.6685,-2.6506,-2.6426,-2.6442,-2.7042,-2.7,-2.6537,-2.6802,-2.7012,-2.7112,-2.6924,-2.6627,-2.6285,-2.6019,-2.5485,-2.4832,0.0,0.0,0.0,0.0,0.0,0.0,0.0,0.0,0.0,0.0,0.0,-1.2572,-1.3661,0.0,-1.296,-1.3503,-1.3671,-1.3922,0.0,0.0,-1.6113,-1.6655,-1.699,-1.6885,-1.6352,-1.485,-1.4013,-1.3885,-1.3917,-1.4084,-1.4406,-1.4485,-1.4533,-1.4533,-1.4549,-1.4996,-1.5786,-1.6942,-1.7049,-1.6536,0.0,0.0,0.0,0.0,0.0,0.0,0.0,0.0,0.0,0.0,0.0,0.0,0.0,0.0,0.0,0.0,0.0,0.0,0.0,0.0,0.0,0.0,0.0,0.0,0.0,0.0,0.0,0.0,0.0,0.0,0.0,0.0,0.0,0.0,0.0,0.0,0.0,0.0,0.0,-2.3287,-2.4202,0.0,0.0,0.0,0.0,-2.478,-2.5357,-2.5697,-2.572,-2.5773,-2.5887,-2.6092,-2.6711,-2.7133,-2.7272,-2.8473,-2.8724,-2.799,-2.7784,-2.7348,-2.6668,-2.5969,-2.5662,-2.5662,-2.5713,-2.5697,-2.5732,-2.6629,-2.7181,-2.7408,-2.6687,-2.6657,-2.6831,-2.5811,-2.5036,-2.4472,0.0,0.0,0.0,0.0,0.0,-1.1216,-1.1623,-1.1667,-1.1878,-1.2589,-1.2452,-1.2336,0.0,-1.2237,-1.2167,-1.2354,-1.2415,-1.2655,-1.3147,0.0,-1.3967,-1.451,-1.4734,-1.4587,-1.4001,-1.3035,-1.2549,-1.2572,-1.2602,-1.2829,-1.3255,-1.3526,-1.3789,-1.4,-1.4294,-1.458,-1.4875,-1.5608,-1.6291,-1.6958,-1.7872,-1.867,0.0,0.0,0.0,0.0,0.0,0.0,0.0,0.0,0.0,0.0,0.0,0.0,0.0,0.0,0.0,0.0,0.0,0.0,0.0,0.0,0.0,0.0,0.0,0.0,0.0,0.0,0.0,0.0,0.0,0.0,0.0,0.0,0.0,0.0,0.0,0.0,0.0,-2.3895,-2.4776,0.0,-2.4352,-2.4643,-2.4864,-2.4864,-2.5097,-2.5436,-2.5864,-2.6263,-2.6683,-2.72,-2.7437,-2.7607,-2.7646,-2.8189,-2.8077,-2.7334,-2.6976,-2.6434,-2.5702,-2.5064,-2.4751,-2.4751,-2.4751,-2.4751,-2.4822,-2.5401,-2.5907,-2.6321,-2.604,-2.5506,-2.4846,-2.4448,-2.3602,-2.2622,0.0,0.0,0.0,0.0,-1.0837,-1.0933,-1.1567,-1.148,-1.1598,-1.2242,-1.2102,-1.1829,-1.1534,-1.1234,-1.112,-1.1282,-1.1179,-1.1324,-1.1838,0.0,-1.2549,-1.2912,-1.3148,-1.293,-1.2198,-1.1942,-1.1756,-1.1653,-1.1799,-1.2036,-1.236,-1.2643,-1.2906,-1.3165,-1.3492,-1.3762,-1.4022,-1.4344,-1.5196,-1.6368,-1.7257,-1.8238,-1.9108,0.0,0.0,0.0,0.0,0.0,0.0,0.0,0.0,0.0,0.0,0.0,0.0,0.0,0.0,0.0,0.0,0.0,0.0,0.0,0.0,0.0,0.0,0.0,0.0,0.0,0.0,0.0,0.0,0.0,0.0,0.0,0.0,0.0,0.0,-2.4924,-2.5115,-2.4474,-2.5061,-2.5275,-2.4681,-2.4797,-2.4926,-2.4926,-2.5159,-2.5514,-2.5928,-2.6359,-2.6873,-2.7573,-2.7405,-2.752,-2.7992,-2.7851,-2.7523,-2.6982,-2.6474,-2.5852,-2.5118,-2.4553,-2.4302,-2.4302,-2.4302,-2.4302,-2.4323,-2.4594,-2.4899,-2.525,-2.5384,-2.4823,-2.3867,-2.3418,-2.2696,-2.1827,0.0,0.0,0.0,-1.0741,-1.0422,-1.0469,-1.1268,-1.1004,-1.1053,-1.2053,-1.1486,-1.0952,-1.0867,-1.0106,-0.9758,-1.0205,-0.9948,-0.9944,-1.033,-1.133,-1.193,-1.193,-1.2285,-1.2064,-1.1153,-1.1516,-1.1516,-1.1142,-1.1534,-1.1774,-1.1872,-1.1872,-1.1945,-1.2084,-1.2084,-1.2496,-1.3165,-1.3233,-1.3726,-1.4541,-1.5665,-1.6689,-1.7684,0.0,0.0,0.0,0.0,0.0,0.0,0.0,0.0,0.0,0.0,0.0,0.0,0.0,0.0,0.0,0.0,0.0,0.0,0.0,0.0,0.0,0.0,0.0,0.0,0.0,0.0,0.0,0.0,0.0,0.0,0.0,0.0,0.0,-2.4715,-2.449,-2.4367,-2.4887,-2.4968,-2.4743,-2.4154,-2.4631,-2.4982,-2.5008,-2.5529,-2.5866,-2.5893,-2.5893,-2.6229,-2.6933,-2.6395,-2.6747,-2.8097,-2.7411,-2.703,-2.6935,-2.635,-2.5651,-2.4928,-2.4468,-2.424,-2.424,-2.4261,-2.4261,-2.4261,-2.4261,-2.4261,-2.4302,-2.4719,-2.4668,-2.4203,-2.2902,-2.2428,-2.2269,0.0,0.0,-1.0991,-1.0668,-1.0348,-1.0376,-1.1146,-1.0873,-1.0819,-1.1585,-1.1255,-1.066,-0.9955,-0.9532,-0.9206,-0.8955,-0.8885,-0.905,-0.9488,0.0,-1.0302,-1.04,-1.0153,-0.9917,-0.9755,-0.9775,-0.9766,-0.9755,-0.9854,-1.0263,-1.0872,-1.0872,-1.1268,-1.1945,-1.1945,-1.2108,-1.2407,-1.2413,-1.2696,-1.3296,-1.5397,-1.6407,-1.6782,0.0,0.0,0.0,0.0,0.0,0.0,0.0,0.0,0.0,0.0,0.0,0.0,0.0,0.0,0.0,0.0,0.0,0.0,0.0,0.0,0.0,0.0,0.0,0.0,0.0,0.0,0.0,0.0,0.0,0.0,0.0,-2.203,-2.1913,-2.2779,-2.3565,-2.3955,-2.367,-2.399,-2.4218,-2.4058,-2.4191,-2.4496,-2.4942,-2.5162,-2.5453,-2.5866,-2.5893,-2.6005,-2.6201,-2.6032,-2.6144,-2.6538,-2.6443,-2.6136,-2.5678,-2.5177,-2.4582,-2.3912,-2.3427,-2.3194,-2.3216,-2.3268,-2.3275,-2.3297,-2.3653,-2.3588,-2.3363,-2.4162,-2.4085,-2.3491,-2.3121,-2.2382,-2.1445,0.0,-1.1132,-1.0789,-1.0497,-1.0328,-1.0394,-1.0866,-1.0745,-1.0736,-1.1196,-1.0734,-1.0079,-0.9365,-0.8867,-0.8531,-0.8406,-0.8259,-0.8432,-0.9079,0.0,-0.9379,-0.9459,-0.9177,-0.9036,-0.9116,-0.9036,-0.9036,-0.9116,-0.9116,-0.9399,-0.9962,-0.9962,-1.0369,-1.1094,-1.1094,-1.1319,-1.1719,-1.1756,-1.1963,-1.2466,-1.419,-1.5351,-1.6182,-1.7357,-1.794,-1.8125,-1.8179,-1.8232,-1.8257,-1.8583,0.0,0.0,0.0,0.0,0.0,0.0,0.0,0.0,0.0,0.0,0.0,0.0,0.0,0.0,0.0,0.0,0.0,0.0,0.0,0.0,0.0,0.0,0.0,0.0,-2.1731,-2.1287,-2.149,-2.2479,-2.3254,-2.3379,-2.3767,-2.3992,-2.3992,-2.3992,-2.415,-2.4551,-2.458,-2.4738,-2.5077,-2.5384,-2.5647,-2.5883,-2.591,-2.6146,-2.668,-2.6243,-2.5833,-2.5493,-2.4731,-2.4038,-2.3397,-2.2939,-2.2712,-2.2712,-2.2826,-2.2834,-2.2797,-2.3164,-2.3135,0.0,0.0,0.0,0.0,0.0,-2.1879,-2.0674,0.0,-1.0861,-1.051,-1.0235,-1.0263,-1.0388,-1.056,-1.062,-1.0684,-1.0797,0.0,-0.9414,-0.8919,-0.8162,-0.7807,-0.8131,-0.7838,-0.7996,0.0,0.0,0.0,-0.8935,-0.8874,-0.8854,-0.8854,-0.8854,-0.8854,-0.8854,-0.8854,-0.8935,-0.9105,-0.9105,-0.9397,-0.9902,-0.9902,-1.0312,-1.0981,-1.1046,-1.1308,-1.1723,-1.2376,-1.3775,-1.5577,-1.6658,-1.7343,-1.776,-1.7794,-1.778,-1.778,-1.784,0.0,0.0,0.0,0.0,0.0,0.0,0.0,0.0,0.0,0.0,0.0,0.0,0.0,0.0,0.0,0.0,0.0,0.0,0.0,0.0,0.0,0.0,0.0,0.0,-2.1737,-2.1148,-2.0807,-2.15,-2.2401,-2.3441,-2.3682,-2.3758,-2.3787,-2.38,-2.3816,-2.3875,-2.3904,-2.3933,-2.3992,0.0,0.0,0.0,0.0,-2.6232,-2.7363,-2.6246,-2.5618,-2.5465,-2.4467,-2.3645,-2.2971,-2.2564,-2.2394,-2.2394,-2.2537,-2.256,-2.2509,-2.2706,-2.2789,-2.2841,-2.3267,-2.3157,-2.2722,-2.2048,-2.1075,-2.0088,0.0,-1.0837,-1.0497,-1.0186,-1.0005,-1.0051,-1.0461,-1.035,-1.0233,-1.0243,-0.9825,-0.916,-0.8212,-0.7772,-0.7312,-0.6756,-0.7011,-0.7577,0.0,0.0,-0.8516,-0.8516,-0.8147,-0.7961,-0.7961,-0.7961,-0.7961,-0.7961,-0.7961,-0.8167,-0.8557,-0.8557,-0.8842,-0.9357,-0.9357,-0.9468,-0.9667,-0.9687,-0.9914,-1.0331,-1.0782,-1.2183,-1.4073,-1.4732,-1.5274,-1.5688,-1.5786,-1.583,-1.5906,-1.6277,-1.6413,-1.6532,-1.723,0.0,0.0,0.0,0.0,0.0,0.0,0.0,0.0,0.0,0.0,0.0,0.0,0.0,0.0,0.0,0.0,0.0,0.0,0.0,0.0,-2.199,-2.1206,-2.0726,-2.1069,-2.1342,-2.1708,-2.2199,-2.2273,-2.2377,-2.2531,-2.2543,-2.2763,-2.3237,-2.3267,-2.3505,-2.3962,-2.4108,-2.4261,-2.4366,-2.4376,-2.4487,-2.4742,-2.4487,-2.3904,-2.3003,0.0,0.0,-2.1116,-2.1144,-2.114,-2.1164,-2.1286,-2.1589,-2.1973,-2.1996,-2.2315,-2.2775,-2.2447,-2.2251,-2.2048,-2.0886,-2.0306,-2.0016,-1.1858,-1.1455,-1.1052,-1.0749,-1.0612,-1.0557,-1.0609,-1.0549,-1.0433,-1.0234,-0.9785,-0.9129,-0.8163,-0.769,-0.7216,-0.6644,-0.6847,0.0,0.0,-0.7482,-0.7349,-0.7349,-0.7252,-0.7133,-0.7,-0.7133,-0.7196,-0.7196,-0.7196,-0.7321,-0.7551,-0.7551,-0.7793,-0.8252,-0.8252,-0.8496,-0.8901,-0.8933,-0.9249,-0.9778,-1.0032,-1.101,-1.2431,-1.3481,-1.4406,-1.5108,-1.5187,-1.521,-1.5243,-1.5465,-1.5542,-1.5681,-1.6352,-1.7209,-1.8134,0.0,0.0,0.0,0.0,0.0,0.0,0.0,0.0,0.0,0.0,0.0,0.0,0.0,0.0,-2.2797,-2.3296,0.0,-2.2043,-2.2568,-2.1825,-2.1229,-2.1502,-2.1415,-2.138,-2.1632,-2.1737,-2.1843,-2.1949,-2.1999,-2.2173,-2.2476,-2.258,-2.2781,-2.3083,-2.3386,-2.3551,-2.3551,-2.3846,-2.3992,-2.3992,-2.3992,-2.3417,-2.2295,-2.2295,-2.1694,-2.061,-2.0684,-2.0709,-2.0709,-2.0845,-2.1006,-2.1202,-2.1275,-2.1554,-2.1833,-2.1226,-2.1421,-2.183,-2.0429,-1.9834,-1.9721,-1.2829,-1.2441,-1.1923,-1.1388,-1.1314,-1.1183,-1.0769,-1.0809,-1.0725,-1.0215,-0.9765,-0.9191,-0.8342,-0.7862,-0.7432,0.0,0.0,0.0,0.0,-0.6535,-0.63,-0.6295,-0.6507,-0.6528,-0.631,-0.6571,-0.6683,-0.6619,-0.6683,-0.6704,-0.6704,-0.674,-0.693,-0.7236,-0.7291,-0.7681,-0.8294,-0.8341,-0.8667,-0.9185,-0.9459,-1.0015,-1.087,-1.2306,-1.3511,-1.4445,-1.4571,-1.4605,-1.4628,-1.4754,-1.48,-1.489,-1.5363,-1.6016,-1.6821,-1.7729,-1.8286,0.0,0.0,0.0,0.0,0.0,0.0,0.0,0.0,-2.0985,-2.1968,-2.1759,-2.2103,-2.266,-2.326,-2.2747,-2.2421,-2.3144,-2.257,-2.2009,-2.1906,-2.1571,-2.1337,-2.1348,-2.1517,-2.1655,-2.1698,-2.1812,-2.1874,-2.1874,-2.1999,-2.2104,-2.2104,-2.258,-2.2889,-2.2889,-2.3386,-2.3653,-2.3653,-2.3653,-2.3087,-2.1955,-2.1968,-2.1376,-2.0283,-2.0283,-2.0283,-2.0308,-2.0497,-2.0535,-2.0459,-2.0671,-2.0845,-2.089,-2.0136,-2.0507,-2.129,-1.9932,-1.9305,-1.9099,0.0,-1.3751,-1.2948,-1.1526,-1.1362,-1.1223,-1.0758,-1.0809,-1.0592,-0.9696,-0.9538,-0.9232,-0.853,-0.8309,-0.8012,0.0,0.0,0.0,-0.6725,-0.6456,-0.6302,-0.6301,-0.6331,-0.6331,-0.631,-0.6571,-0.6571,-0.6352,-0.6571,-0.6704,-0.6711,-0.6878,-0.6997,-0.7049,-0.7273,-0.7427,-0.7521,-0.7538,-0.7581,-0.7704,-0.8387,-0.9065,-0.9759,-1.0598,-1.1358,-1.2076,-1.2682,-1.2875,-1.2982,-1.3576,-1.3776,-1.3836,-1.4331,-1.5171,-1.6181,-1.7065,-1.8086,-1.8862,-1.8511,-1.8501,-1.8654,-1.8894,-1.9874,-2.0248,0.0,-1.9135,-2.0564,-2.1292,-2.1495,-2.1935,-2.3178,-2.3316,-2.3121,-2.2823,-2.2662,-2.2432,-2.1951,-2.1848,-2.1675,-2.1279,-2.1348,-2.1506,-2.1667,-2.1698,-2.173,-2.173,-2.173,-2.1761,-2.1761,-2.1925,-2.2049,-2.2049,-2.2266,-2.2389,-2.2389,-2.2389,-2.1873,-2.0791,-2.0787,-2.0228,-1.9172,-1.9172,-1.9172,-1.9225,-1.9708,-1.9901,-1.9927,-2.0409,-2.0709,-2.0718,-1.9689,-1.9384,-1.9436,-1.8779,-1.832,-1.7977,0.0,-1.3917,-1.3625,-1.244,-1.2021,-1.1709,-1.1227,-1.1015,-1.0668,-1.0059,-0.9873,-0.9672,-0.9355,-0.8915,-0.8435,0.0,0.0,0.0,-0.6524,-0.5869,-0.5432,-0.5313,-0.5464,-0.5464,-0.5303,-0.5572,-0.5684,-0.5656,-0.5974,-0.6164,-0.624,-0.6514,-0.6642,-0.6648,-0.6775,-0.6936,-0.7104,-0.7104,-0.7334,-0.7734,-0.8278,-0.8779,-0.9278,-0.9813,-1.0185,-1.0593,-1.1814,-1.2258,0.0,0.0,-1.2667,-1.2793,-1.3406,-1.4148,-1.5026,-1.6259,-1.6845,-1.6978,-1.6514,-1.7022,-1.7671,-1.7524,-1.8406,-1.9147,-1.8485,-1.949,-2.0566,-2.0621,-2.1308,-2.206,-2.258,-2.3072,-2.3289,-2.293,-2.2613,-2.2105,-2.1159,-2.0742,-2.0397,-1.9955,-2.0355,-2.086,-2.136,-2.1486,-2.1549,-2.1549,-2.1624,-2.1698,-2.1698,-2.1761,-2.1781,-2.1781,-2.1937,-2.203,-2.203,-2.2123,-2.1656,-2.0598,-2.0586,-2.0049,-1.8987,-1.8987,-1.8987,-1.9013,-1.9251,-1.9317,-1.9344,-1.9578,-1.9695,-1.9696,-1.9266,-1.8946,-1.865,-1.7867,-1.742,-1.7233,0.0,-1.3977,-1.4062,-1.3207,-1.2691,-1.2228,-1.1737,-1.133,-1.0957,-1.0665,-1.0419,-1.0168,-1.0,-0.942,-0.8811,-0.8235,0.0,0.0,0.0,-0.5638,-0.5035,-0.4688,-0.492,-0.4947,-0.4679,-0.4987,-0.5157,-0.5208,-0.549,-0.5691,-0.58,-0.611,-0.6289,-0.6369,-0.6457,-0.6659,-0.6947,-0.6947,-0.7226,-0.7704,-0.8114,-0.8501,-0.8877,-0.9283,-0.951,-0.9788,-1.1141,-1.1737,0.0,0.0,-1.2068,-1.2388,-1.2828,-1.3417,-1.4196,-1.5493,-1.5698,-1.5526,-1.5715,-1.5999,-1.6293,-1.6523,-1.7129,-1.7771,-1.8114,-1.9038,-1.9815,-1.9742,-2.0448,-2.125,-2.1773,-2.2342,-2.2675,-2.2568,-2.2305,-2.1673,-2.0569,-2.0065,-1.9607,-1.9073,-1.9474,-1.9998,-2.0528,-2.104,-2.1336,-2.1336,-2.1486,-2.1561,-2.1561,-2.1592,-2.1624,-2.1624,-2.1781,-2.1843,-2.1843,-2.203,-2.1596,-2.0512,-2.0557,-2.0049,-1.8987,-1.8987,-1.8907,-1.8735,-1.8735,-1.8655,-1.8509,-1.8509,-1.8509,-1.8509,-1.8509,-1.8231,-1.7779,-1.7085,-1.6934,-1.7052,0.0,0.0,-1.4198,-1.3598,-1.3156,-1.2703,-1.2156,-1.1737,-1.1473,-1.1468,-1.1125,-1.0711,-1.0249,-0.9713,-0.9131,-0.8457,-0.7835,-0.7162,-0.6447,-0.6077,-0.5583,-0.4925,-0.5097,-0.511,-0.4889,-0.5284,-0.5394,-0.5206,-0.5398,-0.5501,-0.551,-0.5782,-0.6051,-0.6319,-0.6563,-0.6848,-0.709,-0.709,-0.709,-0.7155,-0.7551,-0.801,-0.8448,-0.8877,-0.9263,-0.9684,-1.0389,0.0,0.0,0.0,-1.226,-1.3005,-1.2711,-1.3168,0.0,-1.4795,-1.5028,-1.5399,-1.7144,-1.6019,-1.4802,-1.6563,-1.6675,-1.6353,-1.6375,-1.6758,-1.7431,-1.8527,-1.8458,-1.8834,-2.078,-2.1033,-2.1096,-2.1397,-2.1659,-2.1489,-2.0539,-2.0404,-2.0027,-1.9114,-1.9011,-1.9044,0.0,-2.0366,-2.1221,-2.1221,-2.1221,-2.1233,-2.1233,-2.1336,-2.142,-2.142,-2.158,-2.1698,-2.1698,-2.1843,-2.1359,-2.0291,-2.0512,-2.0045,-1.8987,-1.8987,-1.8682,-1.812,-1.812,-1.7781,-1.7257,-1.7257,-1.7257,-1.7257,-1.7257,-1.6934,-1.6465,-1.6432,-1.6993,-1.7614,0.0,0.0,0.0,-1.3759,-1.345,-1.3138,-1.2632,-1.1957,-1.1491,-1.1509,-1.1492,0.0,0.0,0.0,0.0,0.0,-0.817,-0.7632,-0.728,-0.6406,-0.5758,-0.5452,-0.5118,-0.4902,-0.484,-0.4673,-0.4611,-0.4679,-0.465,-0.4706,-0.4847,-0.5115,-0.5462,-0.5837,-0.6117,-0.6453,-0.6837,-0.7031,-0.7176,-0.7311,-0.7578,-0.8066,-0.8616,-0.8891,-0.939,-0.9963,0.0,0.0,0.0,-1.0809,-1.1108,-1.1442,-1.1705,-1.2414,-1.3268,-1.3931,-1.4588,-1.5061,-1.5058,-1.511,-1.5219,-1.5516,-1.5715,-1.583,-1.5831,-1.6203,-1.6651,-1.7027,-1.7656,-1.8296,-1.8973,-1.9968,-2.0548,-2.0087,-2.0437,-2.0253,-1.8851,-1.9011,-1.8856,-1.7737,-1.8267,-1.8635,-1.8361,0.0,0.0,-1.9737,-1.9737,-1.9737,-1.9737,-1.9792,-1.9824,-1.9824,-1.9998,-2.0107,-2.0107,-2.0236,-1.9804,-1.884,-1.8278,-1.7896,-1.7667,-1.7667,-1.76,-1.7506,-1.7506,-1.7396,-1.7202,-1.7202,-1.7202,-1.7202,-1.7202,-1.7103,-1.689,-1.652,-1.682,-1.7255,0.0,0.0,0.0,0.0,0.0,0.0,0.0,0.0,0.0,0.0,0.0,0.0,0.0,0.0,0.0,0.0,0.0,-0.8101,-0.7798,0.0,-0.6158,-0.5788,-0.5272,-0.4945,-0.4905,-0.4529,-0.4376,-0.4504,-0.4264,-0.4203,-0.4325,-0.4542,-0.4867,-0.5258,-0.5659,-0.6116,-0.666,-0.703,-0.7316,-0.7553,-0.7771,-0.826,-0.8896,-0.9092,-0.965,0.0,0.0,0.0,0.0,-1.0469,-1.0619,-1.0768,-1.1163,-1.1805,-1.2515,-1.3184,-1.3679,-1.4012,-1.3858,-1.4141,-1.4516,-1.4721,-1.4701,-1.4741,-1.5028,-1.5201,-1.5376,-1.5679,-1.6425,-1.7145,-1.7436,-1.8649,-1.943,-1.886,-1.929,-1.9249,-1.8071,-1.8118,-1.8023,-1.7324,-1.7752,-1.809,-1.8037,-1.8437,0.0,-1.8965,-1.9122,-1.9142,-1.9021,-1.9011,-1.9011,-1.9011,-1.9144,-1.9199,-1.9199,-1.9218,-1.8775,-1.789,-1.7076,-1.6782,-1.6877,-1.6877,-1.6849,-1.6736,-1.6736,-1.6652,-1.6482,-1.6482,-1.651,-1.6557,-1.6557,-1.6557,-1.6525,-1.6175,-1.6248,-1.6458,0.0,0.0,0.0,0.0,0.0,0.0,0.0,0.0,0.0,0.0,0.0,0.0,0.0,0.0,0.0,0.0,0.0,0.0,0.0,0.0,0.0,-0.5987,-0.5555,-0.5271,-0.5122,-0.483,-0.4691,-0.4691,-0.4218,-0.3996,-0.3999,-0.4118,-0.4346,-0.4638,-0.5229,-0.5878,-0.6554,-0.7091,-0.7523,-0.7884,-0.8057,-0.8596,-0.9276,-0.947,0.0,0.0,0.0,0.0,0.0,-1.0602,-1.0823,-1.1102,-1.113,-1.1336,-1.1762,-1.2523,-1.2424,-1.2363,-1.3558,-1.3213,-1.282,-1.4112,-1.37,-1.3194,-1.398,-1.3821,-1.3733,-1.4521,-1.4966,-1.5446,-1.6244,-1.7177,-1.783,-1.783,-1.8312,-1.8585,-1.8177,-1.7805,-1.7641,-1.7774,-1.7459,-1.746,-1.8017,-1.8109,-1.8343,-1.8879,0.0,-1.9305,-1.8898,-1.8877,-1.8877,-1.8877,-1.8877,-1.8877,-1.8877,-1.8676,-1.8175,-1.7408,-1.6863,-1.6602,-1.6602,-1.6602,-1.633,-1.5845,-1.5845,-1.5594,-1.5186,-1.5186,-1.5254,-1.5381,-1.5362,-1.5362,-1.5381,-1.5362,-1.5362,-1.5408,0.0,0.0,0.0,0.0,0.0,0.0,0.0,0.0,0.0,0.0,0.0,0.0,0.0,0.0,0.0,0.0,0.0,0.0,0.0,0.0,0.0,0.0,0.0,-0.5756,-0.526,-0.4889,0.0,0.0,0.0,-0.3996,-0.3996,-0.4027,-0.4378,-0.4992,-0.5394,-0.6054,-0.6899,-0.7221,-0.7859,-0.8623,0.0,-0.9082,-1.004,0.0,0.0,0.0,0.0,0.0,0.0,-1.0777,-1.0806,-1.113,-1.1395,-1.1501,-1.16,-1.2073,-1.2123,-1.2091,-1.2416,-1.2518,-1.2636,-1.3216,-1.3194,-1.3133,-1.3571,-1.3601,-1.3733,-1.4521,-1.4966,-1.5446,-1.6199,-1.7231,-1.7934,-1.7934,-1.8464,-1.8699,-1.8289,-1.8325,-1.8177,-1.7621,-1.7879,-1.8037,-1.7904,-1.8271,-1.8369,0.0,-1.7991,-1.7868,-1.7461,-1.7442,-1.7442,-1.7442,-1.7442,-1.7442,-1.7442,-1.6802,-1.6357,-1.6169,-1.5413,-1.5118,-1.5216,-1.5216,-1.5206,-1.5225,-1.5225,-1.5147,-1.5059,-1.5059,-1.5059,-1.5079,-1.4773,-1.484,-1.5079,-1.4773,-1.485,-1.5108,0.0,0.0,0.0,0.0,0.0,0.0,0.0,0.0,0.0,0.0,0.0,0.0,0.0,0.0,0.0,0.0,0.0,0.0,0.0,0.0,0.0,0.0,0.0,-0.6448,-0.5805,-0.55,-0.5144,0.0,0.0,0.0,0.0,-0.4356,-0.4664,-0.5093,-0.5895,-0.6647,-0.7299,-0.8004,0.0,0.0,0.0,0.0,0.0,0.0,0.0,0.0,0.0,0.0,-1.1533,-1.1173,-1.0975,-1.0916,-1.1092,-1.115,-1.118,-1.1501,-1.1606,-1.1636,-1.179,-1.1966,-1.2182,-1.2521,-1.2674,-1.2899,-1.3417,-1.3675,-1.3982,-1.4761,-1.5343,-1.584,-1.6259,-1.7398,-1.8228,-1.8025,-1.843,-1.8685,-1.846,-1.8139,-1.7847,-1.7661,-1.7776,-1.7899,-1.7921,-1.831,-1.8297,-1.7661,-1.7688,-1.7513,-1.6936,-1.6908,-1.6826,-1.6652,-1.6652,-1.656,-1.6376,-1.5744,-1.5432,-1.5423,-1.4808,-1.4536,-1.4606,-1.4606,-1.4675,-1.4773,0.0,-1.4823,-1.4872,-1.4872,-1.4911,-1.4981,-1.4753,-1.4801,-1.4971,-1.4753,-1.481,-1.4971,0.0,0.0,0.0,0.0,0.0,0.0,0.0,0.0,0.0,0.0,0.0,0.0,0.0,0.0,0.0,0.0,0.0,0.0,0.0,0.0,0.0,0.0,0.0,-0.7353,-0.6573,-0.6433,-0.595,0.0,0.0,0.0,0.0,0.0,0.0,0.0,0.0,0.0,0.0,0.0,0.0,0.0,0.0,0.0,0.0,0.0,0.0,0.0,0.0,0.0,-1.1803,-1.1735,-1.1255,-1.0682,-1.0682,-1.0711,-1.0806,-1.1085,-1.1173,-1.1232,-1.1518,-1.1591,-1.1685,-1.2027,-1.2274,-1.2623,-1.3367,-1.3798,-1.426,-1.5129,-1.5892,-1.6433,-1.6587,-1.772,-1.8502,-1.8188,-1.8408,-1.8605,-1.8656,-1.7697,-1.7154,-1.7713,-1.7447,-1.741,-1.7944,-1.8181,-1.8134,-1.7757,-1.7888,-1.767,-1.6945,-1.6862,-1.6642,-1.6248,-1.623,-1.6056,-1.5689,-1.5294,-1.5102,-1.5093,-1.4698,-1.4515,-1.4515,-1.4515,-1.4515,-1.4515,-1.4515,0.0,-1.4656,-1.4656,-1.4784,-1.4941,-1.4884,-1.4894,-1.4941,-1.4884,-1.4894,-1.4884,0.0,0.0,0.0,0.0,0.0,0.0,0.0,0.0,0.0,0.0,-1.4809,-1.4881,0.0,0.0,0.0,0.0,0.0,0.0,0.0,0.0,0.0,0.0,-0.8967,-0.8415,-0.7326,-0.7272,-0.7192,-0.7009,0.0,0.0,0.0,0.0,0.0,0.0,0.0,0.0,0.0,0.0,0.0,0.0,0.0,0.0,0.0,0.0,0.0,0.0,0.0,-1.3401,-1.2795,0.0,-1.181,-1.1019,-1.1019,-1.1202,-1.1437,-1.1489,-1.1503,-1.1518,-1.1577,-1.1591,-1.1685,-1.2027,-1.212,-1.2321,-1.2971,-1.3395,-1.407,-1.5411,-1.6081,-1.6673,-1.7578,-1.8203,-1.8674,-1.893,-1.8759,-1.8699,-1.9067,-1.8091,-1.7437,-1.7544,-1.7324,-1.7229,-1.7337,-1.759,-1.7626,0.0,-1.7325,-1.7234,-1.6936,-1.6597,-1.623,-1.5808,-1.5799,-1.5762,-1.5689,-1.5294,-1.5102,-1.5093,-1.4698,-1.4515,-1.4515,-1.4515,-1.4515,-1.4515,-1.4515,0.0,-1.4536,-1.4536,-1.4565,-1.4558,-1.4217,-1.4291,-1.4558,-1.4208,-1.43,-1.454,0.0,0.0,0.0,0.0,0.0,0.0,0.0,-1.5875,-1.5806,-1.5488,-1.5625,-1.5453,-1.4638,-1.4552,-1.4306,0.0,0.0,0.0,0.0,0.0,0.0,0.0,0.0,-0.9688,-0.8514,-0.8626,-0.831,-0.7492,0.0,0.0,0.0,-0.8042,-0.8245,0.0,0.0,0.0,0.0,0.0,0.0,0.0,0.0,0.0,0.0,0.0,0.0,0.0,0.0,-1.414,-1.3351,-1.3173,-1.2548,-1.1813,-1.1662,-1.1836,-1.2027,-1.1903,-1.1879,-1.1809,-1.1654,-1.1591,-1.1654,-1.1809,-1.1965,-1.2313,-1.3172,-1.3647,-1.4372,-1.6033,-1.6524,-1.6927,-1.782,-1.834,-1.8648,-1.8878,-1.8708,-1.8648,-1.8845,-1.7894,-1.7184,-1.7184,-1.6917,-1.6713,-1.6713,-1.6952,-1.7039,-1.6917,-1.6777,-1.6793,-1.6883,-1.6321,-1.5799,-1.5395,-1.5184,-1.5175,-1.5377,-1.4992,-1.49,-1.5093,-1.4698,-1.4515,-1.4515,-1.4515,-1.4515,-1.4515,-1.4515,0.0,-1.4467,-1.4277,-1.4098,-1.3936,-1.3546,-1.3328,-1.3249,-1.3199,-1.31,-1.296,0.0,0.0,0.0,0.0,0.0,0.0,0.0,-1.6289,-1.6261,-1.6274,-1.6364,-1.6086,-1.5149,-1.5269,-1.5197,0.0,0.0,0.0,0.0,0.0,0.0,0.0,0.0,-1.0889,-0.9817,0.0,0.0,-0.8304,-0.8944,0.0,0.0,0.0,0.0,0.0,-1.0441,-1.1041,0.0,0.0,0.0,0.0,0.0,0.0,0.0,0.0,0.0,0.0,0.0,-1.4729,-1.394,-1.3865,-1.3427,-1.2901,-1.2649,-1.2515,-1.2459,-1.2182,-1.2096,-1.2034,-1.1685,-1.1591,-1.1606,-1.1672,-1.1883,-1.2356,-1.3416,-1.4013,-1.4778,-1.6422,-1.6927,-1.7244,-1.7871,-1.8271,-1.8494,-1.8571,-1.8588,-1.8614,-1.8699,-1.7749,-1.7038,-1.7038,-1.6513,-1.618,-1.618,-1.6334,-1.637,-1.6261,-1.612,-1.6201,-1.6524,-1.5971,-1.5414,-1.4921,-1.4641,-1.4662,-1.4974,-1.4671,-1.4602,-1.474,-1.4442,-1.4198,-1.407,-1.407,-1.407,-1.407,-1.407,0.0,0.0,-1.3722,-1.3473,-1.3265,-1.2949,-1.2567,-1.219,-1.2359,-1.2158,-1.1748,0.0,0.0,0.0,0.0,0.0,0.0,0.0,-1.6477,-1.6189,-1.6124,-1.6758,-1.7019,-1.6559,-1.5837,-1.5389,0.0,0.0,0.0,0.0,0.0,0.0,0.0,0.0,0.0,0.0,0.0,0.0,-1.0863,-1.1713,0.0,0.0,0.0,0.0,0.0,0.0,-1.2447,-1.3044,0.0,0.0,0.0,0.0,0.0,0.0,0.0,0.0,0.0,0.0,-1.5455,-1.5021,-1.4681,-1.4525,-1.436,-1.4073,-1.3324,-1.2459,-1.2182,-1.2096,-1.2034,-1.1685,-1.1591,-1.1665,-1.1886,-1.1992,-1.2275,-1.3365,-1.4138,-1.4979,-1.6102,-1.6935,-1.7543,-1.7923,-1.8025,-1.8153,-1.8528,-1.8588,-1.8716,-1.9067,-1.8175,-1.7454,-1.7454,-1.649,-1.5848,-1.5848,-1.5857,-1.5662,-1.5095,-1.5213,-1.5333,-1.5364,-1.5387,-1.5097,-1.4409,-1.4474,-1.4533,-1.4561,-1.4533,-1.4216,-1.3653,-1.3619,-1.326,-1.2665,-1.2665,-1.2665,-1.2665,-1.2665,0.0,0.0,-1.2633,-1.2602,-1.2604,-1.2541,-1.2525,-1.2432,-1.2206,-1.2262,-1.2282,0.0,0.0,0.0,0.0,0.0,0.0,-1.75,-1.6713,-1.6368,-1.7142,-1.7214,-1.7434,-1.8068,-1.7587,-1.704,-1.6632,0.0,0.0,0.0,0.0,0.0,0.0,0.0,0.0,0.0,0.0,-1.2394,-1.2148,-1.1939,0.0,0.0,0.0,0.0,0.0,0.0,-1.3558,-1.3988,0.0,0.0,0.0,0.0,0.0,0.0,0.0,0.0,0.0,0.0,0.0,-1.5618,-1.5131,-1.4847,-1.4639,-1.4479,-1.4148,-1.3725,-1.3146,-1.2861,-1.2586,-1.2049,-1.1747,-1.1665,-1.1923,-1.2166,-1.2633,-1.3715,-1.4528,-1.5369,-1.6448,-1.7098,-1.7586,-1.7923,-1.8,-1.8042,-1.8188,-1.8254,-1.8305,-1.8468,-1.7894,-1.7428,-1.7167,-1.6542,-1.5893,-1.515,-1.5089,-1.4796,-1.4106,-1.3965,-1.3816,-1.3592,-1.4271,-1.4322,-1.3536,-1.3169,-1.3039,-1.3169,-1.3169,-1.3078,-1.2917,-1.2917,-1.2757,-1.2512,-1.2512,-1.2512,-1.2512,-1.2512,0.0,0.0,-1.2229,-1.2026,-1.1888,-1.1616,-1.1329,-1.1077,-1.1173,-1.1036,-1.0762,0.0,0.0,0.0,0.0,0.0,-1.6967,-1.738,-1.6801,-1.6741,-1.785,-1.7797,-1.8042,-1.9026,-1.9164,-1.8938,-1.8265,-1.7586,0.0,0.0,0.0,0.0,0.0,0.0,0.0,0.0,0.0,-1.3883,-1.3851,-1.3275,-1.3475,0.0,0.0,-1.4081,-1.4416,0.0,0.0,0.0,0.0,0.0,0.0,0.0,0.0,0.0,0.0,0.0,0.0,0.0,0.0,0.0,0.0,0.0,-1.5027,-1.4965,-1.4976,0.0,-1.4013,-1.3533,-1.3132,-1.2547,-1.2072,-1.1851,-1.221,-1.251,-1.3045,-1.4244,-1.5056,-1.5891,-1.6868,-1.7381,-1.7723,-1.7948,-1.8,-1.8,-1.8,-1.8085,-1.8162,-1.8162,-1.7877,-1.7535,-1.7239,-1.6759,-1.5979,-1.4864,-1.4268,-1.381,-1.3535,-1.3027,-1.2667,-1.2504,-1.3002,-1.3099,-1.2658,-1.2228,-1.2074,-1.2205,-1.2205,-1.2174,-1.2074,-1.2074,-1.195,-1.1772,-1.1834,-1.1841,-1.1834,-1.1896,0.0,0.0,-1.1624,-1.1402,-1.1219,-1.0923,-1.057,-1.0254,-1.0318,-1.0124,-0.9773,0.0,0.0,0.0,0.0,0.0,0.0,-1.614,-1.6676,-1.7319,-1.7926,-1.8562,-1.9043,-1.917,-2.0318,-2.0808,-2.0137,-1.9158,0.0,0.0,0.0,0.0,0.0,0.0,0.0,0.0,0.0,-1.6238,-1.635,-1.6621,-1.7033,-1.7523,-1.6784,-1.6507,-1.6527,0.0,0.0,0.0,0.0,0.0,0.0,0.0,0.0,0.0,0.0,0.0,0.0,0.0,0.0,0.0,0.0,0.0,0.0,0.0,-1.5788,0.0,0.0,-1.39,-1.3506,-1.318,-1.2586,-1.2257,-1.2823,-1.305,-1.3472,-1.4859,-1.5742,-1.653,-1.7342,-1.7766,-1.7991,-1.8,-1.8,-1.8,-1.8,-1.834,-1.8579,-1.8579,-1.8263,-1.7991,-1.7991,-1.7038,-1.6088,-1.5253,-1.3468,-1.2666,-1.3426,-1.2491,0.0,-1.247,-1.1628,-1.1353,-1.181,-1.1919,-1.2012,-1.2012,-1.2012,-1.1664,-1.1017,-1.1017,-1.0685,-1.0015,-1.0238,-1.0333,-1.0339,0.0,0.0,0.0,-1.0618,-1.0624,-1.0624,-1.0586,-1.0586,-1.0519,-0.9936,-0.9873,-0.9957,0.0,0.0,0.0,0.0,0.0,0.0,0.0,-1.7025,-1.7394,-1.8052,-1.8678,-1.9432,-2.0397,-2.0902,-2.1286,-2.1576,-2.0809,0.0,0.0,0.0,0.0,0.0,0.0,0.0,0.0,0.0,-1.6403,-1.6263,-1.5759,-1.6201,-1.7526,-1.738,-1.775,-1.8515,-1.835,-1.83,0.0,0.0,0.0,0.0,0.0,0.0,0.0,0.0,0.0,0.0,0.0,0.0,0.0,0.0,0.0,0.0,0.0,0.0,0.0,-1.5375,-1.4857,-1.4297,-1.3925,-1.3517,-1.3279,-1.3711,-1.4202,-1.4776,-1.5479,-1.638,-1.7204,-1.7441,-1.7775,-1.8,-1.8,-1.8,-1.8,-1.8,-1.8094,-1.817,-1.817,-1.7886,-1.7347,-1.6524,-1.4743,-1.3506,-1.3248,-1.216,-1.1513,-1.1571,-1.1095,-1.0783,-1.0734,-1.0261,-1.029,-1.0888,-1.051,-1.0351,-1.051,-1.051,-1.0446,-1.032,-1.032,-1.0199,-0.9983,-1.0079,-1.0079,0.0,0.0,0.0,0.0,-1.018,-1.018,-1.018,-1.018,-1.0096,-0.997,-0.9758,-0.9645,-0.9476,0.0,0.0,0.0,0.0,0.0,0.0,0.0,-1.7386,-1.7837,-1.8254,-1.9038,-1.9953,-2.0987,-2.1366,-2.1913,-2.2873,-2.271,0.0,0.0,0.0,0.0,0.0,0.0,0.0,0.0,-1.7772,-1.7698,-1.7071,-1.6979,-1.7444,-1.8445,-1.8536,-1.8961,-1.9627,-1.9627,-1.9538,0.0,0.0,0.0,0.0,0.0,0.0,0.0,0.0,0.0,0.0,0.0,0.0,0.0,0.0,0.0,0.0,0.0,0.0,0.0,0.0,-1.5783,-1.5292,-1.4731,-1.4239,-1.3955,-1.4277,-1.4843,-1.5416,-1.5885,-1.6763,-1.7548,-1.7655,-1.7829,-1.7951,-1.7797,-1.7757,-1.7716,-1.7546,-1.7676,-1.7676,-1.7335,-1.742,-1.699,-1.5667,-1.3729,-1.2455,-1.2311,-1.1464,-1.0894,-1.0695,-1.0352,-1.0075,-0.9913,-0.966,-0.9702,-1.011,-0.9702,-0.9548,-0.9676,-0.9676,-0.974,-0.9798,-0.9798,-0.9798,-0.983,-0.9894,-0.9926,0.0,0.0,0.0,0.0,-0.9983,-0.9983,-0.9983,-0.9983,-0.9888,-0.9695,-0.9549,-0.9349,-0.9061,0.0,0.0,0.0,0.0,0.0,0.0,0.0,-1.7683,-1.8516,-1.85,-1.96,-2.0593,-2.1127,-2.1782,-2.269,-2.3979,0.0,0.0,0.0,0.0,0.0,0.0,0.0,0.0,0.0,-1.9881,-1.9894,-1.8763,-1.9806,-2.0231,-2.0084,-2.0121,-2.014,-2.0174,-2.0174,-1.997,0.0,0.0,0.0,0.0,0.0,0.0,0.0,0.0,0.0,0.0,0.0,0.0,0.0,0.0,0.0,0.0,0.0,0.0,0.0,0.0,0.0,0.0,0.0,-1.4807,-1.4363,-1.4627,-1.5025,-1.5535,-1.6163,-1.6919,0.0,-1.7797,-1.79,-1.7796,-1.7391,-1.7335,-1.7229,-1.6779,-1.7041,-1.7025,-1.6183,-1.6669,-1.6599,-1.5152,-1.3676,-1.2585,-1.2187,-1.1264,-1.0665,-1.0635,-1.0178,-0.9901,-0.9877,-0.9648,-0.9516,-0.9516,-0.9516,-0.9516,-0.9516,-0.9516,-0.9516,-0.9516,-0.9516,-0.9516,-0.9516,-0.9708,-0.9772,0.0,0.0,0.0,0.0,-0.9951,-0.9951,-0.9951,-0.9951,-0.9837,-0.9583,-0.9267,-0.8982,-0.869,0.0,0.0,0.0,0.0,0.0,0.0,0.0,0.0,0.0,0.0,-2.0087,-2.1412,-2.1959,-2.2617,-2.3554,0.0,0.0,0.0,0.0,0.0,0.0,0.0,0.0,0.0,0.0,-2.1543,-2.1543,-2.1254,-2.0597,-2.0561,-2.1057,-2.0604,-2.0923,-2.1841,-2.1841,-2.178,0.0,0.0,0.0,0.0,0.0,0.0,0.0,0.0,0.0,0.0,-1.7978,-1.8007,0.0,0.0,0.0,0.0,0.0,0.0,0.0,0.0,-1.6925,-1.655,-1.6322,0.0,-1.5453,-1.5503,-1.5791,-1.6105,0.0,-1.6735,-1.6996,-1.6757,-1.6921,-1.6962,-1.6565,-1.6669,-1.6812,-1.673,-1.6589,-1.6285,-1.5635,-1.4398,-1.3321,-1.281,-1.187,-1.1174,-1.0876,-1.0755,-1.0521,-1.0118,-0.9973,-0.9817,-0.9618,-0.9546,-0.9516,-0.9516,-0.9516,-0.9516,-0.9516,-0.9516,-0.9516,-0.9516,-0.9516,-0.9516,-0.9516,-0.9548,-0.958,0.0,0.0,0.0,-0.9606,-0.9606,-0.9606,-0.9606,-0.9606,-0.9346,-0.8913,-0.8846,-0.8523,-0.8087,0.0,0.0,0.0,0.0,0.0,0.0,0.0,0.0,0.0,0.0,0.0,0.0,0.0,0.0,0.0,0.0,0.0,0.0,0.0,0.0,0.0,0.0,0.0,0.0,-2.2258,-2.2728,-2.2728,-2.2244,-2.2398,-2.2228,-2.1807,-2.1766,-2.2087,-2.2711,-2.2744,-2.2766,0.0,0.0,0.0,0.0,0.0,0.0,0.0,0.0,0.0,0.0,-1.7802,-1.7801,0.0,-1.8081,-1.8332,-1.8674,0.0,0.0,0.0,0.0,-1.7407,-1.6959,-1.6959,-1.6501,-1.6045,-1.6089,-1.6328,-1.6564,-1.661,-1.6773,-1.6805,-1.64,-1.6434,-1.6438,-1.5984,-1.6084,-1.619,-1.6098,-1.5789,-1.5287,-1.4572,-1.2842,-1.1719,-1.185,-1.1083,-1.0479,0.0,-1.0213,-1.003,-0.9831,-0.9694,-0.9557,-0.942,-0.9478,-0.9516,-0.9516,-0.9516,-0.9516,-0.9516,-0.9516,-0.9516,-0.9516,-0.9516,-0.9516,-0.9516,-0.9516,-0.9516,0.0,0.0,0.0,-0.9516,-0.9516,-0.9516,-0.9504,-0.9372,-0.9071,-0.8692,-0.8572,-0.8243,-0.7901,0.0,0.0,0.0,0.0,0.0,0.0,0.0,0.0,0.0,0.0,0.0,0.0,0.0,0.0,0.0,0.0,0.0,0.0,0.0,0.0,0.0,0.0,0.0,-2.3873,-2.3094,-2.3949,-2.402,-2.32,-2.4412,-2.4198,-2.2691,-2.2923,-2.3061,-2.3109,-2.3281,-2.3347,0.0,0.0,0.0,0.0,0.0,0.0,0.0,0.0,0.0,0.0,0.0,0.0,0.0,-1.7781,-1.8382,-1.9108,-1.9108,0.0,0.0,0.0,0.0,0.0,-1.7407,-1.6875,-1.6323,-1.6394,-1.6587,-1.6749,-1.6727,-1.6635,-1.6438,-1.6121,-1.6051,-1.5954,-1.5525,-1.5465,-1.5433,-1.5223,-1.4614,-1.3915,-1.3168,-1.1675,-1.0865,-1.1378,-1.0646,0.0,-1.0176,-0.9708,-0.9443,-0.9587,-0.937,-0.9242,-0.9242,-0.9382,-0.9478,-0.9478,-0.9484,-0.9516,-0.9516,-0.9516,-0.9516,-0.9516,-0.9516,-0.9492,-0.9456,-0.9498,-0.9492,-0.9456,0.0,0.0,-0.9516,-0.9516,-0.9492,-0.9426,-0.9191,-0.8915,-0.862,-0.8369,-0.8123,-0.7901,0.0,0.0,0.0,0.0,0.0,0.0,0.0,0.0,0.0,0.0,0.0,0.0,0.0,0.0,0.0,0.0,0.0,0.0,0.0,0.0,0.0,0.0,-2.5591,-2.5251,-2.6108,-2.6284,-2.6504,-2.6798,-2.553,-2.4785,-2.4481,-2.2974,-2.257,-2.3135,-2.3703,-2.3964,-2.3913,0.0,0.0,0.0,0.0,0.0,0.0,0.0,0.0,0.0,0.0,0.0,0.0,-1.8164,-1.8662,-1.9108,-1.9108,0.0,0.0,0.0,0.0,0.0,-1.7407,-1.6865,-1.6342,-1.6519,-1.6256,-1.5958,-1.5973,-1.5458,-1.4945,-1.4872,-1.5036,-1.508,-1.4719,-1.4837,-1.4834,-1.4308,-1.2876,-1.1754,-1.1508,-1.0504,-0.9895,-1.0143,0.0,-0.9509,-0.9326,-0.9366,-0.9335,-0.9129,-0.9072,-0.9049,-0.9049,-0.9242,-0.9338,-0.9338,-0.9446,-0.9516,-0.9516,-0.9516,-0.9516,-0.9516,-0.9516,-0.939,-0.9167,-0.9408,-0.9384,-0.9173,0.0,-0.9516,-0.9516,-0.9516,-0.9378,-0.9155,-0.9113,-0.88,-0.8345,-0.8303,-0.8123,-0.7848,0.0,0.0,0.0,0.0,0.0,0.0,0.0,0.0,0.0,0.0,0.0,0.0,0.0,0.0,0.0,0.0,0.0,0.0,0.0,0.0,0.0,-2.7396,-2.6688,-2.6527,-2.7011,-2.6143,-2.6042,-2.6736,-2.539,-2.4598,-2.428,-2.3744,-2.3875,-2.4556,-2.4586,-2.4607,-2.4536,-2.3927,0.0,0.0,0.0,0.0,0.0,0.0,0.0,0.0,0.0,0.0,0.0,0.0,-1.8495,-1.9108,-1.9108,0.0,0.0,0.0,0.0,0.0,-1.7513,-1.6965,-1.6449,-1.65,-1.6294,-1.6035,-1.6024,-1.5573,-1.5101,-1.4861,-1.4919,-1.4923,-1.4771,-1.4421,-1.3819,-1.2738,-1.1829,-1.1065,-1.0376,-0.9898,-0.9565,0.0,0.0,-0.9156,-0.9097,-0.8975,-0.8919,-0.8899,-0.8894,-0.8894,-0.8894,-0.9049,-0.9145,-0.9145,-0.9215,-0.928,-0.9376,-0.9376,-0.9414,-0.9516,-0.9516,-0.9366,-0.9101,-0.9227,-0.9143,-0.8903,0.0,-0.9287,-0.93,-0.9456,-0.9438,-0.9312,-0.9155,-0.886,-0.8436,-0.7872,-0.7367,-0.6945,0.0,0.0,0.0,0.0,0.0,0.0,0.0,0.0,0.0,0.0,0.0,0.0,0.0,0.0,0.0,0.0,0.0,0.0,0.0,0.0,-2.6987,-2.7611,-2.7473,-2.7195,-2.6727,-2.5674,-2.5236,-2.55,-2.4626,-2.4064,-2.3829,-2.4564,-2.5211,-2.5761,-2.5356,-2.5118,-2.4948,-2.4361,-2.4083,0.0,0.0,0.0,0.0,0.0,0.0,0.0,0.0,0.0,0.0,0.0,0.0,0.0,0.0,0.0,0.0,-1.8361,-1.7875,-1.7424,-1.7295,-1.6775,-1.6193,-1.6095,-1.6029,-1.596,-1.596,-1.5505,-1.5072,-1.4828,-1.4842,-1.4875,-1.4827,-1.4024,-1.2949,-1.1627,-1.1103,-1.0587,-0.9736,-0.9516,-0.9376,-0.9147,-0.8921,-0.8847,-0.8942,-0.8679,-0.8582,-0.8705,-0.8738,-0.8738,-0.8738,-0.8861,-0.8952,-0.8952,-0.8985,-0.9081,-0.9242,-0.9215,-0.9316,-0.9484,-0.945,-0.9275,-0.9005,-0.9005,-0.886,-0.8632,-0.889,-0.9041,-0.9113,-0.933,-0.9378,-0.9274,-0.896,-0.8533,-0.8006,-0.7186,-0.6507,-0.5991,0.0,0.0,0.0,0.0,0.0,0.0,0.0,0.0,0.0,0.0,0.0,0.0,0.0,0.0,0.0,0.0,0.0,0.0,0.0,0.0,-2.7829,-2.8304,-2.7734,-2.6734,-2.5297,-2.5817,-2.5422,-2.4055,-2.3368,-2.3275,-2.3829,-2.5001,-2.5599,-2.5694,-2.5745,-2.5481,-2.4948,-2.4361,-2.4083,-2.4083,0.0,0.0,0.0,0.0,0.0,0.0,0.0,0.0,0.0,0.0,0.0,0.0,0.0,0.0,-1.835,-1.7874,-1.7356,-1.6865,-1.6421,-1.5831,-1.5267,-1.4844,-1.5024,-1.5266,-1.5199,-1.4385,-1.3748,-1.4097,-1.4381,-1.4511,-1.4533,-1.3562,-1.2531,-1.179,-1.0574,-0.9694,-0.9619,0.0,-0.8944,-0.8922,-0.8684,-0.8538,-0.8538,-0.8522,-0.8517,-0.8511,-0.8517,-0.8517,-0.8517,-0.8705,-0.8802,-0.8802,-0.8926,-0.9017,-0.9017,-0.8976,-0.9107,-0.951,-0.9251,-0.8987,-0.8734,-0.8734,-0.8596,-0.8333,-0.862,-0.8872,-0.9095,-0.9119,-0.8981,-0.8705,-0.8203,-0.7326,-0.6356,-0.63,-0.5878,-0.5363,0.0,0.0,0.0,0.0,0.0,0.0,0.0,0.0,0.0,0.0,0.0,0.0,0.0,0.0,0.0,0.0,0.0,0.0,0.0,0.0,-2.71,-2.7157,-2.7303,-2.6526,-2.4633,-2.4422,-2.3866,-2.2917,-2.299,-2.3718,-2.507,-2.595,-2.6548,-2.6859,-2.6527,-2.6244,-2.6028,-2.5412,-2.4963,-2.4677,-2.4677,0.0,0.0,0.0,0.0,0.0,0.0,0.0,0.0,0.0,-1.7575,-1.7915,0.0,-1.7812,-1.7854,-1.7399,-1.6901,-1.636,-1.566,-1.5081,-1.463,-1.436,-1.4247,-1.432,-1.463,-1.4416,-1.4175,-1.432,-1.4443,-1.4204,-1.3263,-1.2574,-1.1759,-1.0568,-0.9827,-0.9297,-0.9192,-0.9014,-0.8841,-0.8662,-0.8571,-0.8517,-0.8517,-0.8517,-0.8452,-0.8328,-0.8425,-0.8447,-0.8328,-0.8495,-0.8608,-0.8608,-0.8673,-0.8732,-0.8861,-0.8683,-0.8734,-0.8982,-0.8811,-0.8575,-0.8333,-0.8333,-0.8213,-0.8063,-0.8321,-0.8524,-0.8626,-0.8788,-0.8557,-0.801,-0.7245,-0.6535,-0.5893,-0.5841,-0.545,-0.493,0.0,0.0,0.0,0.0,0.0,0.0,0.0,0.0,0.0,0.0,0.0,0.0,0.0,0.0,0.0,0.0,0.0,0.0,-2.5764,-2.6228,-2.6458,-2.6364,-2.6611,-2.598,-2.4348,-2.3395,-2.2705,-2.2305,-2.302,-2.4268,-2.5947,-2.6518,-2.7109,-2.7625,-2.7034,-2.6747,-2.6642,-2.5892,-2.5342,-2.4977,-2.4778,-2.4476,0.0,0.0,0.0,0.0,0.0,0.0,0.0,0.0,-1.711,-1.7461,0.0,0.0,0.0,0.0,-1.6357,-1.5893,-1.4985,-1.4507,-1.418,-1.3836,-1.3575,-1.3502,-1.3793,-1.4011,-1.4128,-1.4071,-1.4057,-1.3702,-1.2583,-1.1884,-1.1113,-0.994,-0.9395,-0.9044,-0.8922,-0.8836,-0.8694,-0.8533,-0.8517,-0.8517,-0.8517,-0.8447,-0.8361,-0.8301,-0.835,-0.8361,-0.8301,-0.8425,-0.8517,-0.8517,-0.8517,-0.8544,-0.8622,-0.8379,-0.8285,-0.8291,-0.816,-0.8109,-0.8038,-0.7963,-0.7856,-0.7773,-0.7978,-0.8102,-0.8162,-0.8155,-0.7701,-0.692,-0.6221,-0.5632,-0.521,-0.5186,-0.489,-0.4565,0.0,0.0,0.0,0.0,0.0,0.0,0.0,0.0,0.0,0.0,0.0,0.0,0.0,0.0,0.0,0.0,0.0,0.0,-2.5982,-2.6009,-2.6099,-2.6287,-2.5665,-2.4989,-2.4333,-2.3009,-2.2336,-2.232,-2.3442,-2.4754,-2.6237,-2.6613,-2.7158,-2.775,-2.7174,-2.6837,-2.6642,-2.5508,-2.5033,-2.4948,-2.4361,-2.4112,0.0,0.0,0.0,0.0,0.0,0.0,0.0,0.0,-1.6674,-1.6924,0.0,0.0,0.0,-1.5947,-1.5663,-1.5385,-1.4444,-1.418,-1.3997,-1.3201,-1.3001,-1.2914,-1.2558,-1.3023,-1.3397,-1.3075,-1.3031,-1.2986,-1.2735,-1.1706,-1.071,-1.0184,-0.9417,-0.8895,-0.8895,-0.8662,-0.8517,-0.8517,-0.8517,-0.8517,-0.8517,-0.8328,-0.8279,-0.849,-0.8317,-0.8284,-0.8495,-0.8511,-0.8511,-0.8517,-0.8511,-0.8398,-0.8218,-0.8059,-0.7794,-0.7394,-0.7324,-0.7515,-0.7875,-0.7629,-0.7494,-0.7494,-0.7494,-0.7658,-0.783,-0.7226,-0.6397,-0.5444,-0.5044,-0.4601,-0.4212,-0.4209,-0.4199,-0.4221,0.0,0.0,0.0,0.0,0.0,0.0,0.0,0.0,0.0,0.0,0.0,0.0,0.0,0.0,0.0,0.0,0.0,0.0,-2.5504,-2.5821,-2.5958,-2.588,-2.6006,-2.598,-2.578,-2.5401,-2.4456,-2.2994,-2.3805,-2.5077,-2.6777,-2.7373,-2.7418,-2.6975,-2.725,-2.7104,-2.6628,-2.6766,-2.6575,-2.6136,-2.555,-2.5076,0.0,0.0,0.0,0.0,0.0,0.0,0.0,0.0,0.0,0.0,-1.6454,0.0,0.0,-1.5947,-1.5484,-1.4992,-1.3865,-1.3159,-1.266,-1.2375,-1.2288,-1.2266,-1.2171,-1.247,-1.2678,-1.2247,-1.2158,-1.1903,-1.1022,-1.0475,0.0,-0.936,-0.8903,-0.8619,-0.8619,-0.856,-0.8517,-0.8517,-0.8517,-0.8517,-0.8517,-0.8452,-0.8296,-0.8032,-0.8253,-0.8291,0.0,-0.8198,-0.8371,-0.8511,-0.835,-0.8338,-0.8404,-0.803,-0.7793,-0.7664,-0.7339,-0.7263,-0.7471,-0.7399,-0.7413,-0.7494,-0.7494,-0.7312,-0.6903,-0.582,-0.527,-0.5023,-0.4366,-0.4101,-0.4079,-0.4277,-0.433,-0.4351,0.0,0.0,0.0,0.0,0.0,0.0,0.0,0.0,0.0,0.0,0.0,0.0,0.0,0.0,0.0,0.0,0.0,0.0,0.0,0.0,-2.5565,-2.5548,-2.5799,-2.5964,-2.5964,-2.5964,-2.5487,-2.4518,-2.5152,-2.6145,-2.7485,-2.7847,-2.7654,-2.709,-2.7225,-2.7035,-2.6587,-2.6485,-2.6245,-2.5853,-2.532,-2.4888,-2.4541,0.0,0.0,0.0,0.0,0.0,0.0,0.0,0.0,0.0,-1.6413,0.0,-1.661,-1.5861,-1.5329,-1.4836,-1.3877,-1.3144,-1.2579,-1.2281,-1.2193,-1.2094,-1.1646,-1.1931,-1.2198,-1.186,-1.1607,-1.1157,-1.0148,-0.9694,0.0,-0.8809,-0.8608,-0.8517,-0.8517,-0.8517,-0.8517,-0.8517,-0.8517,-0.8517,-0.8517,-0.8425,-0.8291,-0.8097,-0.8172,-0.8145,0.0,-0.8014,-0.8149,-0.8361,-0.8257,-0.8252,-0.8366,-0.7989,-0.7752,-0.7626,-0.7268,-0.7139,-0.723,-0.723,-0.7252,-0.7327,-0.7327,-0.6864,-0.6014,-0.5246,-0.4756,-0.4401,-0.391,-0.3799,-0.3934,-0.4112,-0.4159,-0.418,0.0,0.0,0.0,0.0,0.0,0.0,0.0,0.0,0.0,0.0,0.0,0.0,0.0,0.0,0.0,0.0,0.0,0.0,0.0,0.0,-2.5105,-2.5352,-2.5463,-2.5512,-2.5573,-2.5573,-2.5918,-2.6565,-2.6926,-2.7468,-2.8186,-2.7932,-2.7724,-2.7579,-2.6892,-2.6543,-2.6353,-2.5243,-2.4791,-2.4737,-2.4261,-2.4042,-2.4001,-2.4004,0.0,0.0,0.0,0.0,0.0,0.0,0.0,0.0,-1.6485,-1.6467,-1.6386,-1.5627,-1.5187,-1.4774,-1.4138,-1.3656,-1.3221,-1.2594,-1.2385,-1.2045,-1.0962,-1.1301,-1.1778,-1.1607,-1.1152,-1.0523,-0.9807,-0.9231,-0.8798,-0.8549,-0.8517,-0.8517,-0.8517,-0.8517,-0.8517,-0.8517,-0.8517,-0.8517,-0.8517,-0.8344,-0.8284,-0.8436,-0.8065,0.0,0.0,-0.7881,-0.7876,-0.8138,-0.818,-0.818,-0.818,-0.7938,-0.7653,-0.7394,-0.7203,-0.7112,-0.7112,-0.7112,-0.7112,-0.7085,-0.7058,-0.6399,-0.5386,-0.5281,-0.4677,-0.3852,-0.3666,-0.3663,-0.3783,-0.3797,-0.3812,-0.3797,0.0,0.0,0.0,0.0,0.0,0.0,0.0,0.0,0.0,0.0,0.0,0.0,0.0,0.0,0.0,0.0,0.0,0.0,0.0,0.0,-2.5262,-2.5816,-2.6565,-2.7196,-2.7719,-2.7734,-2.7811,-2.798,-2.6926,-2.6962,-2.8014,-2.6825,-2.6208,-2.6027,-2.5368,-2.5061,-2.5053,-2.5295,-2.5411,-2.5364,-2.4788,-2.4346,-2.3939,-2.3499,-2.3254,0.0,0.0,0.0,0.0,0.0,0.0,0.0,-1.6986,-1.712,-1.7073,-1.5245,-1.4876,-1.4726,-1.324,-1.259,-1.228,-1.2142,-1.1625,-1.099,-1.0308,-1.0327,-1.0322,-0.9914,-0.9732,-0.9459,-0.8891,-0.8685,-0.8571,-0.8522,-0.8517,-0.8517,-0.8517,-0.8517,-0.8517,-0.8517,-0.8517,-0.8517,-0.8517,-0.8468,-0.8301,-0.7978,0.0,0.0,-0.7589,-0.7524,-0.7605,-0.7865,-0.7876,-0.7876,-0.7876,-0.7828,-0.7653,0.0,-0.7203,-0.7112,-0.7112,-0.7112,-0.7112,-0.7085,-0.6588,-0.6236,-0.5937,-0.5034,-0.4543,-0.4294,-0.3802,-0.361,-0.3652,-0.3768,-0.3812,-0.3815,0.0,0.0,0.0,0.0,0.0,0.0,0.0,0.0,0.0,0.0,0.0,0.0,0.0,0.0,0.0,0.0,0.0,0.0,0.0,0.0,-2.5359,-2.6164,-2.7288,-2.8042,-2.8396,-2.8411,-2.8411,-2.8411,-2.7498,-2.737,-2.7965,-2.7155,-2.6687,-2.6497,-2.5516,-2.5068,-2.5053,-2.4777,-2.4642,-2.4627,-2.4367,-2.3979,-2.349,-2.3208,-2.2991,-2.2805,-2.2779,0.0,0.0,0.0,0.0,0.0,0.0,0.0,-1.7053,-1.5459,-1.4883,-1.4525,-1.3339,-1.2746,-1.24,-1.2007,-1.109,-1.0117,-0.9581,-0.9197,-0.8902,-0.8811,-0.9058,-0.9105,-0.8488,-0.8436,-0.8474,-0.8361,-0.8441,-0.8517,-0.8517,-0.8517,-0.8474,-0.8355,-0.8447,-0.8468,-0.835,-0.8447,-0.8414,-0.8161,0.0,-0.7876,-0.7599,-0.7369,-0.7358,-0.7594,-0.7605,-0.7658,-0.7801,-0.7658,-0.754,-0.7394,-0.7203,-0.7112,-0.7112,-0.7112,-0.7112,-0.7085,-0.6756,-0.6453,-0.6154,-0.5555,-0.4979,-0.4463,-0.4162,-0.3858,-0.3619,-0.3679,-0.3701,-0.3701,0.0,0.0,0.0,0.0,0.0,0.0,0.0,0.0,0.0,0.0,0.0,0.0,0.0,0.0,0.0,0.0,0.0,0.0,0.0,-2.5362,-2.5665,-2.6378,-2.7688,-2.8411,-2.8411,-2.8411,-2.8411,-2.8411,-2.7932,-2.776,-2.784,-2.7549,-2.743,-2.7375,-2.6033,-2.5435,-2.5337,-2.4253,-2.3714,-2.3611,-2.3714,-2.3406,-2.2846,-2.2901,-2.263,-2.231,-2.2753,-2.2191,-2.1221,-2.0962,0.0,0.0,0.0,0.0,-1.6777,-1.5664,-1.49,-1.4268,-1.3606,-1.31,-1.2542,-1.1654,-1.0519,-0.9466,-0.8911,-0.827,-0.7865,-0.8158,-0.8646,-0.8865,-0.8302,-0.8344,-0.8388,-0.8214,-0.8355,-0.8517,-0.8517,-0.8517,-0.8441,-0.8268,-0.8393,-0.8436,-0.8263,-0.8398,-0.8501,0.0,0.0,-0.7785,-0.7742,-0.7322,-0.7176,-0.7353,-0.7373,-0.7498,-0.7672,-0.7498,-0.7373,-0.7358,-0.7182,-0.7112,-0.7112,-0.7112,-0.7112,-0.7112,-0.7128,-0.6846,-0.6344,-0.6127,-0.55,-0.4625,-0.4408,-0.4052,-0.3616,-0.3635,-0.363,-0.3616,0.0,0.0,0.0,0.0,0.0,0.0,0.0,0.0,0.0,0.0,-2.5597,-2.5597,-2.5597,-2.5597,0.0,0.0,0.0,0.0,-2.5559,0.0,0.0,-2.6402,-2.7688,-2.8411,-2.8411,-2.8411,-2.8411,-2.8411,-2.7084,-2.6713,-2.721,-2.6296,-2.6192,-2.6662,-2.5322,-2.4739,-2.4724,-2.4545,-2.4126,-2.361,-2.3612,-2.3059,-2.2208,-2.2235,-2.1977,-2.1629,-2.1707,-2.1471,-2.1083,-2.0819,-1.9878,0.0,0.0,0.0,-1.6686,-1.5102,-1.4507,-1.4144,-1.2987,-1.2223,-1.1512,-1.0292,-0.9609,-0.9109,-0.8435,-0.8028,-0.7865,-0.8158,-0.8102,-0.8037,-0.818,-0.8209,-0.8219,-0.8218,-0.8355,-0.8517,-0.8517,-0.8517,-0.8506,-0.8468,-0.8495,-0.8501,-0.8468,-0.8495,-0.8425,0.0,-0.7982,-0.7715,-0.7453,-0.7235,-0.7122,-0.7133,-0.7315,-0.7337,-0.7209,-0.7331,-0.7315,-0.7133,-0.7101,-0.7112,-0.7112,-0.7112,-0.7112,-0.7122,-0.7283,-0.7223,-0.6891,-0.5855,-0.5332,-0.5089,-0.4104,-0.3666,-0.3624,-0.3723,-0.3698,-0.3627,0.0,0.0,0.0,0.0,0.0,0.0,0.0,0.0,0.0,0.0,0.0,-2.5597,-2.5597,-2.5597,0.0,0.0,0.0,0.0,-2.5275,-2.6,0.0,0.0,-2.7319,-2.7842,-2.7842,-2.7842,-2.7657,-2.7272,-2.6477,-2.6236,-2.6537,-2.6277,-2.6327,-2.6604,-2.5663,-2.5405,-2.5674,-2.4918,-2.4425,-2.4089,-2.3459,-2.2964,-2.2534,-2.1951,-2.1628,-2.1511,-2.1511,-2.1418,-2.1257,-2.0925,-2.0229,-1.9281,-1.8159,0.0,0.0,0.0,-1.4708,-1.3899,-1.2589,-1.1929,-1.138,-1.0391,-0.9695,-0.9065,-0.8368,-0.7865,-0.7642,-0.7933,-0.7768,-0.761,-0.7736,-0.7865,-0.7878,-0.7572,-0.7793,-0.7995,-0.8048,-0.8003,-0.7941,-0.7979,-0.8142,-0.8168,-0.8011,-0.8308,-0.8414,0.0,-0.796,-0.7669,-0.7405,-0.7219,-0.7112,-0.7112,-0.7187,-0.7192,-0.7112,-0.7192,-0.7192,-0.7112,-0.7112,-0.7112,-0.7117,-0.723,-0.7214,-0.7117,-0.7198,-0.7182,-0.7058,-0.6534,-0.5905,-0.525,-0.4759,-0.4203,-0.3706,-0.3693,-0.3695,-0.3706,0.0,0.0,0.0,0.0,0.0,0.0,0.0,0.0,0.0,0.0,0.0,0.0,-2.5448,0.0,0.0,0.0,0.0,0.0,-2.5025,0.0,0.0,0.0,0.0,-2.7319,-2.7149,-2.7303,-2.7011,-2.6252,-2.5651,-2.5497,-2.5749,-2.5589,-2.5875,-2.6455,-2.6276,-2.6337,-2.6527,-2.5516,-2.5008,-2.4768,-2.3756,-2.3316,-2.314,-2.2194,-2.1777,-2.1721,-2.1564,-2.1511,-2.1407,-2.0884,-2.0225,-1.9435,-1.8249,-1.7432,0.0,0.0,0.0,-1.3554,-1.2252,-1.1684,-1.127,-1.0502,-0.9771,-0.9101,-0.8368,-0.7833,-0.7578,-0.7838,-0.7568,-0.7309,-0.7309,-0.7452,-0.7475,-0.7079,-0.7275,-0.7534,-0.7555,-0.7516,-0.7566,-0.7696,-0.7886,-0.7954,-0.7854,-0.8249,-0.8441,0.0,-0.7968,-0.7725,-0.7519,-0.7246,-0.7112,-0.7112,-0.7112,-0.7112,-0.7112,-0.7112,-0.7112,-0.7112,-0.7112,-0.7112,-0.7117,-0.7245,-0.7229,-0.7112,-0.7149,-0.7139,-0.7085,-0.695,-0.6344,-0.5523,-0.5363,-0.4773,-0.4004,-0.3886,-0.3823,-0.3798,0.0,0.0,0.0,0.0,0.0,0.0,0.0,0.0,0.0,0.0,0.0,0.0,-2.5045,-2.5217,-2.5314,-2.5314,0.0,0.0,0.0,0.0,0.0,0.0,0.0,0.0,-2.6479,-2.7072,-2.688,-2.584,-2.4356,-2.4028,-2.4752,-2.3286,-2.3771,-2.5906,-2.7016,-2.7171,-2.6587,-2.6512,-2.6123,-2.5484,-2.4849,-2.4336,-2.3879,-2.3262,-2.2751,-2.2283,-2.1721,-2.1511,-2.1355,-2.0436,-1.9444,-1.8488,-1.805,-1.7219,-1.6319,0.0,0.0,0.0,-1.1918,-1.1379,-1.0889,-0.9958,-0.9483,-0.9036,-0.8368,-0.7987,-0.7849,-0.8111,-0.7556,-0.702,-0.702,-0.703,-0.7035,-0.6996,-0.7125,-0.7221,-0.7221,-0.7397,-0.7619,-0.7939,-0.7977,-0.8112,-0.8431,-0.8474,-0.8511,0.0,-0.8065,-0.7795,-0.7785,-0.7338,-0.7112,-0.7112,-0.7112,-0.7112,-0.7112,-0.7112,-0.7112,-0.7112,-0.7112,-0.7112,-0.7112,-0.7095,-0.7122,-0.7095,-0.7304,-0.7272,-0.7058,-0.648,-0.6209,-0.61,-0.5523,-0.4998,-0.4571,-0.4564,-0.4245,-0.3809,0.0,0.0,0.0,0.0,0.0,0.0,0.0,0.0,0.0,0.0,0.0,0.0,0.0,-2.5064,-2.5158,-2.5294,-2.5294,0.0,0.0,0.0,0.0,0.0,0.0,0.0,0.0,-2.6364,-2.597,-2.4527,-2.3688,-2.3363,-2.3464,-2.3442,-2.3886,-2.4764,-2.5923,-2.6732,-2.721,-2.6767,-2.6452,-2.6126,-2.4793,-2.4388,-2.4455,-2.3151,-2.276,-2.2858,-2.2269,-2.1825,-2.1433,-2.1025,-2.0078,-1.8975,-1.8343,-1.7567,-1.6691,-1.5546,-1.451,-1.3524,-1.2458,-1.1805,-1.1162,-1.0156,-0.9702,-0.9326,-0.8576,-0.823,-0.8018,-0.7856,-0.7506,-0.7134,-0.6759,-0.6673,-0.662,-0.6444,-0.6639,-0.6836,-0.6872,-0.6819,-0.6909,-0.7237,-0.7302,-0.7433,-0.7819,-0.8052,-0.8216,0.0,0.0,-0.7731,-0.7557,-0.7262,-0.7112,-0.7112,-0.7112,-0.7112,-0.7112,-0.7112,-0.7112,-0.7112,-0.7112,-0.7112,-0.7112,-0.7112,-0.7112,-0.7117,-0.7176,-0.7165,-0.7085,-0.6864,-0.6534,-0.6182,-0.5959,-0.5585,-0.5132,-0.4692,-0.4431,-0.4239,0.0,0.0,0.0,0.0,0.0,0.0,0.0,0.0,0.0,-2.457,0.0,0.0,0.0,0.0,-2.4926,-2.5045,-2.5158,-2.5103,-2.4886,0.0,0.0,0.0,0.0,0.0,0.0,-2.5973,-2.5558,-2.3976,-2.329,-2.2858,-2.2652,-2.299,-2.3383,-2.3824,-2.4597,-2.5816,-2.7276,-2.6821,-2.6768,-2.6797,-2.5223,-2.4842,-2.5003,-2.3324,-2.3014,-2.342,-2.2663,-2.227,-2.1994,-2.1625,-2.0672,-1.9536,-1.8744,-1.7779,-1.668,-1.5381,-1.4531,-1.3786,-1.2848,-1.2097,-1.1404,-1.0503,-1.0044,-0.9619,-0.8918,-0.851,-0.818,-0.7801,-0.7531,-0.718,-0.6677,-0.6472,-0.628,-0.5888,-0.5878,-0.5951,-0.5986,-0.591,-0.605,-0.6576,-0.6646,-0.6872,-0.7461,-0.7689,-0.7857,0.0,0.0,0.0,-0.7367,-0.7202,-0.7112,-0.7112,-0.7112,-0.7112,-0.7112,-0.7112,-0.7112,-0.7112,-0.7112,-0.7112,-0.7112,-0.7112,-0.7112,-0.7112,-0.7112,-0.7112,-0.7112,-0.7112,-0.6864,-0.6507,-0.6507,-0.6225,-0.5727,-0.5016,-0.4696,-0.4493,0.0,0.0,0.0,0.0,0.0,0.0,0.0,0.0,-2.5773,-2.4466,0.0,0.0,0.0,0.0,0.0,-2.4641,-2.4878,-2.4902,-2.4609,-2.4589,0.0,0.0,0.0,0.0,-2.5312,-2.6026,-2.5712,-2.4279,-2.308,-2.2428,-2.2253,-2.1744,-2.2087,-2.3145,-2.3159,-2.4461,-2.6584,-2.6625,-2.6964,-2.7429,-2.6254,-2.5769,-2.5617,-2.3883,-2.3574,-2.3939,-2.2833,-2.274,-2.3076,-2.2214,-2.1161,-2.0061,-1.9165,-1.7748,-1.6288,-1.5468,-1.4658,-1.3846,0.0,0.0,0.0,-1.0933,-1.0415,-0.9894,-0.9396,-0.8894,-0.8414,-0.8084,-0.7587,-0.7127,-0.6778,-0.6427,-0.5999,-0.5411,-0.4942,-0.4661,-0.4661,-0.4768,-0.5147,-0.6013,-0.6112,-0.647,-0.7391,-0.7493,0.0,0.0,-0.7387,-0.729,-0.7315,-0.7175,-0.7112,-0.7112,-0.7112,-0.7112,-0.7112,-0.7112,-0.7112,-0.7112,-0.7112,-0.7085,-0.7085,-0.7085,-0.7085,-0.7085,-0.7085,-0.7085,-0.7085,-0.7085,-0.7085,-0.7085,-0.7085,-0.6811,-0.6317,-0.5595,-0.5026,-0.4516,0.0,0.0,0.0,0.0,0.0,-2.6757,-2.6373,-2.5481,-2.4712,0.0,0.0,0.0,-2.4364,-2.4968,-2.5404,-2.5404,-2.5451,-2.5233,-2.4641,-2.4467,-2.4364,-2.4302,-2.5641,-2.6041,-2.5312,-2.5973,-2.5569,-2.4011,-2.2988,-2.2123,-2.136,-2.147,-2.1668,-2.1983,-2.2419,-2.3191,-2.4203,-2.4643,-2.5412,-2.6243,-2.5071,-2.5066,-2.5659,-2.4363,-2.3939,-2.3992,-2.325,-2.308,-2.3104,-2.2462,-2.1635,-2.0552,-1.8854,-1.7712,-1.6832,-1.6075,-1.5371,-1.4658,-1.3717,0.0,0.0,0.0,0.0,0.0,-0.9492,-0.9177,-0.8888,-0.8149,-0.7773,-0.7461,-0.7127,-0.6455,-0.5915,-0.5755,-0.5835,-0.5915,-0.5915,-0.592,-0.605,-0.628,-0.6317,-0.6515,-0.7007,-0.7073,0.0,0.0,-0.7273,-0.7212,-0.7295,-0.7175,-0.7112,-0.7112,-0.7112,-0.7112,-0.7112,-0.7112,-0.7112,-0.7112,-0.7112,-0.7004,-0.681,-0.7004,-0.7004,-0.681,-0.7031,-0.7004,-0.6837,-0.7031,-0.6977,-0.6842,-0.7031,-0.6905,-0.6569,-0.6119,-0.5525,-0.4869,0.0,0.0,0.0,-2.8411,-2.7503,-2.665,-2.6395,-2.5426,-2.4733,0.0,0.0,0.0,-2.5195,-2.5642,-2.5954,-2.5992,-2.5712,-2.5335,-2.4916,-2.4518,-2.4302,-2.4302,-2.5349,-2.5887,-2.5764,-2.5939,-2.5468,-2.4334,-2.3212,-2.21,-2.0997,-2.1116,-2.1184,-2.1172,-2.1524,-2.1864,-2.2172,-2.2515,-2.3935,-2.5778,-2.458,-2.4653,-2.5308,-2.363,-2.3184,-2.3302,-2.2714,-2.2662,-2.2818,-2.2397,-2.154,-2.0366,-1.8704,-1.7727,-1.7062,-1.6428,-1.5739,-1.4991,-1.4085,-1.3334,-1.252,-1.1397,0.0,0.0,-1.0072,-0.9594,-0.9107,-0.8431,-0.8036,-0.7721,-0.7377,-0.6766,-0.6318,-0.6318,-0.638,-0.6251,-0.5782,-0.5749,-0.5815,-0.605,-0.6148,-0.633,-0.6655,-0.6751,-0.6892,-0.7045,-0.6949,-0.696,-0.7135,-0.7006,-0.6977,-0.7085,-0.7004,-0.6977,-0.7112,-0.7112,-0.7058,-0.6918,-0.6918,-0.6783,-0.6512,-0.681,-0.6837,-0.6701,-0.6869,-0.6837,-0.6701,-0.6729,-0.662,-0.6512,-0.6674,-0.662,-0.6426,-0.5991,-0.555,-0.5081,0.0,0.0,-2.8411,-2.8411,-2.7857,-2.7196,-2.6595,-2.5826,-2.5327,0.0,-2.5419,-2.5733,-2.6518,-2.6503,-2.6434,-2.6503,-2.5841,-2.5373,-2.5296,-2.4666,-2.4302,-2.4302,-2.4927,-2.5656,-2.6364,-2.5948,-2.5414,-2.4864,-2.3526,-2.2254,-2.0972,-2.0774,-2.0699,-2.0699,-2.0699,-2.0699,-2.0699,-2.0777,-2.2588,-2.5308,-2.4239,-2.4174,-2.4471,-2.2324,-2.1786,-2.2126,-2.1525,-2.1694,-2.2178,-2.1989,-2.114,-1.9934,-1.8693,-1.7852,-1.7213,-1.6591,-1.5894,-1.5167,-1.4353,-1.3554,-1.2734,-1.1926,-1.1303,0.0,-1.08,-1.0104,-0.9332,-0.893,-0.8458,-0.8047,-0.7749,-0.7316,-0.6973,-0.6979,-0.67,-0.6139,-0.5117,-0.4981,-0.515,-0.5617,-0.5861,-0.6105,-0.637,-0.6574,-0.6603,-0.6432,-0.6517,-0.6646,-0.6817,-0.6701,-0.6756,-0.6999,-0.681,-0.681,-0.7058,-0.7058,-0.695,-0.6701,-0.6647,-0.6485,-0.6154,-0.6485,-0.662,-0.6593,-0.662,-0.662,-0.6571,-0.6268,-0.6154,-0.6154,-0.6182,-0.6182,-0.61,-0.5582,-0.5359,-0.5144,0.0,-2.8027,-2.8411,-2.8411,-2.7857,-2.7349,-2.7211,-2.6134,-2.5518,-2.6103,-2.618,-2.6641,-2.7873,-2.7519,-2.7196,-2.7196,-2.6565,-2.5933,-2.5327,-2.4666,-2.4302,-2.4302,-2.4927,-2.5656,-2.6364,-2.5948,-2.5343,-2.4581,-2.3452,-2.218,-2.0749,-2.0724,-2.0699,-2.0699,-2.0699,-2.0699,-2.0738,-2.1146,-2.1746,-2.2332,-2.2097,-2.2375,-2.2795,-2.1876,-2.1328,-2.0961,-2.0348,-2.053,-2.1014,-2.0874,-2.0914,-2.0738,-1.8881,-1.8205,-1.7852,-1.6722,-1.6288,-1.598,-1.5167,-1.4392,-1.3575,0.0,-1.2011,0.0,-1.0902,-1.0643,-1.0351,-0.9856,-0.9358,-0.9017,-0.8952,-0.819,-0.7492,-0.7391,-0.7198,-0.6815,-0.6168,-0.6083,-0.6115,-0.6218,-0.641,-0.6517,-0.6403,-0.6587,-0.6615,-0.6432,-0.6371,-0.6388,-0.6403,-0.6332,-0.6317,-0.6372,-0.6593,-0.6729,-0.6783,-0.6783,-0.6756,-0.6701,-0.6426,-0.6159,-0.59,-0.6159,-0.6191,-0.5982,-0.6213,-0.6186,-0.5982,-0.59,-0.5873,-0.59,-0.6105,-0.6082,-0.59,-0.5996,-0.5637,-0.5124,-2.7904,-2.8181,-2.8411,-2.8411,-2.7857,-2.7396,-2.7396,-2.6518,-2.6103,-2.6795,-2.718,-2.7642,-2.8334,-2.8104,-2.7904,-2.7904,-2.7288,-2.6595,-2.5887,-2.5195,-2.4656,-2.4317,-2.4604,-2.5302,-2.6387,-2.5302,-2.4672,-2.4507,-2.312,-2.1845,-2.0699,-2.0699,-2.0831,-2.1093,-2.0805,-2.0844,-2.1106,-2.1106,-2.1099,-2.1106,-2.1101,-2.1274,-2.1455,-2.0567,-2.0035,-1.9771,-1.946,-1.9538,-1.985,-2.0066,-2.0278,-2.0246,-1.9188,-1.8608,-1.8097,-1.7084,-1.662,-1.623,-1.541,-1.4903,0.0,-1.3476,0.0,0.0,0.0,-1.1202,-1.0706,-1.0446,-0.9996,-0.9545,-0.9166,-0.851,-0.7941,-0.7612,-0.733,-0.704,-0.6683,-0.6651,-0.6618,-0.6571,-0.6712,-0.6824,-0.6692,-0.6855,-0.6846,-0.6574,-0.6472,-0.6406,-0.6315,-0.62,-0.6239,-0.6431,-0.6327,-0.6381,-0.6701,-0.6539,-0.6376,-0.625,-0.6082,-0.5841,-0.5548,-0.5868,-0.5923,-0.5795,-0.595,-0.5923,-0.5795,-0.5631,-0.5548,-0.5572,-0.5704,-0.5677,-0.5572,-0.57,-0.5508,-0.5183,-2.8381,-2.8411,-2.8411,-2.8411,-2.795,-2.758,-2.758,-2.7011,-2.678,-2.7319,-2.798,-2.8411,-2.8411,-2.8411,-2.8411,-2.8411,-2.7796,-2.7165,-2.6633,-2.5903,-2.525,-2.4733,-2.4579,-2.5066,-2.6327,-2.4674,-2.4019,-2.4443,-2.2807,-2.1597,-2.0844,-2.0751,-2.0988,-2.1498,-2.1053,-2.1093,-2.1472,-2.104,-2.0713,-2.0517,-2.0517,-2.0521,-2.0427,-1.9318,-1.8845,-1.8728,-1.861,-1.8649,-1.8845,-1.9433,-1.9612,-1.9613,-1.9443,-1.8912,0.0,0.0,-1.6814,-1.6259,-1.5594,0.0,0.0,0.0,0.0,-1.2797,0.0,0.0,0.0,-1.0996,-1.0541,-0.9958,-0.937,0.0,0.0,-0.8028,0.0,0.0,0.0,-0.7077,0.0,-0.6728,-0.6878,-0.6988,-0.6988,-0.7086,-0.7041,-0.6721,-0.6613,-0.6465,-0.628,-0.6111,-0.6167,-0.6581,-0.6082,-0.6064,-0.6593,-0.6295,-0.6028,-0.5795,-0.574,-0.5576,-0.5301,-0.5572,-0.5713,-0.5713,-0.5713,-0.5713,-0.5686,-0.5411,-0.5297,-0.5297,-0.5297,-0.5297,-0.5297,-0.5297,-0.5297,-0.5242,-2.8288,-2.8411,-2.8411,-2.8411,-2.835,-2.8288,-2.8288,-2.7719,-2.7303,-2.738,-2.798,-2.8411,-2.8411,-2.8411,-2.8411,-2.8411,-2.7796,-2.7365,-2.7288,-2.6588,-2.6173,-2.6149,-2.5549,-2.552,-2.6214,-2.4627,-2.3947,-2.422,-2.2731,-2.1809,-2.1407,-2.0923,-2.0988,-2.1511,-2.1446,-2.1446,-2.1511,-2.1446,-2.0832,-1.9904,-1.9904,-1.9913,0.0,-1.9156,-1.861,-1.8114,-1.7591,-1.7735,-1.827,0.0,-1.9345,-1.9722,0.0,-1.8977,-1.8298,-1.7451,0.0,0.0,0.0,0.0,0.0,0.0,-1.3992,0.0,0.0,0.0,-1.2151,-1.1615,0.0,-1.0692,0.0,0.0,0.0,0.0,0.0,0.0,-0.8069,-0.7684,-0.7244,-0.677,-0.6882,-0.6988,0.0,-0.7008,-0.6939,-0.6712,-0.6535,-0.6371,-0.6222,-0.5854,-0.5805,-0.6155,-0.5934,-0.595,-0.6263,-0.5978,-0.5818,-0.5795,-0.5494,-0.5325,-0.5297,-0.5325,-0.5356,-0.5356,-0.5356,-0.5356,-0.5356,-0.5329,-0.5297,-0.5297,-0.5297,-0.5297,-0.5297,-0.5297,-0.5297,-0.5297,-2.8273,-2.8411,-2.8411,-2.8411,-2.8411,-2.8411,-2.8411,-2.8165,-2.798,-2.798,-2.8227,-2.8411,-2.8411,-2.8411,-2.8565,-2.8965,-2.8735,-2.8411,-2.8011,-2.7703,-2.718,-2.6426,-2.6021,-2.5945,-2.6191,-2.4426,-2.3569,-2.368,-2.2024,-2.1167,-2.1027,-2.0817,-2.1158,-2.2022,-2.1668,-2.1694,-2.2009,-2.1655,-2.1041,-2.0321,-2.0321,-2.0321,0.0,-1.8911,-1.8074,-1.7539,-1.729,-1.7356,-1.7669,0.0,-1.8819,0.0,0.0,0.0,0.0,-1.7961,0.0,0.0,0.0,0.0,0.0,0.0,0.0,0.0,-1.3987,0.0,-1.2612,0.0,0.0,0.0,0.0,0.0,0.0,0.0,-0.9223,0.0,0.0,0.0,-0.7767,0.0,0.0,0.0,0.0,0.0,0.0,0.0,-0.668,-0.6497,-0.6314,-0.6094,-0.6007,-0.6109,-0.5827,-0.5789,-0.5978,-0.5654,-0.5521,-0.5521,-0.5356,-0.5297,-0.5297,-0.5297,-0.5297,-0.5297,-0.5297,-0.5297,-0.5297,-0.5297,-0.5297,-0.5297,-0.5297,-0.5297,-0.5297,-0.5297,-0.5297,-0.5297,-2.8273,-2.8411,-2.8411,-2.8411,-2.8411,-2.8411,-2.8411,-2.8411,-2.8411,-2.8411,-2.8411,-2.8411,-2.8411,-2.8411,-2.8673,-2.9325,-2.9387,-2.9264,-2.8981,-2.8732,-2.8106,-2.6969,-2.6441,-2.6081,-2.5901,-2.4196,-2.3368,-2.3487,-2.1745,-2.1001,-2.1158,-2.0856,-2.121,-2.2139,-2.1864,-2.1982,-2.2375,-2.2086,-2.1564,-2.0909,-2.0909,-2.0726,-2.0294,-1.8858,-1.7852,-1.7199,-1.7199,-1.7199,-1.729,-1.7891,-1.8362,0.0,-1.9411,0.0,-1.8469,0.0,0.0,0.0,-1.64,0.0,0.0,0.0,0.0,0.0,0.0,0.0,0.0,0.0,0.0,0.0,0.0,0.0,0.0,0.0,0.0,-0.9601,0.0,-0.916,0.0,0.0,0.0,0.0,0.0,0.0,0.0,0.0,0.0,-0.6741,-0.6505,-0.6351,-0.6214,-0.6164,-0.5781,-0.5668,-0.5795,-0.5466,-0.5297,-0.5297,-0.5297,-0.5297,-0.5297,-0.5297,-0.5297,-0.5297,-0.5297,-0.5297,-0.5297,-0.5297,-0.5297,-0.5297,-0.5297,-0.5297,-0.5297,-0.5297,-0.5297,-0.5297,-2.8273,-2.8411,-2.8411,-2.8411,-2.8411,-2.8411,-2.8411,-2.8411,-2.8411,-2.8411,-2.8411,-2.8411,-2.8411,-2.8411,-2.8673,-2.9325,-2.9387,-2.9664,-3.0294,-2.9608,-2.89,-2.8252,-2.6859,-2.5795,-2.5145,-2.3931,-2.351,-2.3987,-2.2287,-2.1786,-2.2335,-2.1223,-2.1001,-2.1538,-2.2126,-2.2374,-2.2427,-2.2936,-2.2505,-2.1485,-2.1485,-2.0819,-1.976,0.0,-1.8179,-1.7199,-1.7199,0.0,0.0,-1.7891,-1.8114,0.0,0.0,0.0,0.0,0.0,0.0,0.0,0.0,0.0,0.0,-1.6146,0.0,0.0,0.0,0.0,-1.4127,0.0,0.0,0.0,0.0,0.0,0.0,0.0,0.0,0.0,0.0,0.0,0.0,0.0,0.0,0.0,0.0,0.0,0.0,0.0,-0.711,0.0,-0.6704,-0.6509,-0.6374,-0.631,-0.5848,-0.5668,-0.5795,-0.5466,-0.5297,-0.5297,-0.5297,-0.5297,-0.5297,-0.5297,-0.5297,-0.5297,-0.5297,-0.5297,-0.5297,-0.5297,-0.5297,-0.5297,-0.5297,-0.5297,-0.5297,-0.5297,-0.5297,-0.5297,-2.8006,-2.8143,-2.8152,-2.825,-2.8201,-2.8143,-2.8143,-2.8143,-2.7989,-2.7595,-2.7545,-2.7378,-2.699,-2.7302,-2.7993,-2.9112,-2.9565,-3.0079,-3.075,-2.9753,-2.8833,-2.8201,-2.6808,-2.574,-2.5121,-2.428,-2.3675,-2.3406,-2.2525,-2.1982,-2.1812,-2.1407,-2.1328,-2.1525,-2.1694,-2.2021,-2.2401,-2.2597,-2.2217,-2.1472,0.0,-2.0517,-1.9695,0.0,-1.8127,-1.7735,-1.7342,-1.7199,0.0,-1.7434,-1.7761,-1.8166,-1.849,-1.8295,-1.7897,-1.7544,-1.6749,0.0,0.0,0.0,-1.4759,-1.5691,0.0,0.0,0.0,0.0,0.0,0.0,0.0,0.0,0.0,0.0,0.0,0.0,0.0,0.0,0.0,0.0,0.0,0.0,0.0,0.0,0.0,0.0,0.0,0.0,-0.6903,0.0,0.0,-0.6583,-0.6286,-0.6052,-0.5887,-0.5682,-0.5466,-0.5356,-0.5297,-0.5297,-0.5297,-0.5297,-0.5297,-0.5297,-0.5297,-0.5297,-0.5297,-0.5297,-0.5297,-0.5297,-0.5297,-0.5297,-0.5297,-0.5297,-0.5297,-0.5297,-0.5297,-0.5297,-2.7929,-2.7955,-2.798,-2.8103,-2.8054,-2.7995,-2.7995,-2.7815,-2.7534,-2.7148,-2.6901,-2.6625,-2.624,-2.6546,-2.7219,-2.8323,-2.8796,-2.931,-2.9993,-2.8985,-2.82,-2.7721,-2.6383,-2.5453,-2.5081,-2.4433,-2.3781,-2.3138,-2.2826,-2.2269,-2.1511,-2.1511,-2.1407,-2.1211,-2.142,-2.1799,-2.2306,-2.2528,-2.2254,-2.1575,0.0,-2.0415,0.0,0.0,-1.8409,-1.8048,0.0,-1.7382,-1.7199,-1.7199,-1.746,-1.7813,-1.8022,-1.792,-1.7622,-1.7146,-1.6426,-1.565,-1.5153,-1.4656,0.0,-1.5256,-1.5214,0.0,-1.5987,0.0,-1.4796,0.0,0.0,0.0,0.0,0.0,0.0,0.0,0.0,0.0,0.0,-1.0611,0.0,0.0,0.0,0.0,0.0,0.0,-0.6796,-0.6975,-0.6886,0.0,0.0,0.0,-0.6323,-0.59,-0.5888,-0.5718,-0.5305,-0.5297,-0.5297,-0.5297,-0.5297,-0.5297,-0.5297,-0.5297,-0.5297,-0.5297,-0.5297,-0.5297,-0.5297,-0.5297,-0.5297,-0.5297,-0.5297,-0.5297,-0.5297,-0.5297,-0.5297,-0.5297,-2.7905,-2.779,-2.774,-2.788,-2.793,-2.7955,-2.793,-2.7458,-2.7071,-2.6993,-2.6493,-2.6133,-2.6106,-2.6133,-2.6416,-2.7084,-2.7169,-2.7496,-2.8239,-2.7484,-2.7017,-2.6946,-2.566,-2.496,-2.494,-2.4387,-2.3809,-2.3234,-2.3208,-2.2662,-2.159,-2.1538,-2.1224,-2.0777,-2.1237,-2.1706,-2.214,-2.2698,-2.2551,-2.1809,-2.0862,-2.0562,-2.0597,-1.989,-1.8993,-1.8118,-1.8114,-1.7708,-1.7199,-1.7199,-1.7199,-1.7303,-1.7857,-1.7851,-1.7526,-1.7039,-1.6394,-1.5697,-1.5073,-1.4614,-1.4386,-1.4852,0.0,0.0,0.0,0.0,-1.509,0.0,0.0,0.0,0.0,0.0,0.0,0.0,0.0,0.0,0.0,0.0,-1.0171,0.0,0.0,0.0,0.0,-0.6845,-0.6798,-0.6959,-0.6967,-0.6967,0.0,0.0,-0.644,-0.5904,-0.5888,-0.5718,-0.5305,-0.5297,-0.5297,-0.5297,-0.5297,-0.5297,-0.5297,-0.5297,-0.5297,-0.5297,-0.5297,-0.5297,-0.5297,-0.5297,-0.5297,-0.5297,-0.5297,-0.5297,-0.5297,-0.5297,-0.5297,-0.5297,-2.6443,-2.6336,-2.6322,-2.6363,-2.7111,-2.7549,-2.71,-2.6904,-2.651,-2.5646,-2.5398,-2.5147,-2.4708,-2.5034,-2.559,-2.6239,-2.668,-2.7173,-2.7882,-2.6886,-2.6262,-2.6251,-2.5036,-2.4324,-2.4334,-2.4191,-2.4018,-2.3861,-2.3404,-2.3039,-2.2766,-2.1904,-2.1433,-2.1276,-2.1027,-2.1355,-2.2115,-2.2269,-2.2163,-2.1809,-2.072,-2.0296,-2.0321,0.0,-1.9397,-1.8438,-1.8076,-1.7631,-1.7178,-1.7073,-1.7065,-1.707,-1.7183,-1.6844,-1.633,-1.5866,-1.5291,-1.4664,-1.4101,-1.3865,-1.3876,-1.4366,-1.448,-1.4604,0.0,0.0,0.0,0.0,0.0,0.0,0.0,0.0,0.0,0.0,0.0,0.0,0.0,0.0,0.0,-1.0185,0.0,0.0,-0.7291,-0.7017,-0.6872,-0.6771,-0.6635,0.0,0.0,0.0,0.0,-0.59,-0.5888,-0.5718,-0.5305,-0.5297,-0.5297,-0.5297,-0.5297,-0.5297,-0.5297,-0.5297,-0.5297,-0.5297,-0.5297,-0.5297,-0.5297,-0.5297,-0.5297,-0.5297,-0.5297,-0.5297,-0.5297,-0.5297,-0.5297,-0.5297,-2.6216,-2.6414,-2.6484,-2.6231,-2.6764,-2.6999,-2.6406,-2.6109,-2.5729,-2.509,-2.4778,-2.4476,-2.4141,-2.439,-2.4753,-2.5132,-2.5465,-2.5789,-2.6159,-2.531,-2.4878,-2.5146,-2.4224,-2.3822,-2.4083,-2.4083,0.0,-2.372,-2.3613,-2.3182,-2.2465,-2.206,-2.1629,-2.1145,-2.0818,-2.1199,-2.1992,-2.1882,-2.1536,-2.0989,-2.011,-1.9656,0.0,-1.9682,-1.9095,-1.8166,-1.8106,-1.7635,-1.7065,-1.6981,-1.696,-1.6939,-1.6897,-1.6479,-1.5901,-1.5445,-1.4869,-1.428,-1.3763,-1.3597,-1.3659,-1.3917,-1.3979,-1.4128,-1.4593,-1.449,-1.4376,0.0,0.0,0.0,0.0,0.0,0.0,0.0,0.0,0.0,0.0,0.0,0.0,0.0,-1.0246,0.0,0.0,-0.7511,-0.7117,-0.6978,-0.6564,0.0,0.0,0.0,0.0,-0.6041,-0.5959,-0.575,-0.5442,-0.5337,-0.5297,-0.5297,-0.5297,-0.5297,-0.5297,-0.5297,-0.5297,-0.5297,-0.5297,-0.5297,-0.5297,-0.5297,-0.5297,-0.5297,-0.5297,-0.5297,-0.5297,-0.5297,-0.5297,-0.5297,-2.6384,-2.6897,-2.7077,-2.6467,-2.6356,-2.6175,-2.5661,-2.5258,-2.4977,-2.4892,-2.4419,-2.4083,-2.4083,-2.4083,-2.4083,-2.4083,-2.4083,-2.4083,-2.4083,-2.355,-2.3417,-2.3939,-2.3404,-2.3365,-2.3981,-2.3965,-2.3757,-2.3313,-2.3757,-2.3263,-2.1864,-2.2125,-2.1786,-2.0922,-2.0752,-2.1043,-2.1642,-2.138,-2.0721,-1.9818,-1.9286,-1.8804,-1.8498,-1.891,-1.8432,-1.7622,-1.8018,-1.7661,-1.6995,-1.6897,-1.6884,-1.6859,-1.6782,-1.6315,-1.5724,-1.5288,-1.4754,-1.4186,-1.3739,-1.3597,-1.3597,-1.3597,-1.3597,-1.37,-1.4128,-1.4221,-1.4221,-1.4221,-1.4542,-1.4583,0.0,0.0,0.0,0.0,0.0,0.0,0.0,0.0,-1.1633,0.0,0.0,0.0,0.0,0.0,0.0,0.0,0.0,0.0,0.0,0.0,0.0,-0.6215,-0.6008,-0.5799,-0.5612,0.0,-0.5297,-0.5297,-0.5297,-0.5297,-0.5297,-0.5297,-0.5297,-0.5297,-0.5297,-0.5297,-0.5297,-0.5297,-0.5297,-0.5297,-0.5297,-0.5297,-0.5297,-0.5297,-0.5297,-0.5297,-2.5465,-2.5389,-2.5253,-2.467,-2.4564,-2.4538,-2.4403,-2.475,-2.4806,-2.4316,-2.4171,-2.4083,-2.4083,-2.4083,-2.4083,-2.4083,-2.4083,0.0,0.0,0.0,0.0,-2.3339,-2.2817,-2.2791,-2.3367,-2.3352,-2.3535,-2.3926,-2.3535,-2.3472,-2.3629,-2.2296,-2.1812,-2.2048,-2.1003,-2.0449,-2.0315,-2.0162,0.0,-1.9058,-1.8518,-1.8228,-1.8174,-1.8255,-1.7916,-1.7361,-1.7439,-1.7502,-1.7476,-1.6918,-1.6771,-1.6708,-1.6166,-1.54,-1.4663,-1.4581,-1.4176,-1.3716,-1.3634,-1.3597,-1.3597,-1.3597,-1.3597,-1.3607,-1.369,-1.371,-1.371,-1.371,-1.3783,-1.3872,-1.399,0.0,0.0,0.0,0.0,0.0,0.0,0.0,0.0,0.0,0.0,-1.1099,0.0,0.0,0.0,0.0,0.0,0.0,0.0,0.0,0.0,0.0,-0.6008,0.0,0.0,0.0,-0.5297,-0.5297,-0.5297,-0.5297,-0.5297,-0.5297,-0.5297,-0.5297,-0.5297,-0.5297,-0.5297,-0.5297,-0.5297,-0.5297,-0.5297,-0.5297,-0.5297,-0.5297,-0.5297,-0.5297,-2.5997,-2.5882,-2.5712,-2.5105,-2.4753,-2.4452,0.0,-2.4332,-2.4419,-2.4141,-2.4083,-2.4083,-2.4083,-2.4083,-2.4083,-2.4083,-2.4083,-2.3981,-2.3639,-2.3091,-2.2662,-2.2321,-2.206,-2.2204,-2.2766,-2.3067,-2.3483,-2.4083,-2.3796,-2.3652,-2.36,0.0,-2.2176,-2.181,-2.1339,-2.0691,0.0,0.0,0.0,-1.8008,-1.7745,-1.7473,-1.7234,-1.7518,-1.7291,-1.6869,-1.7146,-1.7326,-1.7335,-1.6745,-1.6432,-1.6221,-1.5904,-1.5176,-1.4396,-1.4396,-1.4022,-1.3597,-1.3597,-1.3597,-1.3597,-1.3597,-1.3597,-1.3597,-1.3597,-1.3597,-1.3597,-1.3597,-1.3597,-1.3683,-1.3957,-1.4196,0.0,0.0,0.0,0.0,0.0,0.0,-1.197,0.0,0.0,0.0,0.0,0.0,0.0,0.0,0.0,0.0,0.0,0.0,0.0,0.0,0.0,0.0,0.0,0.0,0.0,-0.5297,-0.5297,-0.5297,-0.5297,-0.5297,-0.5297,-0.5297,-0.5297,-0.527,-0.5183,-0.5128,-0.5128,-0.5183,-0.5183,-0.5183,-0.5183,-0.5183,-0.5156,-0.5097,-2.6575,-2.6523,-2.6269,-2.5545,-2.5092,-2.4635,-2.4178,-2.4083,-2.4083,-2.4083,-2.4083,-2.4083,-2.4083,-2.4083,-2.4083,-2.4083,-2.4083,-2.3887,-2.3417,-2.2884,-2.2322,-2.1721,-2.1694,-2.1904,-2.2375,-2.2895,-2.3454,0.0,-2.4024,0.0,0.0,0.0,0.0,0.0,0.0,0.0,0.0,0.0,-1.9057,-1.7309,-1.7212,-1.6906,-1.6566,-1.6902,-1.6768,-1.6459,-1.687,-1.7017,-1.6965,-1.6539,-1.6204,-1.5924,-1.5707,-1.5047,-1.4363,-1.4266,-1.3928,-1.3597,-1.3597,-1.3597,-1.3597,-1.3597,-1.3597,-1.3597,-1.3597,-1.3597,-1.3597,-1.3597,-1.3539,-1.3587,-1.3816,-1.3943,0.0,0.0,0.0,0.0,0.0,0.0,-1.2199,0.0,0.0,0.0,-1.034,0.0,0.0,0.0,0.0,0.0,-0.7854,-0.7882,0.0,0.0,0.0,-0.6125,-0.6125,0.0,-0.5297,-0.5297,-0.5297,-0.5297,-0.5297,-0.5297,-0.5297,-0.5297,-0.527,-0.5183,-0.5042,-0.4956,-0.4983,-0.5097,-0.5069,-0.5069,-0.5097,-0.5069,-0.4983,-0.4901,-2.608,-2.5871,-2.5532,-2.4435,0.0,-2.4178,-2.4096,-2.4083,-2.4083,-2.4083,-2.4083,-2.4083,-2.4083,-2.4083,-2.4083,-2.4083,-2.4083,-2.4099,-2.4005,-2.3472,-2.2884,-2.2336,-2.231,-2.2336,-2.2388,-2.2825,-2.3324,0.0,0.0,-2.3632,0.0,0.0,0.0,0.0,0.0,0.0,0.0,-1.8783,-1.835,-1.7625,-1.7199,-1.6974,-1.6903,-1.6587,-1.6431,-1.6402,-1.6459,-1.6477,-1.6477,-1.6412,-1.6415,-1.6282,-1.5345,-1.4708,-1.4233,-1.3806,-1.3644,-1.3597,-1.3597,-1.3597,-1.3597,-1.3597,-1.3597,-1.3597,-1.3597,-1.3597,-1.3597,-1.3597,-1.342,-1.3335,-1.3655,-1.3332,-1.3277,0.0,0.0,0.0,0.0,0.0,-1.1329,-1.0717,0.0,0.0,0.0,-1.0463,0.0,0.0,-0.9936,0.0,-0.8977,-0.9164,-0.8865,-0.7892,0.0,-0.6807,-0.6807,-0.581,-0.5297,-0.5297,-0.5297,-0.5297,-0.5297,-0.5297,-0.5297,-0.5297,-0.5183,-0.5042,-0.4928,-0.4897,-0.4983,-0.5097,-0.4956,-0.4983,-0.5097,-0.4956,-0.4901,-0.4873,0.0,0.0,0.0,0.0,0.0,0.0,0.0,-2.3806,-2.3806,-2.3806,-2.3966,-2.4054,-2.3979,-2.3979,-2.3936,-2.3806,-2.3806,-2.3664,-2.3328,-2.3083,-2.2568,-2.1664,-2.1625,-2.178,-2.209,-2.2253,-2.2791,0.0,0.0,-2.3599,-2.3586,-2.2976,0.0,0.0,0.0,-1.9947,-1.9091,-1.9091,-1.8538,-1.7688,-1.7502,-1.7265,-1.6996,-1.681,-1.6612,-1.6413,-1.6413,-1.6413,-1.6413,-1.6413,-1.6231,-1.596,-1.5564,-1.4903,-1.4273,-1.4086,-1.3814,-1.3597,-1.3597,-1.3597,-1.3597,-1.3597,-1.3597,-1.3597,-1.3597,-1.3539,-1.3491,-1.3491,-1.3286,-1.3187,-1.3328,-1.3303,-1.3281,0.0,0.0,0.0,0.0,0.0,0.0,-1.0701,0.0,-1.061,0.0,0.0,0.0,0.0,0.0,0.0,0.0,0.0,0.0,-0.7745,0.0,-0.6538,-0.6302,-0.5644,-0.5297,-0.5297,-0.5297,-0.5297,-0.5297,-0.5215,-0.5128,-0.5042,-0.4908,-0.4825,-0.4767,-0.468,-0.4739,-0.4853,-0.4794,-0.4825,-0.4853,-0.4794,-0.4739,-0.4653,-2.5121,0.0,-2.4428,0.0,-2.3885,-2.3599,-2.3599,-2.3599,-2.3599,-2.3599,-2.3819,-2.3907,-2.3819,-2.3819,-2.376,-2.3628,-2.3599,-2.3432,-2.3065,-2.3039,-2.2526,-2.1399,-2.1514,0.0,-2.1898,-2.183,-2.2274,-2.3245,-2.3005,-2.2871,-2.2841,0.0,0.0,0.0,-2.0475,-1.9909,-1.9307,-1.9307,-1.8839,-1.8112,-1.7946,-1.7699,-1.7399,-1.7265,-1.6934,-1.657,-1.657,-1.6487,-1.6413,-1.6413,-1.6184,-1.5866,-1.5732,-1.5245,-1.4656,-1.4386,-1.4076,-1.3762,-1.3604,-1.3539,-1.3539,-1.3491,-1.3491,-1.3491,-1.3491,-1.342,-1.3348,-1.331,-1.321,-1.3085,-1.3061,-1.3199,-1.3271,-1.3096,0.0,0.0,0.0,-1.1787,0.0,-1.0525,-1.0443,-1.0373,-1.0134,-0.9935,0.0,0.0,0.0,0.0,0.0,0.0,0.0,0.0,0.0,0.0,0.0,-0.5531,-0.527,-0.5297,-0.527,-0.5242,-0.5242,-0.5097,-0.4959,-0.4846,-0.4743,-0.4688,-0.4632,-0.4546,-0.4574,-0.4688,-0.466,-0.466,-0.4688,-0.466,-0.4574,-0.4491,-2.4607,-2.4492,-2.4312,-2.3701,-2.3599,-2.3599,-2.3599,-2.3599,-2.3599,-2.3599,-2.3599,-2.3599,-2.3599,-2.3599,-2.3599,-2.3599,-2.3599,-2.3599,-2.3586,-2.3586,-2.3074,0.0,0.0,-2.2488,-2.1911,-2.1642,-2.18,-2.2402,0.0,0.0,-2.1123,0.0,-2.0773,-2.0139,-2.0096,-1.9737,-1.9098,-1.9098,-1.9098,-1.9046,-1.859,-1.8403,-1.8319,-1.7854,-1.7409,-1.6977,-1.6977,-1.6757,-1.6413,-1.6413,-1.6402,-1.6319,-1.5863,-1.568,-1.5494,-1.4573,-1.4304,-1.4175,-1.3566,-1.3396,-1.3362,-1.3242,-1.3194,-1.3194,-1.3194,-1.3194,-1.318,-1.3123,-1.3109,-1.3061,-1.2929,-1.2915,-1.3052,-1.3437,0.0,0.0,0.0,-1.1771,0.0,-1.0057,-1.0031,-1.0049,-0.9904,-1.0029,0.0,0.0,0.0,0.0,0.0,0.0,0.0,-0.8415,-0.7678,0.0,-0.6601,-0.5596,-0.5156,-0.5297,-0.5156,-0.5097,-0.5097,-0.4956,-0.4822,-0.4691,-0.4691,-0.4632,-0.4491,-0.4491,-0.4574,-0.4688,-0.4546,-0.4574,-0.4688,-0.4546,-0.4491,-0.4491,-2.3578,-2.3553,-2.3503,-2.3283,-2.3258,-2.3258,-2.3258,-2.3258,-2.3258,-2.3258,-2.3258,-2.3095,-2.2616,-2.3095,-2.342,0.0,-2.3258,-2.3258,0.0,-2.3258,-2.2739,-2.1542,-2.1677,-2.1484,-2.0813,-2.0728,-2.0801,-2.1026,0.0,0.0,0.0,-2.042,-2.0074,-1.9429,-1.9429,-1.9297,-1.9108,-1.9108,-1.9108,-1.9088,-1.8942,-1.8694,-1.8361,-1.8226,-1.7895,-1.7451,-1.7379,-1.7061,-1.6642,-1.6505,-1.636,-1.6161,-1.6007,-1.5845,-1.5628,-1.5339,-1.4749,-1.4113,-1.392,-1.3581,-1.3266,-1.3208,-1.3194,-1.3194,-1.3194,-1.3166,-1.3089,-1.2978,-1.2954,-1.2954,-1.2905,-1.2905,-1.2954,-1.3057,-1.2689,0.0,0.0,0.0,-1.1087,-1.0024,-1.0059,-1.0113,0.0,-0.9637,0.0,0.0,0.0,0.0,0.0,0.0,0.0,0.0,-0.7321,0.0,-0.5785,-0.5322,-0.5128,-0.5156,-0.5128,-0.5014,-0.4825,-0.477,-0.4684,-0.4574,-0.4574,-0.4546,-0.4491,-0.4491,-0.4519,-0.4546,-0.4519,-0.4519,-0.4546,-0.4519,-0.4491,-0.4491,-2.3108,-2.2914,-2.272,-2.272,-2.2506,-2.2353,-2.2353,-2.2353,-2.2353,-2.2353,-2.2353,-2.2187,-2.1772,-2.2218,0.0,-2.2353,-2.2567,-2.272,-2.272,-2.272,-2.231,-2.1344,-2.1051,-2.0731,-2.0316,-2.007,0.0,-2.0017,-2.005,-1.9953,-1.9715,-1.9715,-1.9485,-1.9108,-1.9108,-1.9075,-1.8975,-1.8975,-1.8975,-1.8975,-1.8975,-1.88,-1.8543,-1.8543,-1.8243,-1.7768,-1.7673,-1.7347,-1.6931,-1.6809,-1.6537,-1.6252,-1.6252,-1.6044,-1.5741,-1.5612,-1.5079,-1.4438,-1.4043,-1.3676,-1.3342,-1.3133,-1.3094,-1.3094,-1.3094,-1.3065,-1.3002,-1.2929,-1.2905,-1.2905,-1.2905,-1.2905,-1.2905,-1.2905,-1.2529,-1.2059,-1.1464,0.0,-1.0954,0.0,0.0,0.0,0.0,-0.9373,-0.9364,0.0,0.0,0.0,0.0,0.0,0.0,-0.7372,-0.6922,0.0,-0.5231,-0.5044,-0.4987,-0.5014,-0.4963,-0.4825,-0.4632,-0.4632,-0.4574,-0.4491,-0.4491,-0.4491,-0.4491,-0.4491,-0.4491,-0.4491,-0.4491,-0.4491,-0.4491,-0.4491,-0.4491,-0.4491,-2.3055,-2.2555,-2.208,0.0,-2.1572,0.0,-2.1149,-2.1115,-2.1092,-2.1092,-2.1092,-2.1092,-2.104,-2.1028,-2.0996,-2.0965,0.0,0.0,0.0,-2.2021,-2.1793,-2.1242,-2.0626,-2.027,-2.0219,-1.9618,-1.9304,-1.9387,-1.8702,-1.8621,-1.9108,-1.9108,-1.9108,-1.9108,-1.9108,-1.8975,-1.8808,-1.8774,-1.8774,-1.8774,-1.8774,-1.8774,-1.8774,-1.8774,-1.8431,-1.7946,-1.7913,-1.7632,-1.724,-1.7219,-1.6898,-1.6507,-1.6507,-1.6207,-1.5833,-1.553,-1.5315,-1.4977,-1.4027,-1.3734,-1.357,-1.3077,-1.2925,-1.2905,-1.2905,-1.2905,-1.2905,-1.2905,-1.2905,-1.2905,-1.2905,-1.2905,-1.2905,-1.2905,-1.2644,-1.2263,-1.1728,0.0,0.0,0.0,0.0,0.0,0.0,-0.9191,-0.9198,0.0,0.0,0.0,0.0,0.0,-0.865,-0.6923,-0.6551,-0.59,-0.4897,-0.477,-0.477,-0.4873,-0.4739,-0.4632,-0.4491,-0.4491,-0.4491,-0.4491,-0.4491,-0.4491,-0.4491,-0.4491,-0.4491,-0.4491,-0.4491,-0.4491,-0.4491,-0.4491,-0.4491,-0.4491,0.0,0.0,-2.1976,-2.2346,-2.1983,-2.1644,-2.1644,-2.1312,-2.1092,-2.1092,-2.1092,-2.0901,-2.0387,-2.0323,-2.0128,-1.9616,-2.0634,-2.1345,-2.1345,-2.1345,-2.1066,-2.0402,-2.0242,-1.99,-1.9391,-1.9228,-1.9162,-1.9162,-1.8279,-1.8299,-1.9108,-1.9108,-1.9108,-1.9098,-1.8942,-1.8841,-1.8774,-1.865,-1.8583,-1.8583,-1.8583,-1.8583,-1.8583,-1.8583,-1.8479,-1.8332,-1.8221,-1.7899,-1.7499,-1.7379,-1.6898,-1.6347,-1.6347,-1.6078,-1.5749,-1.5783,-1.5417,-1.4996,-1.477,-1.4136,-1.3512,-1.3389,-1.3125,-1.2905,-1.2905,-1.2905,-1.2905,-1.2905,-1.2905,-1.2905,-1.2905,-1.2905,-1.2905,-1.2905,-1.2253,-1.1608,-1.1226,-1.0701,0.0,0.0,-0.9377,-0.9411,-0.9211,-0.9011,-0.9092,0.0,0.0,0.0,0.0,-0.8931,-0.8213,-0.6561,-0.6438,-0.5873,-0.477,-0.4715,-0.4715,-0.4743,-0.4601,-0.4519,-0.4491,-0.4491,-0.4491,-0.4491,-0.4491,-0.4491,-0.4491,-0.4491,-0.4491,-0.4491,-0.4491,-0.4491,-0.4491,-0.4491,-0.4491,-0.4508,-2.2561,-2.2114,-2.1744,-2.2001,-2.156,-2.1144,-2.1144,-2.0949,-2.0708,-2.0533,-2.0501,-2.0281,-1.9704,-1.9649,-1.9485,-1.9131,-2.0042,-2.0645,-2.0645,-2.0645,-2.0484,-2.0139,-1.9813,-1.9452,-1.9098,-1.9108,-1.9108,-1.9108,-1.8371,-1.8382,-1.9108,-1.9008,-1.8975,-1.8942,-1.8741,-1.864,-1.8573,-1.8438,-1.8414,-1.8414,-1.8414,-1.8414,-1.8414,-1.8414,-1.8347,-1.8245,-1.8178,-1.7986,-1.7756,-1.7699,-1.7292,-1.6766,-1.656,-1.6196,-1.5871,-1.5722,-1.5436,-1.5143,-1.4956,-1.4351,-1.3701,-1.332,-1.3047,-1.2905,-1.2905,-1.2905,-1.2905,-1.2905,-1.2905,-1.2905,-1.2905,-1.2905,-1.2842,-1.2651,-1.1991,-1.1366,-1.1006,-1.0311,0.0,-0.9281,-0.9187,-0.9126,-0.9018,-0.8871,-0.8938,-0.9259,-0.9104,0.0,-0.874,-0.8651,-0.794,-0.6443,-0.6335,-0.5769,-0.4632,-0.4605,-0.4605,-0.4605,-0.4546,-0.4491,-0.4491,-0.4491,-0.4491,-0.4491,-0.4491,-0.4491,-0.4491,-0.4491,-0.4491,-0.4491,-0.4491,-0.4491,-0.4491,-0.4491,-0.4491,-0.4511,-2.2253,-2.1871,-2.1444,-2.152,-2.0969,-2.0498,-2.0498,-2.0374,-2.0193,-1.9844,-1.973,-1.9544,-1.915,-1.9108,-1.9108,-1.9108,-1.9616,-1.9944,-1.9944,-1.9944,-1.9944,-1.9944,-1.9396,-1.9108,-1.9108,-1.9036,-1.9036,-1.9108,-1.8642,-1.862,-1.9031,-1.8875,-1.8774,-1.8751,-1.8549,-1.8414,-1.8303,-1.8269,-1.8236,-1.8236,-1.8236,-1.8236,-1.8236,-1.8236,-1.8144,-1.8008,-1.8008,-1.8008,-1.8008,-1.8008,-1.7734,-1.7314,-1.6943,-1.6475,-1.6016,-1.5615,-1.5469,-1.5332,-1.498,-1.4484,-1.3919,-1.3174,-1.2954,-1.2905,-1.2905,-1.2905,-1.2905,-1.2905,-1.2905,-1.2905,-1.2905,-1.2856,-1.2704,-1.2348,-1.1797,-1.1242,-1.0849,0.0,-0.9446,-0.9405,-0.9038,-0.8804,-0.8804,-0.8804,-0.8804,-0.8804,-0.8804,-0.8672,-0.8427,-0.8395,-0.7771,-0.6416,-0.6258,-0.5664,-0.4519,-0.4491,-0.4491,-0.4491,-0.4491,-0.4491,-0.4491,-0.4491,-0.4491,-0.4491,-0.4491,-0.4491,-0.4491,-0.4491,-0.4491,-0.4491,-0.4491,-0.4491,-0.4491,-0.4491,-0.4505,-0.4545,-2.1554,-2.1378,-2.1282,-2.1668,-2.1343,-2.101,-2.101,-2.0358,-1.9876,-1.9803,-1.945,-1.9181,-1.9108,-1.9108,-1.9108,-1.9108,-1.9198,-1.9264,-1.9264,-1.9264,-1.9264,-1.9264,-1.9164,-1.9108,-1.9108,-1.8714,-1.8714,-1.9108,-1.8642,-1.8555,-1.8841,-1.8808,-1.8707,-1.8549,-1.8414,-1.8303,-1.8303,-1.811,-1.8042,-1.8042,-1.8042,-1.8042,-1.8042,-1.8042,-1.8042,-1.8008,-1.8008,-1.8008,-1.8008,-1.8008,-1.7734,-1.7406,-1.7305,-1.675,-1.6085,-1.6007,-1.5703,-1.54,-1.5332,-1.4708,-1.3997,-1.3525,-1.3145,-1.2905,-1.2905,-1.2905,-1.2905,-1.2905,-1.2905,-1.2905,-1.2905,-1.2629,-1.2382,-1.2315,-1.1467,-1.072,-1.0447,0.0,-0.9152,-0.8931,-0.8838,-0.8804,-0.8804,-0.8804,-0.8804,-0.8804,-0.8804,-0.8672,-0.8427,-0.8395,-0.7744,-0.6285,-0.6204,-0.5664,-0.4519,-0.4491,-0.4491,-0.4491,-0.4491,-0.4491,-0.4491,-0.4491,-0.4491,-0.4491,-0.4491,-0.4491,-0.4491,-0.4491,-0.4491,-0.4491,-0.4491,-0.4491,-0.4491,-0.4491,-0.4573,-0.4677,-2.1256,-2.1387,-2.1559,-2.1766,-2.1631,-2.1487,-2.1487,-2.0917,-2.04,-2.0151,-1.9761,-1.9378,-1.9129,-1.9108,-1.9108,-1.9108,-1.9108,-1.9108,-1.9108,-1.9108,-1.9031,-1.8942,-1.8942,-1.8875,-1.8774,-1.8571,-1.856,-1.8774,-1.856,-1.8504,-1.865,-1.8573,-1.8472,-1.8371,-1.8202,-1.8144,-1.8144,-1.8042,-1.8008,-1.8008,-1.8008,-1.8008,-1.8008,-1.8008,-1.8008,-1.8008,-1.8008,-1.8008,-1.8008,-1.8008,-1.7881,-1.7686,-1.7461,-1.6943,-1.6377,-1.6163,-1.5782,-1.5361,-1.5137,-1.4582,-1.4007,-1.3613,-1.3193,-1.2905,-1.2905,-1.2905,-1.2832,-1.2529,-1.248,-1.2455,-1.2372,-1.2091,-1.1815,-1.1675,-1.1008,0.0,0.0,-0.9289,-0.8931,-0.8824,-0.8804,-0.8804,-0.8804,-0.8804,-0.8804,-0.8804,-0.8718,-0.8613,-0.8401,-0.8017,-0.7316,-0.6236,-0.5609,-0.5034,-0.4519,-0.4491,-0.4491,-0.4491,-0.4491,-0.4491,-0.4491,-0.4491,-0.4491,-0.4491,-0.4491,-0.4491,-0.4491,-0.4491,-0.4491,-0.4491,-0.4491,-0.4491,-0.4501,-0.4583,-0.4658,-0.4724,-2.1114,-2.1487,-2.1807,-2.1807,-2.1807,-2.1807,-2.1807,-2.1284,-2.0762,-2.0411,-1.984,-1.9366,-1.9006,-1.8975,-1.8975,-1.8975,-1.8975,-1.8975,-1.8975,-1.8975,-1.8908,-1.8808,-1.8741,-1.864,-1.8516,-1.8516,-1.8516,-1.8516,-1.8516,-1.8482,-1.8448,-1.8347,-1.8269,-1.8202,-1.8076,-1.8008,-1.8008,-1.8008,-1.8008,-1.8008,-1.8008,-1.8008,-1.8008,-1.8008,-1.8008,-1.8008,-1.8008,-1.8008,-1.8008,-1.8008,-1.8008,-1.7959,-1.7627,-1.7236,-1.6797,-1.6348,-1.583,-1.5342,-1.5019,-1.4541,-1.4026,-1.3714,-1.3237,-1.2832,-1.2691,-1.2618,-1.2446,-1.1909,-1.1785,-1.176,-1.166,-1.1403,-1.115,-1.0947,0.0,0.0,0.0,-0.8964,-0.8804,-0.8804,-0.8804,-0.8804,-0.8804,-0.8804,-0.8778,-0.8752,-0.8659,-0.8527,-0.8374,-0.7696,-0.6912,-0.6018,-0.5011,-0.4491,-0.4491,-0.4491,-0.4491,-0.4491,-0.4491,-0.4491,-0.4491,-0.4491,-0.4491,-0.4491,-0.4491,-0.4508,-0.4542,-0.4505,-0.4532,-0.459,-0.4518,-0.4511,-0.4556,-0.4675,-0.4714,-0.4779,-2.1114,-2.1487,-2.1807,-2.1807,-2.1807,-2.1807,-2.1807,-2.0915,-2.0242,-2.0211,-1.9272,-1.858,-1.8549,-1.8549,-1.8549,-1.8549,-1.8549,-1.8549,-1.8549,-1.8549,-1.8617,-1.8808,-1.8617,-1.8516,-1.8516,-1.8516,-1.8516,-1.8516,-1.8516,-1.8448,-1.8303,-1.8303,-1.8212,-1.8008,-1.8008,-1.8008,-1.8008,-1.8008,-1.8008,-1.8008,-1.8008,-1.8008,-1.8008,-1.8008,-1.8008,-1.8008,-1.8008,-1.8008,-1.8008,-1.8008,-1.8008,-1.8008,-1.7978,-1.7676,-1.7246,-1.6775,-1.6044,-1.5371,-1.5371,-1.4738,-1.4104,-1.4065,-1.3375,-1.2569,-1.2005,-1.1792,-1.1543,-1.0998,-1.0897,-1.0889,-1.0872,-1.0604,-1.0388,-1.0361,0.0,0.0,-0.9211,-0.8964,-0.8804,-0.8804,-0.8804,-0.8804,-0.8804,-0.8804,-0.8752,-0.8626,-0.86,-0.8501,-0.8221,-0.7643,-0.6718,-0.5414,-0.4814,-0.4491,-0.4491,-0.4491,-0.4491,-0.4491,-0.4491,-0.4491,-0.4491,-0.4491,-0.4491,-0.4491,-0.4491,-0.4573,-0.4663,-0.4549,-0.4658,-0.4857,-0.46,-0.4576,-0.4674,-0.4687,-0.4779,-0.4894,-2.0991,-2.1374,-2.1769,-2.1655,-2.1568,-2.153,-2.1436,-2.0832,-2.0299,-2.0072,-1.9379,-1.8827,-1.8546,-1.8516,-1.8516,-1.8516,-1.8516,-1.8516,-1.8516,-1.8516,-1.8516,-1.8472,-1.8313,-1.8178,-1.8178,-1.8178,-1.8178,-1.8178,-1.8178,-1.8178,-1.811,-1.811,-1.8076,-1.8018,-1.8247,-1.8217,-1.8027,-1.8256,-1.8217,-1.8008,-1.8008,-1.8008,-1.8008,-1.8008,-1.8008,-1.8008,-1.8008,-1.8008,-1.8008,-1.8008,-1.8008,-1.8008,-1.8008,-1.7715,-1.7246,-1.6377,-1.5527,-1.4824,-1.4688,-1.4277,-1.3821,-1.3496,-1.2679,-1.1918,-1.1721,-1.1384,-1.0948,-1.0415,-1.0287,-1.0287,-1.0192,-0.995,-0.976,-0.9853,0.0,-0.9151,-0.8971,-0.8878,-0.8804,-0.8804,-0.8804,-0.8804,-0.8804,-0.8804,-0.8745,-0.86,-0.8527,-0.8395,-0.8221,-0.7187,-0.6068,-0.4842,-0.4598,-0.4491,-0.4491,-0.4491,-0.4491,-0.4491,-0.4491,-0.4491,-0.4494,-0.459,-0.4634,-0.4638,-0.4704,-0.4779,-0.4826,-0.4769,-0.4813,-0.4877,-0.4792,-0.4779,-0.4843,-0.4931,-0.4968,-0.5042,-2.1029,-2.1288,-2.1578,-2.1436,-2.1387,-2.13,-2.1205,-2.0747,-2.0259,-1.9865,-1.9353,-1.8834,-1.8397,-1.8347,-1.8347,-1.8347,-1.8347,-1.8347,-1.8347,-1.8347,-1.8347,-1.8303,-1.811,-1.8008,-1.8008,-1.8008,-1.8008,-1.8008,-1.8008,-1.8008,-1.8008,-1.8008,-1.8076,-1.8188,-1.8471,-1.852,-1.8428,-1.8721,-1.8672,-1.8398,-1.8262,-1.8178,-1.8159,-1.8057,-1.8008,-1.8008,-1.8008,-1.8008,-1.8008,-1.8008,-1.7872,-1.7647,-1.7647,-1.724,-1.6621,-1.5905,-1.5065,-1.4213,-1.3657,-1.3377,-1.3154,-1.2835,-1.2054,-1.132,-1.1099,-1.0728,-1.0261,-0.9736,-0.9614,-0.9588,-0.951,-0.9326,-0.9248,-0.9344,-0.9206,-0.9004,-0.8838,-0.8804,-0.8804,-0.8804,-0.8804,-0.8804,-0.8804,-0.8752,-0.8692,-0.8547,-0.8421,-0.8189,-0.7869,-0.6804,-0.5741,-0.4791,-0.4598,-0.4491,-0.4491,-0.4491,-0.4491,-0.4491,-0.4491,-0.4491,-0.4494,-0.4648,-0.4691,-0.4701,-0.4853,-0.4914,-0.4951,-0.4908,-0.4975,-0.5047,-0.4955,-0.4914,-0.4965,-0.5063,-0.51,-0.512,-2.1244,-2.1205,-2.1205,-2.1205,-2.1205,-2.1205,-2.1205,-2.0623,-2.0054,-1.9664,-1.9013,-1.8451,-1.8057,-1.8008,-1.8008,-1.8008,-1.8008,-1.8008,-1.8008,-1.8008,-1.8076,-1.8303,-1.811,-1.8008,-1.8008,-1.8008,-1.8008,-1.8008,-1.8008,-1.8008,-1.8018,-1.8018,-1.8208,-1.8607,-1.8607,-1.8887,-1.9287,-1.9287,-1.9287,-1.9248,-1.8783,-1.8607,-1.8559,-1.8174,-1.8018,-1.8008,-1.8008,-1.8008,-1.8008,-1.7974,-1.751,-1.6897,-1.6897,-1.6212,-1.5404,-1.5459,-1.4764,-1.3696,-1.2351,-1.1981,-1.2034,-1.2149,-1.1638,-1.0852,-0.9993,-0.9692,-0.9439,-0.891,-0.8804,-0.8804,-0.8804,-0.8804,-0.8804,-0.8804,-0.8804,-0.8804,-0.8804,-0.8804,-0.8804,-0.8804,-0.8804,-0.8804,-0.8804,-0.8685,-0.8547,-0.8421,-0.8268,-0.7869,-0.7139,-0.6534,-0.5932,-0.5308,-0.4791,-0.4491,-0.4491,-0.4491,-0.4491,-0.4491,-0.4491,-0.4491,-0.4498,-0.4651,-0.4694,-0.4704,-0.4857,-0.4972,-0.509,-0.4951,-0.5098,-0.5365,-0.5036,-0.4978,-0.51,-0.51,-0.51,-0.512,-2.1022,-2.1089,-2.1177,-2.1022,-2.0984,-2.0935,-2.0809,-2.0613,-2.0221,-1.9485,-1.9206,-1.8818,-1.8086,-1.8008,-1.8008,-1.8008,-1.8008,-1.8008,-1.8008,-1.8008,-1.8042,-1.8076,-1.8042,-1.8008,-1.8008,-1.8008,-1.8008,-1.8008,-1.8008,-1.812,-1.8412,-1.8412,-1.8646,-1.9102,-1.9404,-1.9443,-1.9307,-1.96,-1.9561,-1.9277,-1.915,-1.887,-1.8588,-1.8461,-1.8237,-1.8008,-1.8008,-1.8008,-1.7906,-1.7398,-1.7079,-1.6793,-1.6132,-1.5257,-1.4443,-1.4336,-1.349,-1.2504,-1.2004,-1.1514,-1.1219,-1.1456,-1.0869,-1.0213,-1.0058,-0.9498,-0.8982,-0.8831,-0.8804,-0.8804,-0.8804,-0.8804,-0.8804,-0.8804,-0.8804,-0.8804,-0.8804,-0.8804,-0.8804,-0.8804,-0.8804,-0.8804,-0.8804,-0.8685,-0.8547,-0.8421,-0.8141,-0.7542,-0.6534,-0.629,-0.5741,-0.4763,-0.457,-0.4491,-0.4491,-0.4491,-0.4491,-0.4491,-0.4491,-0.4545,-0.4655,-0.4779,-0.4904,-0.4975,-0.5162,-0.5286,-0.532,-0.5279,-0.5313,-0.5385,-0.5296,-0.5286,-0.5324,-0.5324,-0.5324,-0.533,-2.0819,-2.0886,-2.0925,-2.0819,-2.078,-2.0731,-2.0605,-2.0605,-2.0292,-1.9394,-1.9287,-1.8965,-1.8105,-1.8008,-1.8008,-1.8008,-1.8008,-1.8008,-1.8008,-1.8008,-1.8008,-1.8008,-1.8008,-1.8008,-1.8008,-1.8008,-1.8086,-1.8227,-1.8227,-1.8477,-1.8896,-1.8896,-1.9121,-1.9541,-1.9805,-1.9863,-1.9852,-2.0068,-2.0029,-1.9813,-1.96,-1.9277,-1.8877,-1.8666,-1.8344,-1.7974,-1.7691,-1.7545,-1.7432,-1.6689,-1.6167,-1.5781,-1.5215,-1.4437,-1.371,-1.35,-1.2775,-1.1912,-1.1457,-1.1028,-1.0759,-1.0906,-1.0481,-0.9944,-0.9764,-0.9343,-0.8918,-0.8831,-0.8804,-0.8804,-0.8804,-0.8804,-0.8804,-0.8804,-0.8804,-0.8804,-0.8804,-0.8804,-0.8804,-0.8804,-0.8804,-0.8778,-0.8718,-0.8606,-0.8421,-0.8215,-0.8002,-0.7601,-0.6918,-0.6453,-0.5878,-0.5199,-0.4736,-0.4491,-0.4491,-0.4491,-0.4491,-0.4491,-0.4552,-0.4631,-0.4697,-0.4908,-0.5019,-0.5106,-0.5327,-0.5395,-0.5395,-0.5395,-0.5395,-0.5395,-0.5395,-0.5395,-0.5395,-0.5395,-0.5395,-0.5395,-2.0644,-2.0605,-2.0605,-2.0605,-2.0605,-2.0605,-2.0605,-2.0605,-2.0312,-1.9453,-1.9346,-1.9033,-1.8213,-1.8125,-1.8105,-1.8066,-1.8037,-1.8008,-1.8008,-1.8008,-1.8008,-1.8008,-1.8008,-1.8027,-1.8066,-1.8066,-1.8217,-1.8598,-1.8637,-1.888,-1.9346,-1.9346,-1.957,-1.9971,-1.9971,-2.0195,-2.0605,-2.0605,-2.0566,-2.045,-2.0013,-1.9548,-1.9056,-1.8624,-1.8189,-1.7725,-1.7044,-1.6793,-1.6655,-1.5842,-1.4931,-1.4158,-1.4158,-1.365,-1.304,-1.2844,-1.2351,-1.1704,-1.0826,-1.0593,-1.0593,-1.0593,-1.0354,-0.997,-0.9384,-0.9231,-0.9131,-0.8871,-0.8804,-0.8804,-0.8804,-0.8804,-0.8804,-0.8804,-0.8804,-0.8804,-0.8804,-0.8778,-0.8778,-0.8804,-0.8778,-0.8745,-0.86,-0.8474,-0.8242,-0.7928,-0.7901,-0.7875,-0.7821,-0.6783,-0.6182,-0.6127,-0.5066,-0.4491,-0.4491,-0.4505,-0.4511,-0.4511,-0.4651,-0.4704,-0.4741,-0.4975,-0.5106,-0.5127,-0.5334,-0.5395,-0.5395,-0.5395,-0.5395,-0.5395,-0.5395,-0.5395,-0.5395,-0.5395,-0.5395,-0.5395,-2.0605,-2.0605,-2.0605,-2.0605,-2.0605,-2.0605,-2.0605,-2.0605,-2.0419,-1.9844,-1.9775,-1.958,-1.9062,-1.9014,-1.8877,-1.849,-1.8159,-1.8008,-1.8008,-1.8008,-1.8008,-1.8008,-1.8008,-1.8164,-1.8461,-1.8461,-1.851,-1.8598,-1.8984,-1.9365,-1.9775,-1.9775,-2.001,-2.0458,-2.0458,-2.0517,-2.0605,-2.0605,-2.0206,-1.9569,-1.9476,-1.8608,-1.7393,-1.7314,-1.6809,-1.6167,-1.6026,-1.5877,-1.5675,-1.4681,-1.3753,-1.2966,-1.2966,-1.2611,-1.2128,-1.182,-1.1484,-1.1125,-1.0698,-1.0593,-1.0593,-1.0593,-1.0546,-1.0338,-0.9719,-0.9377,-0.9131,-0.8871,-0.8804,-0.8804,-0.8804,-0.8804,-0.8804,-0.8804,-0.8804,-0.8804,-0.8804,-0.8718,-0.8685,-0.8778,-0.8718,-0.8633,-0.86,-0.8374,-0.8141,-0.7928,-0.7901,-0.7714,-0.73,-0.6588,-0.5991,-0.5496,-0.4842,-0.4491,-0.4491,-0.461,-0.4672,-0.4672,-0.4674,-0.4813,-0.5005,-0.5069,-0.5196,-0.5347,-0.5382,-0.5395,-0.5395,-0.5395,-0.5395,-0.5395,-0.5395,-0.5395,-0.5395,-0.5395,-0.5395,-0.5395,-2.0605,-2.0605,-2.0605,-2.0605,-2.0605,-2.0605,-2.0605,-2.0605,-2.0449,-1.9971,-1.9912,-1.9756,-1.9336,-1.9287,-1.9111,-1.8637,-1.8217,-1.8096,-1.8256,-1.8125,-1.8105,-1.8266,-1.8276,-1.8373,-1.8598,-1.8997,-1.9212,-1.9212,-1.9473,-1.9805,-2.0225,-2.0225,-2.0342,-2.0605,-2.0605,-2.0605,-2.0605,-2.0605,-2.0089,-1.9283,-1.913,-1.821,-1.6858,-1.6633,-1.6169,-1.564,-1.518,-1.476,-1.4294,-1.3688,-1.3069,-1.2599,-1.2599,-1.238,-1.2017,-1.1724,-1.143,-1.1136,-1.0842,-1.07,-1.0593,-1.0593,-1.0593,-1.0472,-0.9993,-0.9744,-0.9511,-0.9078,-0.8984,-0.8944,-0.8831,-0.8804,-0.8804,-0.8804,-0.8804,-0.8804,-0.8804,-0.8685,-0.8659,-0.8778,-0.8639,-0.8474,-0.8421,-0.8189,-0.8008,-0.7901,-0.7901,-0.7768,-0.7494,-0.6945,-0.6344,-0.5741,-0.5171,-0.4799,-0.46,-0.4679,-0.4762,-0.4901,-0.4901,-0.4951,-0.51,-0.5206,-0.5284,-0.5395,-0.5395,-0.5395,-0.5395,-0.5395,-0.5395,-0.5395,-0.5395,-0.5395,-0.5395,-0.5395,-0.5395,-0.5395,-2.0605,-2.0605,-2.0605,-2.0605,-2.0605,-2.0605,-2.0605,-2.0605,-2.0478,-2.0078,-2.0029,-1.9893,-1.9541,-1.9375,-1.9141,-1.8744,-1.8325,-1.8301,-1.8685,-1.8428,-1.8389,-1.8695,-1.8715,-1.8715,-1.8715,-1.9512,-1.9912,-1.9912,-1.999,-2.0215,-2.0605,-2.0605,-2.0605,-2.0605,-2.0605,-2.0527,-2.0372,-2.0372,-1.9775,-1.8789,-1.8497,-1.7578,-1.6312,-1.5885,-1.5498,-1.5108,-1.433,-1.3659,-1.3083,-1.2863,-1.2673,-1.2562,-1.2562,-1.2415,-1.2245,-1.1993,-1.1657,-1.1329,-1.1069,-1.0814,-1.0593,-1.0593,-1.0593,-1.0526,-1.0247,-1.0154,-0.993,-0.9397,-0.9251,-0.9138,-0.8898,-0.8838,-0.8804,-0.8804,-0.8804,-0.8778,-0.8778,-0.8659,-0.8606,-0.8752,-0.856,-0.8348,-0.8221,-0.8008,-0.7901,-0.7901,-0.7901,-0.7901,-0.7901,-0.7386,-0.6864,-0.6372,-0.5694,-0.5201,-0.4861,-0.4797,-0.4887,-0.51,-0.5127,-0.5137,-0.5143,-0.5337,-0.5395,-0.5395,-0.5395,-0.5395,-0.5395,-0.5395,-0.5395,-0.5395,-0.5395,-0.5395,-0.5395,-0.5395,-0.5395,-0.5395,-2.0605,-2.0605,-2.0605,-2.0605,-2.0605,-2.0605,-2.0605,-2.0605,-2.0586,-2.0517,-2.0517,-2.0488,-2.0439,-1.9764,-1.9268,-1.9209,-1.8763,-1.8695,-1.917,-1.915,-1.9141,-1.9199,-1.9199,-1.9199,-1.9199,-1.9668,-1.9912,-1.9912,-2.0293,-2.0546,-2.0605,-2.0605,-2.0605,-2.0605,-2.0605,-2.0167,-1.946,-1.946,-1.8447,-1.6796,-1.674,-1.5734,-1.4194,-1.4151,-1.3769,-1.3251,-1.3112,-1.2893,-1.2636,-1.2452,-1.2378,-1.2342,-1.2342,-1.2335,-1.2245,-1.1993,-1.1657,-1.1329,-1.1069,-1.0814,-1.0593,-1.0593,-1.0593,-1.0579,-1.0539,-1.0301,-1.002,-0.9693,-0.9391,-0.9204,-0.9164,-0.8951,-0.8804,-0.8804,-0.8804,-0.8752,-0.8633,-0.8501,-0.8474,-0.8606,-0.8501,-0.8348,-0.8221,-0.8008,-0.7901,-0.7901,-0.7901,-0.7901,-0.7901,-0.7386,-0.7058,-0.6977,-0.6052,-0.553,-0.5468,-0.5186,-0.5059,-0.51,-0.5267,-0.5361,-0.5365,-0.5385,-0.5395,-0.5395,-0.5395,-0.5395,-0.5395,-0.5395,-0.5395,-0.5395,-0.5395,-0.5395,-0.5395,-0.5395,-0.5395,-0.5395,-2.0605,-2.0605,-2.0605,-2.0605,-2.0605,-2.0605,-2.0605,-2.0605,-2.0605,-2.0605,-2.0605,-2.0605,-2.0605,-2.001,-1.9639,-1.9639,-1.9248,-1.918,-1.9609,-1.9414,-1.9394,-1.9629,-1.9639,-1.9639,-1.9639,-2.0059,-2.0043,-1.958,-1.9759,-1.9854,-1.9854,-1.9362,-1.9411,-1.9854,-1.9362,-1.9204,-1.9262,-1.8647,-1.7634,-1.637,-1.6054,-1.5197,-1.4041,-1.3528,-1.3269,-1.3093,-1.2845,-1.2673,-1.2562,-1.2378,-1.2305,-1.2305,-1.2305,-1.2305,-1.2278,-1.2144,-1.1784,-1.1362,-1.1269,-1.0935,-1.0593,-1.0593,-1.0593,-1.0593,-1.0593,-1.0492,-1.0281,-0.9987,-0.979,-0.965,-0.9519,-0.9217,-0.9024,-0.9024,-0.8884,-0.8752,-0.8626,-0.8474,-0.8348,-0.8209,-0.8268,-0.8215,-0.8062,-0.7955,-0.7901,-0.7901,-0.7901,-0.7901,-0.7901,-0.7681,-0.7475,-0.7328,-0.6506,-0.5998,-0.5939,-0.5377,-0.514,-0.526,-0.5361,-0.5395,-0.5395,-0.5395,-0.5395,-0.5395,-0.5395,-0.5395,-0.5395,-0.5395,-0.5395,-0.5395,-0.5395,-0.5395,-0.5395,-0.5395,-0.5395,-0.5395]},{"header":{"parameterUnit":"m.s-1","parameterCategory":1,"la1":30.6,"la2":28.766,"lo1":-90.7593,"lo2":-88.6598,"dy":0.0162,"dx":0.0183,"nx":116,"ny":114,"refTime":"2024-05-18T06:00:00:Z","depth":0,"parameterNumber":3,"parameterNumberName":"V-component_of_WINDS"},"data":[0.0,0.0,0.0,0.0,0.0,0.0,0.0,0.0,0.0,0.0,0.0,0.0,0.0,0.0,0.0,0.0,0.0,0.0,0.0,0.0,0.0,0.0,0.0,0.0,0.0,0.0,0.0,0.0,0.0,0.0,0.0,0.0,0.0,0.0,0.0,0.0,0.0,0.0,0.0,0.0,0.0,0.0,0.0,0.0,0.0,0.0,0.0,0.0,0.0,0.0,0.0,0.0,0.0,0.0,0.0,0.0,0.0,0.0,0.0,0.0,0.0,0.0,0.0,0.0,0.0,0.0,0.0,0.0,0.0,0.0,0.0,0.0,0.0,0.0,0.0,0.0,0.0,0.0,0.0,0.0,0.0,0.0,0.0,0.0,0.0,0.0,0.0,0.0,0.0,0.0,0.0,0.0,0.0,0.0,0.0,0.0,0.0,0.0,0.0,0.0,0.0,0.0,0.0,0.0,0.0,0.0,0.0,0.0,0.0,0.0,0.0,0.0,0.0,0.0,0.0,0.0,0.0,0.0,0.0,0.0,0.0,0.0,0.0,0.0,0.0,0.0,0.0,0.0,0.0,0.0,0.0,0.0,0.0,0.0,0.0,0.0,0.0,0.0,0.0,0.0,0.0,0.0,0.0,0.0,0.0,0.0,0.0,0.0,0.0,0.0,0.0,0.0,0.0,0.0,0.0,0.0,0.0,0.0,0.0,0.0,0.0,0.0,0.0,0.0,0.0,0.0,0.0,0.0,0.0,0.0,0.0,0.0,0.0,0.0,0.0,0.0,0.0,0.0,0.0,0.0,0.0,0.0,0.0,0.0,0.0,0.0,0.0,0.0,0.0,0.0,0.0,0.0,0.0,0.0,0.0,0.0,0.0,0.0,0.0,0.0,0.0,0.0,0.0,0.0,0.0,0.0,0.0,0.0,0.0,0.0,0.0,0.0,0.0,0.0,0.0,0.0,0.0,0.0,0.0,0.0,0.0,0.0,0.0,0.0,0.0,0.0,0.0,0.0,0.0,0.0,0.0,0.0,0.0,0.0,0.0,0.0,0.0,0.0,0.0,0.0,0.0,0.0,0.0,0.0,0.0,0.0,0.0,0.0,0.0,0.0,0.0,0.0,0.0,0.0,0.0,0.0,0.0,0.0,0.0,0.0,0.0,0.0,0.0,0.0,0.0,0.0,0.0,0.0,0.0,0.0,0.0,0.0,0.0,0.0,0.0,0.0,0.0,0.0,0.0,0.0,0.0,0.0,0.0,0.0,0.0,0.0,0.0,0.0,0.0,0.0,0.0,0.0,0.0,0.0,0.0,0.0,0.0,0.0,0.0,0.0,0.0,0.0,0.0,0.0,0.0,0.0,0.0,0.0,0.0,0.0,0.0,0.0,0.0,0.0,0.0,0.0,0.0,0.0,0.0,0.0,0.0,0.0,0.0,0.0,0.0,0.0,0.0,0.0,0.0,0.0,0.0,0.0,0.0,0.0,0.0,0.0,0.0,0.0,0.0,0.0,0.0,0.0,0.0,0.0,0.0,0.0,0.0,0.0,0.0,0.0,0.0,0.0,0.0,0.0,0.0,0.0,0.0,0.0,0.0,0.0,0.0,0.0,0.0,0.0,0.0,0.0,0.0,0.0,0.0,0.0,0.0,0.0,0.0,0.0,0.0,0.0,0.0,0.0,0.0,0.0,0.0,0.0,0.0,0.0,0.0,0.0,0.0,0.0,0.0,0.0,0.0,0.0,0.0,0.0,0.0,0.0,0.0,0.0,0.0,0.0,0.0,0.0,0.0,0.0,0.0,0.0,0.0,0.0,0.0,0.0,0.0,0.0,0.0,0.0,0.0,0.0,0.0,0.0,0.0,0.0,0.0,0.0,0.0,0.0,0.0,0.0,0.0,0.0,0.0,0.0,0.0,0.0,0.0,0.0,0.0,0.0,0.0,0.0,0.0,0.0,0.0,0.0,0.0,0.0,0.0,0.0,0.0,0.0,0.0,0.0,0.0,0.0,0.0,0.0,0.0,0.0,0.0,0.0,0.0,0.0,0.0,0.0,0.0,0.0,0.0,0.0,0.0,0.0,0.0,0.0,0.0,0.0,0.0,0.0,0.0,0.0,0.0,0.0,0.0,0.0,0.0,0.0,0.0,0.0,0.0,0.0,0.0,0.0,0.0,0.0,0.0,0.0,0.0,0.0,0.0,0.0,0.0,0.0,0.0,0.0,0.0,0.0,0.0,0.0,0.0,0.0,0.0,0.0,0.0,0.0,0.0,0.0,0.0,0.0,0.0,0.0,0.0,0.0,0.0,0.0,0.0,0.0,0.0,0.0,0.0,0.0,0.0,0.0,0.0,0.0,0.0,0.0,0.0,0.0,0.0,0.0,0.0,0.0,0.0,0.0,0.0,0.0,0.0,0.0,0.0,0.0,0.0,0.0,0.0,0.0,0.0,0.0,0.0,0.0,0.0,0.0,0.0,0.0,0.0,0.0,0.0,0.0,0.0,0.0,0.0,0.0,0.0,0.0,0.0,0.0,0.0,0.0,0.0,0.0,0.0,0.0,0.0,0.0,0.0,0.0,0.0,0.0,0.0,0.0,0.0,0.0,0.0,0.0,0.0,0.0,0.0,0.0,0.0,0.0,0.0,0.0,0.0,0.0,0.0,0.0,0.0,0.0,0.0,0.0,0.0,0.0,0.0,0.0,0.0,0.0,0.0,0.0,0.0,0.0,0.0,0.0,0.0,0.0,0.0,0.0,0.0,0.0,0.0,0.0,0.0,0.0,0.0,0.0,0.0,0.0,0.0,0.0,0.0,0.0,0.0,0.0,0.0,0.0,0.0,0.0,0.0,0.0,0.0,0.0,0.0,0.0,0.0,0.0,0.0,0.0,0.0,0.0,0.0,0.0,0.0,0.0,0.0,0.0,0.0,0.0,0.0,0.0,0.0,0.0,0.0,0.0,0.0,0.0,0.0,0.0,0.0,0.0,0.0,0.0,0.0,0.0,0.0,0.0,0.0,0.0,0.0,0.0,0.0,0.0,0.0,0.0,0.0,0.0,0.0,0.0,0.0,0.0,0.0,0.0,0.0,0.0,0.0,0.0,0.0,0.0,0.0,0.0,0.0,0.0,0.0,0.0,0.0,0.0,0.0,0.0,0.0,0.0,0.0,0.0,0.0,0.0,0.0,0.0,0.0,0.0,0.0,0.0,0.0,0.0,0.0,0.0,0.0,0.0,0.0,0.0,0.0,0.0,0.0,0.0,0.0,0.0,0.0,0.0,0.0,0.0,0.0,0.0,0.0,0.0,0.0,0.0,0.0,0.0,0.0,0.0,0.0,0.0,0.0,0.0,0.0,0.0,0.0,0.0,0.0,0.0,0.0,0.0,0.0,0.0,0.0,0.0,0.0,0.0,0.0,0.0,0.0,0.0,0.0,0.0,0.0,0.0,0.0,0.0,0.0,0.0,0.0,0.0,0.0,0.0,0.0,0.0,0.0,0.0,0.0,0.0,0.0,0.0,0.0,0.0,0.0,0.0,0.0,0.0,0.0,0.0,0.0,0.0,0.0,0.0,0.0,0.0,0.0,0.0,0.0,0.0,0.0,0.0,0.0,0.0,0.0,0.0,0.0,0.0,0.0,0.0,0.0,0.0,0.0,0.0,0.0,0.0,0.0,0.0,0.0,0.0,0.0,0.0,0.0,0.0,0.0,0.0,0.0,0.0,0.0,0.0,0.0,0.0,0.0,0.0,0.0,0.0,0.0,0.0,0.0,0.0,0.0,0.0,0.0,0.0,0.0,0.0,0.0,0.0,0.0,0.0,0.0,0.0,0.0,0.0,0.0,0.0,0.0,0.0,0.0,0.0,0.0,0.0,0.0,0.0,0.0,0.0,0.0,0.0,0.0,0.0,0.0,0.0,0.0,0.0,0.0,0.0,0.0,0.0,0.0,0.0,0.0,0.0,0.0,0.0,0.0,0.0,0.0,0.0,0.0,0.0,0.0,0.0,0.0,0.0,0.0,0.0,0.0,0.0,0.0,0.0,0.0,0.0,0.0,0.0,0.0,0.0,0.0,0.0,0.0,0.0,0.0,0.0,0.0,0.0,0.0,0.0,0.0,0.0,0.0,0.0,0.0,0.0,0.0,0.0,0.0,0.0,0.0,0.0,0.0,0.0,0.0,0.0,0.0,0.0,0.0,0.0,0.0,0.0,0.0,0.0,0.0,0.0,0.0,0.0,0.0,0.0,0.0,0.0,0.0,0.0,0.0,0.0,0.0,0.0,0.0,0.0,0.0,0.0,0.0,0.0,0.0,0.0,0.0,0.0,0.0,0.0,0.0,0.0,0.0,0.0,0.0,0.0,0.0,0.0,0.0,0.0,0.0,0.0,0.0,0.0,0.0,0.0,0.0,0.0,0.0,0.0,0.0,0.0,0.0,0.0,0.0,0.0,0.0,0.0,0.0,0.0,0.0,0.0,0.0,0.0,0.0,0.0,0.0,0.0,0.0,0.0,0.0,0.0,0.0,0.0,0.0,0.0,0.0,0.0,0.0,0.0,0.0,0.0,0.0,0.0,0.0,0.0,0.0,0.0,0.0,0.0,0.0,0.0,0.0,0.0,0.0,0.0,0.0,0.0,0.0,0.0,0.0,0.0,0.0,0.0,0.0,0.0,0.0,0.0,0.0,0.0,0.0,0.0,0.0,0.0,0.0,0.0,0.0,0.0,0.0,0.0,0.0,0.0,0.0,0.0,0.0,0.0,0.0,0.0,0.0,0.0,0.0,0.0,0.0,0.0,0.0,0.0,0.0,0.0,0.0,0.0,0.0,0.0,0.0,0.0,0.0,0.0,0.0,0.0,0.0,0.0,0.0,0.0,0.0,0.0,0.0,0.0,0.0,0.0,0.0,0.0,0.0,0.0,0.0,0.0,0.0,0.0,0.0,0.0,0.0,0.0,0.0,0.0,0.0,0.0,0.0,0.0,0.0,0.0,0.0,0.0,0.0,0.0,0.0,0.0,0.0,0.0,0.0,0.0,0.0,0.0,0.0,0.0,0.0,0.0,0.0,0.0,0.0,0.0,0.0,0.0,0.0,0.0,0.0,0.0,0.0,0.0,0.0,0.0,0.0,0.0,0.0,0.0,0.0,0.0,0.0,0.0,0.0,0.0,0.0,0.0,0.0,0.0,0.0,0.0,0.0,0.0,0.0,0.0,0.0,0.0,0.0,0.0,0.0,0.0,0.0,0.0,0.0,0.0,0.0,0.0,0.0,0.0,0.0,0.0,0.0,0.0,0.0,0.0,0.0,0.0,0.0,0.0,0.0,0.0,0.0,0.0,0.0,0.0,0.0,0.0,0.0,0.0,0.0,0.0,0.0,0.0,0.0,0.0,0.0,0.0,0.0,0.0,0.0,0.0,0.0,0.0,0.0,0.0,0.0,0.0,0.0,0.0,0.0,0.0,0.0,0.0,0.0,0.0,0.0,0.0,0.0,0.0,0.0,0.0,0.0,0.0,0.0,0.0,0.0,0.0,0.0,0.0,0.0,0.0,0.0,0.0,0.0,0.0,0.0,0.0,0.0,0.0,0.0,0.0,0.0,0.0,0.0,0.0,0.0,0.0,0.0,0.0,0.0,0.0,0.0,0.0,0.0,0.0,0.0,0.0,0.0,0.0,0.0,0.0,0.0,0.0,0.0,0.0,0.0,0.0,0.0,0.0,0.0,0.0,0.0,0.0,0.0,0.0,0.0,0.0,0.0,0.0,0.0,0.0,0.0,0.0,0.0,0.0,0.0,0.0,0.0,0.0,0.0,0.0,0.0,0.0,0.0,0.0,0.0,0.0,0.0,0.0,0.0,0.0,0.0,0.0,0.0,0.0,0.0,0.0,0.0,0.0,0.0,0.0,0.0,0.0,0.0,0.0,0.0,0.0,0.0,0.0,0.0,0.0,0.0,0.0,0.0,0.0,0.0,0.0,0.0,0.0,0.0,0.0,0.0,0.0,0.0,0.0,0.0,0.0,0.0,0.0,0.0,0.0,0.0,0.0,0.0,0.0,0.0,0.0,0.0,0.0,0.0,0.0,0.0,0.0,0.0,0.0,0.0,0.0,0.0,0.0,0.0,0.0,1.1473,0.0,0.0,0.0,0.0,0.0,0.0,0.0,0.0,0.0,0.0,0.0,0.0,0.0,0.0,0.0,0.0,0.0,0.0,0.0,0.0,0.0,0.0,0.0,0.0,1.5246,1.5691,1.6523,1.6543,1.638,1.6051,0.0,0.0,0.0,0.0,0.0,1.4537,1.3174,1.2441,1.2374,1.1605,1.1403,1.179,1.1756,1.1538,1.1126,0.0,0.0,0.0,0.0,0.0,0.0,0.0,0.0,0.0,0.0,0.0,0.0,0.0,0.0,0.0,0.0,0.0,0.0,0.0,0.0,0.0,0.0,0.0,0.0,0.0,0.0,0.0,0.0,0.0,0.0,0.0,0.0,0.0,0.0,0.0,0.0,0.0,0.0,0.0,0.0,0.0,0.0,0.0,0.0,0.0,0.0,0.0,0.0,0.0,0.0,0.0,0.0,0.0,0.0,0.0,0.0,0.0,0.0,0.0,0.0,0.0,0.0,0.0,0.0,0.0,0.0,0.0,0.0,0.0,0.0,0.0,1.1771,0.0,0.0,0.0,0.0,0.0,0.0,0.0,0.0,0.0,0.0,0.0,0.0,0.0,0.0,0.0,0.0,0.0,0.0,0.0,0.0,0.0,1.2704,1.5053,1.5266,1.5698,1.6844,1.685,1.6765,1.668,1.6659,0.0,0.0,0.0,1.5906,1.5787,1.4509,1.3781,1.3639,1.2723,1.2378,1.2579,1.2811,1.2458,1.1665,1.1338,0.0,0.0,0.0,0.0,0.0,0.0,0.0,0.0,0.0,0.0,0.0,0.0,0.0,0.0,0.0,0.0,0.0,0.0,0.0,0.0,0.0,0.0,0.0,0.0,0.0,0.0,0.0,0.0,0.0,0.0,0.0,0.0,0.0,0.0,0.0,0.0,0.0,0.0,0.0,0.0,0.0,0.0,0.0,0.0,0.0,0.0,0.0,0.0,0.0,0.0,0.0,0.0,0.0,0.0,0.0,0.0,0.0,0.0,0.0,0.0,0.0,0.0,0.0,1.5942,1.5952,1.5871,1.5727,1.563,1.5458,1.3765,1.3044,1.3102,1.304,0.0,0.0,0.0,0.0,0.0,0.0,0.0,0.0,0.0,0.0,0.0,0.0,0.0,0.0,0.0,0.0,0.0,0.0,0.0,1.3116,1.546,1.5969,1.6596,1.7798,1.7907,1.774,1.7393,1.7372,0.0,0.0,1.6611,1.6308,1.5724,1.5117,1.4748,1.4615,1.4014,1.3583,1.3256,1.28,1.25,1.2386,1.2618,1.2487,1.2073,0.0,0.0,0.0,0.0,0.0,0.0,0.0,0.0,0.0,0.0,0.0,0.0,0.0,0.0,0.0,0.0,0.0,0.0,0.0,0.0,0.0,0.0,0.0,0.0,0.0,0.0,0.0,0.0,0.0,0.0,0.0,0.0,0.0,0.0,0.0,0.0,0.0,0.0,0.0,0.0,0.0,1.9783,1.9316,0.0,0.0,0.0,0.0,0.0,0.0,0.0,0.0,0.0,0.0,0.0,0.0,0.0,1.6257,1.6056,1.7062,1.7439,1.7161,1.7394,1.732,1.697,1.6274,1.5762,1.5388,1.4825,0.0,1.5026,1.4851,0.0,0.0,0.0,0.0,0.0,0.0,0.0,0.0,0.0,0.0,0.0,0.0,0.0,0.0,0.0,0.0,0.0,0.0,0.0,0.0,0.0,1.5796,1.6176,1.7015,1.7009,1.7047,1.7265,1.7273,1.7343,1.7476,1.7489,1.7169,1.6507,1.6291,1.5826,1.5074,1.4527,1.4179,1.4016,1.3542,1.3336,1.3331,1.3259,1.2922,1.2405,1.2347,0.0,0.0,0.0,0.0,0.0,0.0,0.0,0.0,0.0,0.0,0.0,0.0,0.0,0.0,0.0,0.0,0.0,0.0,0.0,0.0,0.0,0.0,0.0,0.0,0.0,0.0,0.0,0.0,0.0,0.0,0.0,0.0,0.0,0.0,0.0,0.0,0.0,0.0,0.0,2.0474,2.0638,2.0497,1.9709,1.8867,0.0,0.0,0.0,0.0,0.0,0.0,0.0,0.0,0.0,1.7088,1.7284,1.7573,1.7957,1.8491,1.8533,1.8124,1.8239,1.8082,1.7656,1.7292,1.7015,1.6867,1.6878,1.6808,1.6607,1.5463,1.4798,1.4457,0.0,0.0,0.0,0.0,1.3378,1.3097,0.0,0.0,0.0,0.0,0.0,0.0,0.0,0.0,0.0,0.0,0.0,0.0,1.58,1.6024,1.6317,1.6889,1.6827,1.694,0.0,0.0,1.7614,1.7965,1.7929,1.7581,1.6913,1.6688,1.6149,1.5247,1.485,1.4611,1.4517,1.4246,1.4133,1.41,1.3818,1.3303,1.2655,1.2609,1.2558,0.0,0.0,0.0,0.0,0.0,0.0,0.0,0.0,0.0,0.0,0.0,0.0,0.0,0.0,0.0,0.0,0.0,0.0,0.0,0.0,0.0,0.0,0.0,0.0,0.0,0.0,0.0,0.0,0.0,0.0,0.0,0.0,0.0,0.0,0.0,0.0,0.0,0.0,2.1828,2.1796,2.1577,2.0619,1.9672,0.0,0.0,0.0,0.0,0.0,0.0,1.9051,1.9106,1.9037,1.8753,1.8874,1.9238,1.9916,1.9863,1.9592,1.9135,1.8832,1.8447,1.7999,1.7879,1.7824,1.7835,1.8027,1.7913,1.7481,1.6144,1.54,1.5144,1.504,1.4608,1.405,1.4091,1.3765,1.3413,0.0,0.0,0.0,0.0,0.0,0.0,0.0,0.0,0.0,0.0,0.0,1.5353,1.6683,0.0,1.7961,1.8628,1.8603,1.8391,0.0,0.0,1.8212,1.7744,1.7478,1.7033,1.6352,1.558,1.516,1.5119,1.5089,1.4907,1.4596,1.4517,1.447,1.447,1.4454,1.4046,1.3334,1.3148,1.2847,1.2489,0.0,0.0,0.0,0.0,0.0,0.0,0.0,0.0,0.0,0.0,0.0,0.0,0.0,0.0,0.0,0.0,0.0,0.0,0.0,0.0,0.0,0.0,0.0,0.0,0.0,0.0,0.0,0.0,0.0,0.0,0.0,0.0,0.0,0.0,0.0,0.0,0.0,0.0,0.0,2.239,2.2128,0.0,0.0,0.0,0.0,2.0111,2.0671,2.0995,2.0967,2.0964,2.0916,2.0754,2.12,2.139,2.1308,2.1117,2.0774,2.0289,1.9229,1.8447,1.7988,1.7558,1.735,1.735,1.7344,1.7333,1.7316,1.7376,1.6984,1.6387,1.5995,1.5352,1.4682,1.4864,1.4527,1.4058,0.0,0.0,0.0,0.0,0.0,1.124,1.2768,1.3043,1.3664,1.5339,1.5725,1.6113,0.0,1.7037,1.7255,1.7481,1.7486,1.7579,1.7849,0.0,1.8161,1.8406,1.8277,1.7893,1.7212,1.6535,1.6171,1.6128,1.613,1.5949,1.5623,1.5389,1.518,1.5013,1.4705,1.4422,1.4146,1.3779,1.343,1.316,1.3345,1.3379,0.0,0.0,0.0,0.0,0.0,0.0,0.0,0.0,0.0,0.0,0.0,0.0,0.0,0.0,0.0,0.0,0.0,0.0,0.0,0.0,0.0,0.0,0.0,0.0,0.0,0.0,0.0,0.0,0.0,0.0,0.0,0.0,0.0,0.0,0.0,0.0,0.0,2.3025,2.2802,0.0,2.164,2.1517,2.1471,2.1471,2.2449,2.2802,2.2286,2.263,2.2589,2.2026,2.2168,2.2206,2.2188,2.1974,2.1641,2.1164,2.0282,1.9605,1.9149,1.8631,1.8398,1.8398,1.8398,1.8398,1.8367,1.8035,1.7475,1.6809,1.6669,1.6015,1.5151,1.524,1.4713,1.4033,0.0,0.0,0.0,0.0,1.0956,1.1623,1.3365,1.3773,1.4483,1.6209,1.6581,1.6776,1.698,1.6853,1.6881,1.7126,1.6889,1.7028,1.7717,0.0,1.8132,1.8569,1.8475,1.8127,1.7543,1.7055,1.6828,1.6876,1.6773,1.6604,1.6365,1.6147,1.5938,1.5724,1.5419,1.5151,1.4938,1.4629,1.4233,1.3856,1.4131,1.4281,1.4301,0.0,0.0,0.0,0.0,0.0,0.0,0.0,0.0,0.0,0.0,0.0,0.0,0.0,0.0,0.0,0.0,0.0,0.0,0.0,0.0,0.0,0.0,0.0,0.0,0.0,0.0,0.0,0.0,0.0,0.0,0.0,0.0,0.0,0.0,2.46,2.4573,2.3635,2.3472,2.3211,2.2616,2.2722,2.2841,2.2841,2.3823,2.4159,2.3655,2.3995,2.4037,2.3653,2.3458,2.3504,2.3854,2.3112,2.2588,2.2292,2.1153,2.0334,1.9846,1.9269,1.8987,1.8987,1.8987,1.8987,1.896,1.8575,1.8131,1.7639,1.7446,1.702,1.648,1.6133,1.5598,1.4966,0.0,0.0,0.0,1.105,1.1324,1.2043,1.3669,1.418,1.4903,1.6326,1.6989,1.7316,1.7392,1.6987,1.6987,1.7676,1.7057,1.6924,1.7625,1.8001,1.8196,1.8196,1.7958,1.7636,1.7256,1.6993,1.6993,1.724,1.698,1.6815,1.6722,1.6722,1.667,1.6594,1.6594,1.6285,1.5724,1.5667,1.5211,1.4572,1.4704,1.4798,1.4871,0.0,0.0,0.0,0.0,0.0,0.0,0.0,0.0,0.0,0.0,0.0,0.0,0.0,0.0,0.0,0.0,0.0,0.0,0.0,0.0,0.0,0.0,0.0,0.0,0.0,0.0,0.0,0.0,0.0,0.0,0.0,0.0,0.0,2.5874,2.5305,2.4688,2.4191,2.4164,2.3947,2.3376,2.3838,2.4177,2.415,2.4707,2.5033,2.5005,2.5005,2.5219,2.567,2.5103,2.5271,2.6258,2.4519,2.3653,2.3673,2.177,2.0587,2.0052,1.9376,1.9066,1.9066,1.904,1.904,1.904,1.904,1.904,1.8987,1.8375,1.8379,1.8572,1.7573,1.7132,1.6857,0.0,0.0,1.0801,1.112,1.1392,1.2122,1.3794,1.4331,1.5098,1.6661,1.7167,1.7268,1.6985,1.6891,1.6737,1.6451,1.6843,1.711,1.7117,0.0,1.8116,1.8059,1.8222,1.8218,1.8061,1.805,1.8033,1.8061,1.8008,1.7732,1.7273,1.7273,1.7065,1.667,1.667,1.6552,1.6353,1.6324,1.6105,1.5741,1.584,1.5878,1.5995,0.0,0.0,0.0,0.0,0.0,0.0,0.0,0.0,0.0,0.0,0.0,0.0,0.0,0.0,0.0,0.0,0.0,0.0,0.0,0.0,0.0,0.0,0.0,0.0,0.0,0.0,0.0,0.0,0.0,0.0,0.0,2.5851,2.5771,2.5299,2.5773,2.5971,2.5383,2.5726,2.5914,2.5743,2.5885,2.5813,2.5437,2.5549,2.5453,2.5033,2.5005,2.5058,2.5192,2.503,2.5082,2.5349,2.4767,2.4266,2.3841,2.2769,2.194,2.1342,2.0681,2.0385,2.036,2.0271,2.0233,2.0207,1.9759,1.9837,2.0131,1.9133,1.8565,1.8312,1.8024,1.7447,1.6679,0.0,1.0656,1.1003,1.1282,1.1829,1.2694,1.4065,1.479,1.5657,1.6995,1.7474,1.7501,1.6939,1.672,1.6565,1.6498,1.6702,1.7052,1.7535,0.0,1.8259,1.8218,1.8406,1.8475,1.8435,1.8475,1.8475,1.8435,1.8435,1.8249,1.7881,1.7881,1.7648,1.7248,1.7248,1.7101,1.6853,1.6828,1.6657,1.6431,1.6725,1.6716,1.6684,1.7857,1.8216,1.8086,1.806,1.8034,1.7981,1.7673,0.0,0.0,0.0,0.0,0.0,0.0,0.0,0.0,0.0,0.0,0.0,0.0,0.0,0.0,0.0,0.0,0.0,0.0,0.0,0.0,0.0,0.0,0.0,0.0,2.7137,2.6941,2.6302,2.6495,2.6575,2.6309,2.6512,2.6704,2.6704,2.6704,2.6587,2.627,2.6244,2.6068,2.5742,2.5495,2.548,2.5714,2.524,2.5249,2.5765,2.5177,2.473,2.4351,2.3366,2.2563,2.1962,2.1251,2.0949,2.0949,2.0825,2.0787,2.0799,2.0359,2.0423,0.0,0.0,0.0,0.0,0.0,1.8196,1.7232,0.0,1.0932,1.127,1.1468,1.2422,1.3447,1.4369,1.5381,1.6373,1.7321,0.0,1.7845,1.7134,1.6641,1.6552,1.7047,1.6667,1.7003,0.0,0.0,0.0,1.8524,1.8553,1.8563,1.8563,1.8563,1.8563,1.8563,1.8563,1.8524,1.8463,1.8463,1.8294,1.8048,1.8048,1.7772,1.732,1.7256,1.7085,1.6898,1.7633,1.7592,1.7224,1.8299,1.8598,1.8391,1.8386,1.8372,1.8372,1.8313,0.0,0.0,0.0,0.0,0.0,0.0,0.0,0.0,0.0,0.0,0.0,0.0,0.0,0.0,0.0,0.0,0.0,0.0,0.0,0.0,0.0,0.0,0.0,0.0,2.852,2.8645,2.8119,2.7395,2.6994,2.7085,2.7004,2.6912,2.6886,2.6901,2.686,2.6808,2.6782,2.6756,2.6704,0.0,0.0,0.0,0.0,2.5722,2.6772,2.5735,2.512,2.4969,2.3783,2.2834,2.2183,2.1507,2.1204,2.1204,2.1109,2.1084,2.1082,2.0898,2.0837,2.0838,2.0093,2.013,2.0504,1.9852,1.8976,1.8087,0.0,1.0956,1.1282,1.1538,1.2606,1.3677,1.4465,1.5564,1.6659,1.7608,1.8001,1.7977,1.7462,1.7406,1.6968,1.5868,1.6926,1.7959,0.0,0.0,1.8742,1.8742,1.8905,1.8984,1.8984,1.8984,1.8984,1.8984,1.8984,1.8896,1.8723,1.8723,1.859,1.8315,1.8315,1.8236,1.8086,1.8076,1.7885,1.7715,1.9302,1.931,1.8423,1.9198,1.9816,2.0261,2.016,2.0126,2.0041,1.9614,1.9474,1.9528,1.9778,0.0,0.0,0.0,0.0,0.0,0.0,0.0,0.0,0.0,0.0,0.0,0.0,0.0,0.0,0.0,0.0,0.0,0.0,0.0,0.0,2.84,2.8334,2.8397,2.88,2.8646,2.8419,2.8286,2.8253,2.8195,2.8073,2.8088,2.786,2.7388,2.7363,2.7159,2.673,2.6599,2.6592,2.6707,2.6486,2.649,2.6707,2.649,2.5859,2.483,0.0,0.0,2.2744,2.2477,2.2374,2.2351,2.2235,2.1969,2.164,2.1616,2.1315,2.0823,2.0079,1.9859,1.9852,1.8806,1.8283,1.8022,1.173,1.2124,1.2492,1.2754,1.3768,1.4733,1.5222,1.6205,1.7109,1.7726,1.8023,1.8014,1.7507,1.7634,1.7475,1.6758,1.7895,0.0,0.0,1.9115,1.9146,1.9146,1.9204,1.9269,1.9297,1.9269,1.9246,1.9246,1.9246,1.9198,1.9109,1.9109,1.899,1.8753,1.8753,1.8643,1.8454,1.8417,1.85,1.8734,1.9636,2.0069,2.0237,2.0611,2.0766,2.0794,2.0712,2.0696,2.0647,2.0383,2.03,2.039,2.0883,2.1299,2.1804,0.0,0.0,0.0,0.0,0.0,0.0,0.0,0.0,0.0,0.0,0.0,0.0,0.0,0.0,2.8983,2.9684,0.0,2.9586,3.0291,2.9698,2.9287,2.9595,2.9273,2.8959,2.8771,2.8716,2.866,2.8604,2.8541,2.8381,2.8067,2.8008,2.782,2.757,2.7261,2.7093,2.7093,2.6834,2.6704,2.6704,2.6704,2.6065,2.4815,2.4815,2.4147,2.2889,2.2822,2.2799,2.2799,2.2649,2.2526,2.2342,2.2273,2.203,2.1643,2.095,2.0328,1.9743,1.9302,1.8822,1.843,1.2969,1.3607,1.3961,1.4,1.4878,1.5678,1.5965,1.6804,1.7502,1.7828,1.8078,1.8136,1.7941,1.8135,1.8336,0.0,0.0,0.0,0.0,1.9603,1.968,1.9518,1.9448,1.9441,1.9492,1.9427,1.9409,1.9431,1.9409,1.9402,1.9402,1.9575,1.9571,1.9418,1.9565,1.9499,1.9246,1.9183,1.9466,1.9982,2.0113,2.0822,2.1861,2.203,2.1728,2.1166,2.1103,2.1103,2.1087,2.1023,2.099,2.1118,2.1789,2.2402,2.3099,2.4515,2.4882,0.0,0.0,0.0,0.0,0.0,0.0,0.0,0.0,2.7472,2.8244,2.7787,2.8805,3.0002,3.0797,3.0741,3.0931,3.1928,3.1137,3.0362,3.022,2.969,2.9233,2.8982,2.8881,2.8803,2.8794,2.8684,2.8636,2.8636,2.8541,2.8484,2.8484,2.8008,2.7705,2.7705,2.7261,2.703,2.703,2.703,2.6384,2.509,2.5105,2.4429,2.3179,2.3179,2.3179,2.3157,2.2965,2.2957,2.3024,2.2807,2.2649,2.25,2.1974,2.1005,1.9984,2.0063,1.9475,1.8768,0.0,1.4844,1.496,1.4139,1.4841,1.5626,1.5949,1.6804,1.7584,1.8093,1.8177,1.8618,1.9676,1.9876,2.0019,0.0,0.0,0.0,1.9394,2.0245,2.0376,1.9536,1.9485,1.9485,1.9492,1.9427,1.9427,1.9479,1.9427,1.9402,1.942,2.0189,2.054,2.0543,2.1272,2.157,2.1537,2.151,2.1557,2.168,2.2283,2.2437,2.2378,2.2923,2.2905,2.2534,2.2244,2.2133,2.2093,2.1779,2.1676,2.1823,2.255,2.303,2.3599,2.5005,2.5532,2.5549,2.4959,2.4552,2.4755,2.6611,2.7927,2.8452,0.0,2.8369,2.9781,3.0058,3.0274,3.0752,3.1902,3.2092,3.1896,3.1413,3.1191,3.0875,3.0283,3.0141,2.9832,2.9154,2.8982,2.8865,2.8818,2.8794,2.8771,2.8771,2.8771,2.8747,2.8747,2.8573,2.8477,2.8477,2.8308,2.821,2.821,2.821,2.7498,2.6138,2.6191,2.5487,2.4156,2.4156,2.4156,2.4114,2.3696,2.3508,2.3486,2.3068,2.2799,2.2659,2.2402,2.1575,2.0437,1.9875,1.918,1.8534,0.0,1.4634,1.5065,1.5158,1.5666,1.619,1.6528,1.7043,1.7537,1.7916,1.8042,1.8481,1.9558,2.0382,2.0943,0.0,0.0,0.0,2.0306,2.0809,2.0726,1.9828,1.9787,1.9787,1.979,1.9757,1.9989,2.0483,2.0413,2.0642,2.1149,2.1475,2.164,2.1659,2.1988,2.2081,2.2027,2.2027,2.224,2.2621,2.2822,2.3095,2.3404,2.3545,2.3493,2.3311,2.2695,2.2459,0.0,0.0,2.2275,2.2383,2.3045,2.3604,2.4281,2.5583,2.5693,2.523,2.4482,2.5176,2.6199,2.6602,2.7611,2.8454,2.8261,2.9376,3.0419,3.0145,3.0644,3.1286,3.1803,3.2123,3.2425,3.2823,3.252,3.2088,3.1667,3.1264,3.0744,3.0006,2.9617,2.9312,2.8998,2.8905,2.8858,2.8858,2.8826,2.8794,2.8794,2.8747,2.8708,2.8708,2.8589,2.8517,2.8517,2.8444,2.7719,2.6364,2.6349,2.5604,2.4302,2.4302,2.4302,2.4281,2.4094,2.4015,2.3994,2.3803,2.3681,2.3629,2.3528,2.2932,2.1982,2.0828,1.982,1.9097,0.0,1.4223,1.4981,1.574,1.6134,1.6488,1.6841,1.7117,1.7451,1.7927,1.8138,1.8726,2.0003,2.1034,2.1739,2.2026,0.0,0.0,0.0,2.1701,2.1488,2.0406,2.0592,2.0606,2.0368,2.0576,2.0977,2.1588,2.1518,2.1809,2.2426,2.2607,2.2679,2.2677,2.2896,2.294,2.2813,2.2813,2.3095,2.3537,2.3399,2.3676,2.4142,2.3947,2.3837,2.3703,2.3033,2.2911,0.0,0.0,2.2937,2.3298,2.3504,2.4206,2.5091,2.5849,2.568,2.5212,2.521,2.6045,2.685,2.6571,2.7412,2.837,2.8639,2.9741,3.0658,3.0472,3.0967,3.1653,3.2432,3.266,3.307,3.4178,3.386,3.3294,3.2679,3.2188,3.153,3.0597,3.0204,2.9859,2.9522,2.9159,2.8967,2.8967,2.8905,2.8873,2.8873,2.885,2.8826,2.8826,2.8708,2.866,2.866,2.8517,2.7766,2.6432,2.6371,2.5604,2.4302,2.4302,2.4364,2.4472,2.4472,2.4533,2.4619,2.4619,2.4619,2.4619,2.4619,2.4193,2.3433,2.2366,2.1194,2.0188,0.0,0.0,1.4799,1.5404,1.5783,1.615,1.6541,1.6841,1.7374,1.8352,1.8699,1.9676,2.1792,2.2271,2.26,2.2923,2.3081,2.289,2.2208,2.3081,2.2924,2.1333,2.2076,2.2133,2.1282,2.2011,2.2467,2.2551,2.2486,2.2481,2.2519,2.3297,2.3612,2.3582,2.4386,2.4693,2.4625,2.4625,2.4625,2.4647,2.4508,2.4382,2.4275,2.4142,2.3976,2.3746,2.3403,0.0,0.0,0.0,2.374,2.4783,2.4033,2.483,0.0,2.5625,2.5512,2.5883,2.7771,2.7127,2.6162,2.7028,2.8169,2.883,2.7938,2.9025,3.0575,3.177,3.1493,3.1816,3.4498,3.4322,3.4008,3.4832,3.483,3.4223,3.279,3.2575,3.205,3.0663,3.0497,3.0477,0.0,2.9633,2.9075,2.9075,2.9075,2.9091,2.9091,2.8967,2.8881,2.8881,2.8834,2.8794,2.8794,2.866,2.7899,2.6503,2.6432,2.5656,2.4302,2.4302,2.4513,2.4883,2.4883,2.5102,2.5465,2.5465,2.5465,2.5465,2.5465,2.5047,2.4468,2.4419,2.3335,2.1751,0.0,0.0,0.0,1.5181,1.5507,1.5797,1.6205,1.6686,1.7362,1.8373,1.9706,0.0,0.0,0.0,0.0,0.0,2.3896,2.3663,2.2914,2.3397,2.3202,2.2071,2.2391,2.2459,2.2173,2.2468,2.292,2.3523,2.3509,2.3797,2.4366,2.4591,2.4636,2.455,2.4763,2.484,2.4757,2.4723,2.5027,2.5496,2.4785,2.4733,2.5023,2.4345,2.4304,2.4581,0.0,0.0,0.0,2.4135,2.4515,2.4963,2.51,2.5737,2.6252,2.5261,2.5654,2.6351,2.6015,2.6638,2.7316,2.7148,2.7777,2.8339,2.7981,2.8712,2.9581,3.0019,3.0581,3.1294,3.221,3.3232,3.4114,3.4704,3.5132,3.4991,3.3833,3.4034,3.3584,3.1592,3.1559,3.1479,3.0938,0.0,0.0,3.0032,3.0032,3.0032,3.0032,2.9973,2.9951,2.9951,2.9859,2.981,2.981,2.9651,2.8882,2.7412,2.6471,2.5737,2.523,2.523,2.5253,2.5294,2.5294,2.537,2.5503,2.5503,2.5503,2.5503,2.5503,2.5357,2.51,2.4666,2.4416,2.4134,0.0,0.0,0.0,0.0,0.0,0.0,0.0,0.0,0.0,0.0,0.0,0.0,0.0,0.0,0.0,0.0,0.0,2.4125,2.365,0.0,2.3705,2.2893,2.3298,2.3389,2.3078,2.3434,2.39,2.4452,2.4495,2.4783,2.5337,2.5596,2.5636,2.5558,2.5793,2.5849,2.5754,2.5676,2.5941,2.6341,2.5319,2.5328,2.5835,2.4896,2.4894,0.0,0.0,0.0,0.0,2.5197,2.5324,2.5368,2.5751,2.5829,2.5731,2.5461,2.5863,2.6283,2.579,2.6878,2.796,2.7255,2.7576,2.8019,2.7822,2.8217,2.8766,2.9334,3.033,3.125,3.1781,3.3386,3.4695,3.5009,3.562,3.5731,3.4807,3.4805,3.4347,3.284,3.261,3.2468,3.2207,3.1935,0.0,3.0572,3.075,3.0784,3.0514,3.0497,3.0497,3.0497,3.0414,3.0356,3.0356,2.995,2.8981,2.7483,2.6358,2.5781,2.5742,2.5742,2.576,2.5834,2.5834,2.5888,2.5997,2.5997,2.5979,2.5926,2.5926,2.5926,2.5877,2.5451,2.5567,2.5711,0.0,0.0,0.0,0.0,0.0,0.0,0.0,0.0,0.0,0.0,0.0,0.0,0.0,0.0,0.0,0.0,0.0,0.0,0.0,0.0,0.0,2.379,2.4675,2.4798,2.397,2.4847,2.5311,2.5311,2.5374,2.541,2.543,2.6182,2.6501,2.6472,2.7217,2.7504,2.7431,2.7297,2.7242,2.716,2.615,2.6163,2.6655,2.5756,0.0,0.0,0.0,0.0,0.0,2.624,2.6128,2.6075,2.6063,2.5312,2.4728,2.6182,2.6121,2.5848,2.7046,2.7779,2.8049,2.74,2.763,2.7896,2.7511,2.7569,2.8157,2.9772,3.0685,3.1668,3.3213,3.4735,3.5762,3.5762,3.633,3.6475,3.5675,3.4944,3.4436,3.4235,3.3628,3.3452,3.4064,3.4148,3.3177,3.0808,0.0,3.1349,3.0613,3.058,3.058,3.058,3.058,3.058,3.058,2.96,2.8392,2.6934,2.6217,2.5873,2.5873,2.5873,2.607,2.6435,2.6435,2.6607,2.6909,2.6909,2.6825,2.6708,2.6674,2.6674,2.6708,2.6674,2.6674,2.6421,0.0,0.0,0.0,0.0,0.0,0.0,0.0,0.0,0.0,0.0,0.0,0.0,0.0,0.0,0.0,0.0,0.0,0.0,0.0,0.0,0.0,0.0,0.0,2.493,2.488,2.5154,0.0,0.0,0.0,2.541,2.541,2.5603,2.5645,2.5532,2.565,2.5964,2.6439,2.6373,2.6964,2.7877,0.0,2.6948,2.7398,0.0,0.0,0.0,0.0,0.0,0.0,2.659,2.6579,2.7037,2.6926,2.669,2.6519,2.6801,2.6757,2.6685,2.7009,2.7628,2.8132,2.7864,2.7896,2.7925,2.7672,2.7657,2.8157,2.9772,3.0685,3.1668,3.3213,3.5231,3.6669,3.6669,3.7236,3.7402,3.6581,3.6257,3.5675,3.449,3.4621,3.4649,3.4211,3.4636,3.4186,0.0,3.2457,3.2234,3.15,3.1466,3.1466,3.1466,3.1466,3.1466,3.1466,3.0078,2.9208,2.8799,2.7521,2.6858,2.6757,2.6757,2.6808,2.6842,2.6842,2.6909,2.6958,2.6958,2.6958,2.6857,2.6312,2.6431,2.6857,2.6312,2.6448,2.6841,0.0,0.0,0.0,0.0,0.0,0.0,0.0,0.0,0.0,0.0,0.0,0.0,0.0,0.0,0.0,0.0,0.0,0.0,0.0,0.0,0.0,0.0,0.0,2.4821,2.5019,2.5068,2.5143,0.0,0.0,0.0,0.0,2.5688,2.5793,2.5751,2.632,2.6785,2.7121,2.7349,0.0,0.0,0.0,0.0,0.0,0.0,0.0,0.0,0.0,0.0,2.8455,2.7568,2.7079,2.685,2.6778,2.6754,2.6826,2.7094,2.7176,2.7248,2.7607,2.8021,2.8353,2.8205,2.8136,2.8142,2.8288,2.8273,2.8667,3.0264,3.1458,3.2476,3.3336,3.5671,3.7374,3.706,3.7579,3.7889,3.7434,3.6481,3.5601,3.5039,3.4981,3.494,3.4797,3.5079,3.4777,3.3567,3.3442,3.2938,3.1852,3.18,3.1645,3.1317,3.1317,3.1145,3.08,2.961,2.9023,2.9006,2.7851,2.7266,2.7184,2.7184,2.7169,2.7138,0.0,2.7088,2.7039,2.7039,2.704,2.6957,2.6547,2.6632,2.694,2.6547,2.6649,2.694,0.0,0.0,0.0,0.0,0.0,0.0,0.0,0.0,0.0,0.0,0.0,0.0,0.0,0.0,0.0,0.0,0.0,0.0,0.0,0.0,0.0,0.0,0.0,2.4527,2.4747,2.4764,2.4904,0.0,0.0,0.0,0.0,0.0,0.0,0.0,0.0,0.0,0.0,0.0,0.0,0.0,0.0,0.0,0.0,0.0,0.0,0.0,0.0,0.0,2.8851,2.8773,2.7682,2.6355,2.6355,2.6427,2.6663,2.7351,2.7568,2.7713,2.8419,2.86,2.8562,2.8419,2.8313,2.8352,2.8829,2.8928,2.94,3.1019,3.2494,3.3599,3.3915,3.6231,3.7935,3.7393,3.7742,3.8146,3.8251,3.6285,3.5073,3.5624,3.4993,3.4728,3.5312,3.53,3.4928,3.4112,3.3999,3.3319,3.1869,3.1714,3.13,3.0558,3.0524,3.0196,2.9506,2.8765,2.8403,2.8385,2.7644,2.7299,2.7299,2.7299,2.7299,2.7299,2.7299,0.0,2.7135,2.7135,2.7087,2.7024,2.6921,2.6938,2.7024,2.6921,2.6938,2.6921,0.0,0.0,0.0,0.0,0.0,0.0,0.0,0.0,0.0,0.0,1.904,2.0814,0.0,0.0,0.0,0.0,0.0,0.0,0.0,0.0,0.0,0.0,2.3984,2.4183,2.4535,2.4551,2.4575,2.4648,0.0,0.0,0.0,0.0,0.0,0.0,0.0,0.0,0.0,0.0,0.0,0.0,0.0,0.0,0.0,0.0,0.0,0.0,0.0,3.0912,3.0236,0.0,2.8425,2.7188,2.7188,2.764,2.8219,2.8346,2.8382,2.8419,2.8563,2.86,2.8562,2.8419,2.838,2.8336,2.8216,2.8644,2.9664,3.1772,3.288,3.409,3.6039,3.7321,3.8286,3.8813,3.8462,3.8339,3.8985,3.7093,3.5652,3.5773,3.5033,3.4556,3.4677,3.4615,3.4224,0.0,3.328,3.2843,3.1852,3.1214,3.0524,2.973,2.9713,2.9644,2.9506,2.8765,2.8403,2.8385,2.7644,2.7299,2.7299,2.7299,2.7299,2.7299,2.7299,0.0,2.7266,2.7266,2.725,2.7165,2.6528,2.6666,2.7165,2.6511,2.6683,2.7131,0.0,0.0,0.0,0.0,0.0,0.0,0.0,1.5945,1.6584,1.6321,1.8093,1.9602,2.0194,2.0783,2.126,0.0,0.0,0.0,0.0,0.0,0.0,0.0,0.0,2.3681,2.4128,2.4109,2.4219,2.4505,0.0,0.0,0.0,2.4844,2.5004,0.0,0.0,0.0,0.0,0.0,0.0,0.0,0.0,0.0,0.0,0.0,0.0,0.0,0.0,3.1482,3.0614,3.0754,2.9471,2.7831,2.7895,2.8139,2.8419,2.8471,2.8502,2.851,2.8574,2.86,2.8574,2.851,2.8445,2.8573,2.9155,2.9517,3.0472,3.3055,3.388,3.4705,3.6638,3.7602,3.8234,3.8599,3.8357,3.8234,3.8638,3.6689,3.5232,3.5232,3.4493,3.3984,3.3984,3.3909,3.3712,3.3292,3.2838,3.2346,3.1836,3.0696,2.9713,2.8954,2.8558,2.8541,2.892,2.8196,2.8023,2.8385,2.7644,2.7299,2.7299,2.7299,2.7299,2.7299,2.7299,0.0,2.728,2.6851,2.7011,2.7424,2.6658,2.6659,2.709,2.7136,2.6858,2.6426,0.0,0.0,0.0,0.0,0.0,0.0,0.0,1.5323,1.5944,1.5958,1.7132,1.8262,1.9045,1.9943,2.0632,0.0,0.0,0.0,0.0,0.0,0.0,0.0,0.0,2.3218,2.3628,0.0,0.0,2.4201,2.4409,0.0,0.0,0.0,0.0,0.0,2.685,2.7327,0.0,0.0,0.0,0.0,0.0,0.0,0.0,0.0,0.0,0.0,0.0,3.1858,3.1036,3.1604,3.0516,2.8891,2.8832,2.8528,2.8232,2.8353,2.8411,2.8437,2.8562,2.86,2.8636,2.8799,2.8776,2.9022,3.0222,3.066,3.1512,3.3952,3.4705,3.5355,3.6744,3.7461,3.7918,3.8076,3.8111,3.8164,3.8339,3.6391,3.4934,3.4934,3.3951,3.3266,3.3266,3.3213,3.3195,3.3248,3.2599,3.1969,3.1407,3.0196,2.9143,2.8211,2.7608,2.7575,2.8161,2.7592,2.7607,2.824,2.7669,2.7421,2.7465,2.7465,2.7465,2.7465,2.7465,0.0,0.0,2.6787,2.7023,2.7733,2.7148,2.7026,2.7219,2.7678,2.7148,2.6155,0.0,0.0,0.0,0.0,0.0,0.0,0.0,1.4418,1.477,1.484,1.6218,1.7395,1.7913,1.947,2.0514,0.0,0.0,0.0,0.0,0.0,0.0,0.0,0.0,0.0,0.0,0.0,0.0,2.323,2.4557,0.0,0.0,0.0,0.0,0.0,0.0,2.6694,2.6451,0.0,0.0,0.0,0.0,0.0,0.0,0.0,0.0,0.0,0.0,3.2401,3.2304,3.1664,3.1328,3.106,3.0353,2.9236,2.8232,2.8353,2.8411,2.8437,2.8562,2.86,2.8781,2.9513,2.9681,2.9818,3.0373,3.1569,3.2774,3.3477,3.4723,3.5969,3.6849,3.706,3.7323,3.7988,3.8111,3.8374,3.9094,3.7161,3.5687,3.5687,3.381,3.2493,3.2493,3.2511,3.2562,3.2743,3.2623,3.1788,3.0072,2.9796,2.9001,2.7532,2.7365,2.7333,2.7385,2.7333,2.7456,2.7762,2.7692,2.78,2.8034,2.8034,2.8034,2.8034,2.8034,0.0,0.0,2.7962,2.7976,2.8061,2.8004,2.7968,2.7924,2.7255,2.738,2.7585,0.0,0.0,0.0,0.0,0.0,0.0,1.4266,1.39,1.3826,1.4544,1.55,1.6472,1.7335,1.8984,2.0173,2.0585,0.0,0.0,0.0,0.0,0.0,0.0,0.0,0.0,0.0,0.0,2.4,2.4366,2.4012,0.0,0.0,0.0,0.0,0.0,0.0,2.7046,2.687,0.0,0.0,0.0,0.0,0.0,0.0,0.0,0.0,0.0,0.0,0.0,3.1584,3.1993,3.1479,3.0691,3.0961,3.0254,2.9266,2.893,2.8887,2.8859,2.8558,2.8536,2.8781,2.9603,2.9737,2.9944,3.0987,3.1971,3.296,3.4004,3.5056,3.6057,3.6849,3.7007,3.7095,3.7393,3.7426,3.7532,3.7865,3.6689,3.5634,3.5197,3.3915,3.2949,3.2674,3.2638,3.275,3.3032,3.2604,3.1775,3.0529,3.0174,2.9283,2.7754,2.7844,2.7883,2.7844,2.7844,2.7886,2.794,2.794,2.7992,2.8102,2.8102,2.8102,2.8102,2.8102,0.0,0.0,2.7629,2.7825,2.835,2.7871,2.7779,2.7943,2.8094,2.7749,2.706,0.0,0.0,0.0,0.0,0.0,1.3496,1.398,1.3515,1.3466,1.4455,1.51,1.5892,1.7019,1.8506,1.9697,2.0375,2.0912,0.0,0.0,0.0,0.0,0.0,0.0,0.0,0.0,0.0,2.3806,2.4545,2.3704,2.4062,0.0,0.0,2.6069,2.662,0.0,0.0,0.0,0.0,0.0,0.0,0.0,0.0,0.0,0.0,0.0,0.0,0.0,0.0,0.0,0.0,0.0,3.0895,3.1553,3.131,0.0,2.9713,2.9355,2.9151,2.877,2.8612,2.8789,2.9845,3.0017,3.0363,3.1992,3.2847,3.3599,3.4777,3.5636,3.6338,3.6902,3.7007,3.7007,3.7007,3.7183,3.7341,3.7341,3.6654,3.5952,3.5444,3.4266,3.3406,3.3191,3.3111,3.3136,3.3291,3.2653,3.1851,3.0948,3.0445,2.9508,2.8101,2.8206,2.8272,2.8237,2.8237,2.825,2.8272,2.8272,2.8324,2.842,2.8394,2.8412,2.8394,2.8368,0.0,0.0,2.7805,2.8044,2.8664,2.8088,2.7992,2.8172,2.8253,2.7721,2.6851,0.0,0.0,0.0,0.0,0.0,0.0,1.281,1.3265,1.3838,1.4516,1.5065,1.5803,1.6886,1.8094,1.9067,1.9746,2.0724,0.0,0.0,0.0,0.0,0.0,0.0,0.0,0.0,0.0,2.3083,2.3028,2.3793,2.5075,2.679,2.719,2.7405,2.7506,0.0,0.0,0.0,0.0,0.0,0.0,0.0,0.0,0.0,0.0,0.0,0.0,0.0,0.0,0.0,0.0,0.0,0.0,0.0,3.2371,0.0,0.0,2.9723,2.913,2.9258,2.8859,2.8788,3.0394,3.0743,3.1264,3.3471,3.4444,3.5048,3.5655,3.6426,3.6989,3.7007,3.7007,3.7007,3.7007,3.7602,3.8093,3.8093,3.7444,3.6989,3.6989,3.4934,3.3635,3.3958,3.3865,3.3652,3.3335,3.2862,0.0,3.0962,3.039,2.9575,2.8425,2.8337,2.8298,2.8298,2.8298,2.8422,2.87,2.87,2.8867,2.9189,2.9112,2.9078,2.9096,0.0,0.0,0.0,2.8975,2.8994,2.8994,2.8987,2.8987,2.8803,2.7207,2.7126,2.7449,0.0,0.0,0.0,0.0,0.0,0.0,0.0,1.3422,1.3743,1.4327,1.489,1.5666,1.674,1.7931,1.8916,1.947,2.0316,0.0,0.0,0.0,0.0,0.0,0.0,0.0,0.0,0.0,2.2943,2.3065,2.2298,2.2871,2.4684,2.4764,2.5291,2.6138,2.6206,2.6074,0.0,0.0,0.0,0.0,0.0,0.0,0.0,0.0,0.0,0.0,0.0,0.0,0.0,0.0,0.0,0.0,0.0,0.0,0.0,3.1876,3.1236,3.0572,3.012,2.992,3.0091,3.116,3.1711,3.233,3.3576,3.473,3.5569,3.5759,3.6443,3.7007,3.7007,3.7007,3.7007,3.7007,3.72,3.7358,3.7358,3.6671,3.6064,3.574,3.4523,3.3745,3.3847,3.3984,3.3796,3.3135,3.2453,3.1651,3.0738,3.0013,2.9362,2.8833,2.8973,2.903,2.8973,2.8973,2.8996,2.9041,2.9041,2.9104,2.92,2.9167,2.9167,0.0,0.0,0.0,0.0,2.9152,2.9152,2.9152,2.9152,2.8809,2.8253,2.7748,2.7332,2.6853,0.0,0.0,0.0,0.0,0.0,0.0,0.0,1.3371,1.3811,1.4134,1.4907,1.5765,1.6694,1.7652,1.8551,1.9321,2.0048,0.0,0.0,0.0,0.0,0.0,0.0,0.0,0.0,2.2748,2.2806,2.245,2.2028,2.2631,2.4202,2.4157,2.4766,2.5928,2.5928,2.5751,0.0,0.0,0.0,0.0,0.0,0.0,0.0,0.0,0.0,0.0,0.0,0.0,0.0,0.0,0.0,0.0,0.0,0.0,0.0,0.0,3.1916,3.1439,3.0799,3.0535,3.0622,3.142,3.2106,3.2873,3.3969,3.5045,3.588,3.6197,3.6656,3.7009,3.7105,3.7124,3.7143,3.7203,3.7163,3.7163,3.728,3.6419,3.5521,3.4779,3.4413,3.4105,3.3825,3.3771,3.3528,3.3039,3.1979,3.1125,3.0623,2.9842,2.9315,2.9156,2.9315,2.9386,2.9344,2.9344,2.9323,2.9283,2.9283,2.9283,2.9272,2.9251,2.924,0.0,0.0,0.0,0.0,2.92,2.92,2.92,2.92,2.8716,2.7957,2.7635,2.696,2.613,0.0,0.0,0.0,0.0,0.0,0.0,0.0,1.3174,1.3984,1.4004,1.5074,1.6089,1.6768,1.7326,1.8129,1.9331,0.0,0.0,0.0,0.0,0.0,0.0,0.0,0.0,0.0,2.2571,2.2585,2.1395,2.2585,2.374,2.4802,2.4847,2.5433,2.647,2.647,2.6085,0.0,0.0,0.0,0.0,0.0,0.0,0.0,0.0,0.0,0.0,0.0,0.0,0.0,0.0,0.0,0.0,0.0,0.0,0.0,0.0,0.0,0.0,0.0,3.0871,3.0627,3.1367,3.2129,3.3033,3.4465,3.5273,0.0,3.6693,3.6904,3.6997,3.7189,3.728,3.7372,3.7576,3.7394,3.7358,3.7667,3.6576,3.5295,3.4132,3.4497,3.4578,3.3829,3.3303,3.2946,3.2853,3.144,3.0586,3.0511,2.9805,2.9396,2.9396,2.9396,2.9396,2.9396,2.9396,2.9396,2.9396,2.9396,2.9396,2.9396,2.9334,2.9312,0.0,0.0,0.0,0.0,2.9211,2.9211,2.9211,2.9211,2.8672,2.783,2.7009,2.6178,2.5328,0.0,0.0,0.0,0.0,0.0,0.0,0.0,0.0,0.0,0.0,1.5274,1.6467,1.7195,1.775,1.8485,0.0,0.0,0.0,0.0,0.0,0.0,0.0,0.0,0.0,0.0,2.1684,2.1684,2.1393,2.1705,2.2194,2.2879,2.334,2.4176,2.5292,2.5292,2.5165,0.0,0.0,0.0,0.0,0.0,0.0,0.0,0.0,0.0,0.0,2.8563,2.9028,0.0,0.0,0.0,0.0,0.0,0.0,0.0,0.0,3.1747,3.1878,3.1776,0.0,3.1947,3.214,3.2738,3.3389,0.0,3.4408,3.5041,3.5329,3.5878,3.6376,3.6559,3.7112,3.754,3.7577,3.7041,3.6684,3.6945,3.5976,3.4929,3.4036,3.4231,3.4136,3.3349,3.3101,3.25,3.1255,3.0809,3.0326,2.9712,2.9489,2.9396,2.9396,2.9396,2.9396,2.9396,2.9396,2.9396,2.9396,2.9396,2.9396,2.9396,2.9386,2.9376,0.0,0.0,0.0,2.9347,2.9347,2.9347,2.9347,2.9347,2.8445,2.7128,2.6924,2.594,2.4706,0.0,0.0,0.0,0.0,0.0,0.0,0.0,0.0,0.0,0.0,0.0,0.0,0.0,0.0,0.0,0.0,0.0,0.0,0.0,0.0,0.0,0.0,0.0,0.0,2.1261,2.19,2.19,2.1248,2.2155,2.2325,2.1807,2.2937,2.3841,2.4568,2.5094,2.5284,0.0,0.0,0.0,0.0,0.0,0.0,0.0,0.0,0.0,0.0,2.761,2.8282,0.0,2.8936,2.9769,3.0773,0.0,0.0,0.0,0.0,3.1485,3.1728,3.1728,3.2298,3.2897,3.2897,3.3476,3.4056,3.4056,3.4389,3.4743,3.4871,3.5243,3.5758,3.6433,3.688,3.7345,3.7809,3.7198,3.6456,3.5842,3.5523,3.5025,3.4052,3.3857,3.3619,0.0,3.2393,3.157,3.0711,3.0283,2.9855,2.9427,2.9388,2.9396,2.9396,2.9396,2.9396,2.9396,2.9396,2.9396,2.9396,2.9396,2.9396,2.9396,2.9396,2.9396,0.0,0.0,0.0,2.9396,2.9396,2.9396,2.9359,2.8951,2.8021,2.6851,2.6479,2.5559,2.45,0.0,0.0,0.0,0.0,0.0,0.0,0.0,0.0,0.0,0.0,0.0,0.0,0.0,0.0,0.0,0.0,0.0,0.0,0.0,0.0,0.0,0.0,0.0,2.1121,2.1255,2.243,2.2497,2.1399,2.2964,2.2963,2.1486,2.2873,2.3725,2.414,2.5185,2.576,0.0,0.0,0.0,0.0,0.0,0.0,0.0,0.0,0.0,0.0,0.0,0.0,0.0,2.8525,2.9417,3.0506,3.0506,0.0,0.0,0.0,0.0,0.0,3.1485,3.2589,3.3653,3.3335,3.3915,3.4531,3.439,3.4391,3.4464,3.4571,3.4818,3.5313,3.6355,3.6656,3.703,3.7917,3.7339,3.6249,3.4757,3.5019,3.4992,3.4006,3.3383,0.0,3.2773,3.1507,3.0648,3.0522,2.9832,2.9423,2.9423,2.9419,2.9388,2.9388,2.9407,2.9396,2.9396,2.9396,2.9396,2.9396,2.9396,2.9322,2.9211,2.9341,2.9322,2.9211,0.0,0.0,2.9396,2.9396,2.9322,2.9118,2.8393,2.7538,2.6628,2.5949,2.5187,2.45,0.0,0.0,0.0,0.0,0.0,0.0,0.0,0.0,0.0,0.0,0.0,0.0,0.0,0.0,0.0,0.0,0.0,0.0,0.0,0.0,0.0,0.0,2.0723,2.0862,2.1907,2.2153,2.2438,2.2786,2.2637,2.2415,2.214,2.1897,2.2619,2.4115,2.4761,2.5643,2.6617,0.0,0.0,0.0,0.0,0.0,0.0,0.0,0.0,0.0,0.0,0.0,0.0,2.9069,2.9794,3.0506,3.0506,0.0,0.0,0.0,0.0,0.0,3.1485,3.3099,3.4358,3.2596,3.3055,3.3741,3.2932,3.2962,3.3176,3.3208,3.4375,3.5526,3.5867,3.6494,3.7064,3.7395,3.6486,3.5384,3.4395,3.3959,3.3674,3.3437,0.0,3.1975,3.1235,3.0876,3.0416,2.9744,2.9557,2.9482,2.9482,2.9423,2.9392,2.9392,2.9399,2.9396,2.9396,2.9396,2.9396,2.9396,2.9396,2.9006,2.8319,2.9062,2.8988,2.8337,0.0,2.9396,2.9396,2.9396,2.8969,2.8282,2.8152,2.7185,2.5875,2.5745,2.5187,2.4517,0.0,0.0,0.0,0.0,0.0,0.0,0.0,0.0,0.0,0.0,0.0,0.0,0.0,0.0,0.0,0.0,0.0,0.0,0.0,0.0,0.0,2.1404,2.1039,2.1148,2.1825,2.1407,2.1468,2.2039,2.1637,2.1241,2.0921,2.1615,2.2905,2.461,2.5184,2.5761,2.6312,2.6341,0.0,0.0,0.0,0.0,0.0,0.0,0.0,0.0,0.0,0.0,0.0,0.0,2.9599,3.0506,3.0506,0.0,0.0,0.0,0.0,0.0,3.0641,3.1991,3.3264,3.2824,3.397,3.5083,3.4659,3.4371,3.4218,3.4281,3.4936,3.5697,3.6331,3.6492,3.6474,3.6348,3.5873,3.5094,3.3938,3.3551,3.3221,0.0,0.0,3.1285,3.0834,3.0422,2.9991,2.9569,2.955,2.955,2.955,2.9482,2.9453,2.9453,2.9451,2.9431,2.9401,2.9401,2.9409,2.9396,2.9396,2.8932,2.8114,2.8505,2.8244,2.7501,0.0,2.869,2.8728,2.9211,2.9155,2.8765,2.8282,2.7371,2.6256,2.5451,2.4971,2.4727,0.0,0.0,0.0,0.0,0.0,0.0,0.0,0.0,0.0,0.0,0.0,0.0,0.0,0.0,0.0,0.0,0.0,0.0,0.0,0.0,2.0943,2.1572,2.1464,2.1343,2.1212,2.0744,2.0572,2.0742,2.0391,2.0059,1.9731,2.14,2.3051,2.4607,2.5356,2.5784,2.5948,2.6527,2.6806,0.0,0.0,0.0,0.0,0.0,0.0,0.0,0.0,0.0,0.0,0.0,0.0,0.0,0.0,0.0,0.0,2.9383,2.9385,2.9654,2.973,3.0896,3.2301,3.309,3.457,3.5846,3.5846,3.5342,3.487,3.4932,3.5287,3.5802,3.6582,3.6416,3.5942,3.5261,3.5082,3.4629,3.3537,3.3052,3.2564,3.1898,3.111,3.0602,3.0554,3.002,2.9683,2.9626,2.9617,2.9617,2.9617,2.956,2.9512,2.9512,2.9502,2.9472,2.9423,2.9226,2.9214,2.9407,2.9192,2.8653,2.7817,2.7817,2.7371,2.6665,2.7464,2.7929,2.8152,2.882,2.8969,2.8756,2.8098,2.727,2.6288,2.5166,2.4825,2.4955,0.0,0.0,0.0,0.0,0.0,0.0,0.0,0.0,0.0,0.0,0.0,0.0,0.0,0.0,0.0,0.0,0.0,0.0,0.0,0.0,2.1258,2.2113,2.1668,2.0981,2.0122,2.0536,2.0404,1.961,1.9092,1.9144,1.9731,2.0978,2.2204,2.339,2.4538,2.537,2.5948,2.6527,2.6806,2.6806,0.0,0.0,0.0,0.0,0.0,0.0,0.0,0.0,0.0,0.0,0.0,0.0,0.0,0.0,2.9367,2.8674,2.8672,2.8918,2.9172,3.082,3.2555,3.2857,3.3547,3.4188,3.4239,3.389,3.35,3.3312,3.4612,3.5804,3.5858,3.6153,3.5883,3.4362,3.3794,3.3529,3.3408,0.0,3.1062,3.0987,3.0283,2.9777,2.9777,2.972,2.9701,2.9683,2.9701,2.9701,2.9701,2.9626,2.9598,2.9598,2.954,2.9492,2.9492,2.8687,2.8666,2.9378,2.8579,2.7761,2.6981,2.6981,2.6553,2.5838,2.6628,2.7408,2.8096,2.817,2.7743,2.7093,2.7147,2.6304,2.5026,2.4919,2.4962,2.5097,0.0,0.0,0.0,0.0,0.0,0.0,0.0,0.0,0.0,0.0,0.0,0.0,0.0,0.0,0.0,0.0,0.0,0.0,0.0,0.0,2.0701,2.117,2.1332,2.0771,1.9419,1.934,1.8941,1.8188,1.841,1.925,2.0712,2.1487,2.2326,2.3195,2.4042,2.458,2.4808,2.5412,2.5907,2.6233,2.6233,0.0,0.0,0.0,0.0,0.0,0.0,0.0,0.0,0.0,2.8194,2.874,0.0,2.8575,2.8641,2.7912,2.792,2.8195,2.8545,2.9361,3.0587,3.2539,3.2865,3.3131,3.4783,3.502,3.4865,3.4785,3.5304,3.5717,3.5473,3.5142,3.4641,3.3776,3.3042,3.2424,3.1926,3.1306,3.0706,3.0208,2.9889,2.9701,2.9701,2.9701,2.9476,2.8923,2.9382,2.9457,2.8923,2.9383,2.9655,2.9655,2.9636,2.9598,2.956,2.8736,2.8455,2.8706,2.7838,2.6991,2.6228,2.6228,2.5753,2.5001,2.5801,2.633,2.6646,2.7148,2.7242,2.7042,2.669,2.6209,2.578,2.5812,2.5918,2.6121,0.0,0.0,0.0,0.0,0.0,0.0,0.0,0.0,0.0,0.0,0.0,0.0,0.0,0.0,0.0,0.0,0.0,0.0,1.9195,1.9586,2.0028,2.0598,2.0791,2.0298,1.9023,1.8402,1.7859,1.7387,1.8311,1.9564,2.1152,2.1811,2.2446,2.3078,2.3708,2.4031,2.4147,2.495,2.5508,2.5921,2.6111,2.642,0.0,0.0,0.0,0.0,0.0,0.0,0.0,0.0,2.7448,2.8011,0.0,0.0,0.0,0.0,2.7426,2.7878,2.8332,2.9017,3.0066,3.1915,3.2175,3.2397,3.3924,3.4679,3.4969,3.4718,3.5123,3.5347,3.4807,3.4391,3.3827,3.3029,3.2233,3.1541,3.0987,3.0687,3.0321,2.9758,2.9701,2.9701,2.9701,2.9457,2.9157,2.8829,2.9119,2.9157,2.8829,2.9382,2.9701,2.9701,2.9701,2.9551,2.9223,2.8399,2.7857,2.7549,2.6691,2.6114,2.5788,2.5546,2.5108,2.4561,2.5111,2.5502,2.579,2.6365,2.6745,2.6877,2.6165,2.5939,2.6046,2.637,2.6545,2.6742,0.0,0.0,0.0,0.0,0.0,0.0,0.0,0.0,0.0,0.0,0.0,0.0,0.0,0.0,0.0,0.0,0.0,0.0,1.8834,1.8896,1.94,2.0538,2.0097,1.9567,1.9011,1.7977,1.7411,1.7399,1.8814,1.9956,2.0823,2.1695,2.2387,2.2927,2.3518,2.3901,2.4147,2.5342,2.5866,2.5948,2.6527,2.6779,0.0,0.0,0.0,0.0,0.0,0.0,0.0,0.0,2.6684,2.7149,0.0,0.0,0.0,2.6738,2.7267,2.8117,2.8655,3.0152,3.1439,3.0912,3.1484,3.1962,3.1179,3.2234,3.3158,3.2361,3.3617,3.4617,3.3835,3.3998,3.3711,3.2054,3.1289,3.0893,3.0893,3.0208,2.9701,2.9701,2.9701,2.9701,2.9701,2.8923,2.8754,2.9608,2.8885,2.8772,2.9626,2.9683,2.9683,2.9701,2.9683,2.9288,2.8426,2.7536,2.6739,2.6,2.5126,2.507,2.5757,2.4954,2.4607,2.4607,2.4607,2.5047,2.5811,2.5946,2.6143,2.6318,2.5502,2.5288,2.5514,2.6385,2.6703,2.6838,0.0,0.0,0.0,0.0,0.0,0.0,0.0,0.0,0.0,0.0,0.0,0.0,0.0,0.0,0.0,0.0,0.0,0.0,1.8024,1.8589,1.9164,1.9724,2.0136,2.0298,2.0141,1.9801,1.9107,1.7965,1.8766,1.9992,2.1587,2.2216,2.2501,2.2485,2.3069,2.3149,2.2894,2.3628,2.4192,2.4694,2.5273,2.5797,0.0,0.0,0.0,0.0,0.0,0.0,0.0,0.0,0.0,0.0,2.6268,0.0,0.0,2.6738,2.7369,2.8196,2.8115,2.871,2.9466,2.9967,3.0319,3.0455,3.0219,3.0962,3.1678,3.1596,3.1986,3.2373,3.2354,3.2001,0.0,3.1225,3.0545,3.0058,3.0058,2.9852,2.9701,2.9701,2.9701,2.9701,2.9701,2.9476,2.8932,2.8012,2.8781,2.8913,0.0,2.8472,2.9073,2.9683,2.9119,2.896,2.9307,2.789,2.7064,2.6837,2.5386,2.4818,2.5022,2.4778,2.4631,2.4607,2.4607,2.4784,2.5103,2.5336,2.5476,2.5546,2.5409,2.5354,2.5575,2.7007,2.7533,2.7668,0.0,0.0,0.0,0.0,0.0,0.0,0.0,0.0,0.0,0.0,0.0,0.0,0.0,0.0,0.0,0.0,0.0,0.0,0.0,0.0,1.8874,1.9515,2.0021,2.0286,2.0286,2.0286,1.9913,1.9155,1.9739,2.075,2.2108,2.25,2.2644,2.253,2.2643,2.2535,2.2309,2.2671,2.3067,2.3535,2.4558,2.5216,2.558,0.0,0.0,0.0,0.0,0.0,0.0,0.0,0.0,0.0,2.6202,0.0,2.6907,2.7129,2.8014,2.896,2.9259,2.9873,3.0369,3.0301,3.0273,3.0124,2.9566,3.0,3.0671,3.1201,3.1358,3.1397,3.1348,3.098,0.0,3.0471,3.0021,2.9701,2.9701,2.9701,2.9701,2.9701,2.9701,2.9701,2.9701,2.9382,2.8913,2.8237,2.85,2.8406,0.0,2.7834,2.8303,2.9157,2.8679,2.866,2.9176,2.7862,2.7035,2.6706,2.5346,2.4692,2.4706,2.4706,2.4679,2.4637,2.4637,2.4749,2.4929,2.5082,2.52,2.5284,2.5404,2.5421,2.5558,2.6914,2.7421,2.7556,0.0,0.0,0.0,0.0,0.0,0.0,0.0,0.0,0.0,0.0,0.0,0.0,0.0,0.0,0.0,0.0,0.0,0.0,0.0,0.0,1.8577,1.9674,1.9849,1.9977,2.0025,2.0025,2.0249,2.0754,2.1274,2.1849,2.242,2.2518,2.2651,2.2735,2.2217,2.2027,2.2162,2.2284,2.2322,2.2469,2.4103,2.4787,2.4962,2.6138,0.0,0.0,0.0,0.0,0.0,0.0,0.0,0.0,2.6318,2.6352,2.6609,2.7692,2.8866,3.004,3.1204,3.2268,3.2723,3.127,3.0849,3.048,2.9222,2.9344,2.9997,3.0941,3.1274,3.1224,3.0637,3.0672,3.0555,2.9814,2.9701,2.9701,2.9701,2.9701,2.9701,2.9701,2.9701,2.9701,2.9701,2.8979,2.8772,2.942,2.8124,0.0,0.0,2.7486,2.7467,2.8266,2.8294,2.8294,2.8294,2.7571,2.68,2.6,2.512,2.47,2.47,2.47,2.47,2.4707,2.4715,2.4854,2.5072,2.5115,2.5234,2.5393,2.548,2.546,2.5502,2.6388,2.6702,2.6803,0.0,0.0,0.0,0.0,0.0,0.0,0.0,0.0,0.0,0.0,0.0,0.0,0.0,0.0,0.0,0.0,0.0,0.0,0.0,0.0,1.8396,1.906,2.0338,2.1247,2.1656,2.1668,2.1728,2.1861,2.1274,2.1543,2.2635,2.1868,2.1604,2.1791,2.124,2.1029,2.1069,2.1509,2.1703,2.1759,2.2615,2.3204,2.3679,2.4388,2.5156,0.0,0.0,0.0,0.0,0.0,0.0,0.0,2.7249,2.7464,2.7861,2.7503,2.85,2.978,3.0001,3.0301,3.0491,3.0147,2.9701,2.9296,2.9108,2.9163,2.9351,2.9738,2.984,2.9886,2.9897,2.9917,2.9889,2.972,2.9701,2.9701,2.9701,2.9701,2.9701,2.9701,2.9701,2.9701,2.9701,2.9532,2.895,2.7824,0.0,0.0,2.6574,2.6349,2.6631,2.743,2.7467,2.7467,2.7467,2.7298,2.68,0.0,2.512,2.47,2.47,2.47,2.47,2.4707,2.4804,2.4895,2.4968,2.5165,2.5279,2.5322,2.544,2.5488,2.558,2.6392,2.6702,2.6721,0.0,0.0,0.0,0.0,0.0,0.0,0.0,0.0,0.0,0.0,0.0,0.0,0.0,0.0,0.0,0.0,0.0,0.0,0.0,0.0,1.8594,1.9671,2.1033,2.1909,2.2185,2.2197,2.2197,2.2197,2.1873,2.2065,2.2696,2.2236,2.2097,2.2234,2.1458,2.1081,2.1069,2.079,2.0677,2.0756,2.1653,2.2312,2.2883,2.3772,2.4601,2.5328,2.5299,0.0,0.0,0.0,0.0,0.0,0.0,0.0,2.7827,2.7674,2.8363,2.9292,2.9872,3.049,3.0885,3.0579,2.9466,2.8471,2.8635,2.8412,2.8342,2.882,2.9173,2.9322,2.912,2.942,2.9551,2.9157,2.9439,2.9701,2.9701,2.9701,2.9551,2.9138,2.9457,2.9532,2.9119,2.9457,2.9345,2.8462,0.0,2.7467,2.6612,2.5804,2.5767,2.6593,2.6631,2.6818,2.7204,2.6818,2.6405,2.6,2.512,2.47,2.47,2.47,2.47,2.4707,2.4779,2.484,2.4915,2.5056,2.5176,2.5313,2.5384,2.5432,2.5546,2.5971,2.6126,2.6126,0.0,0.0,0.0,0.0,0.0,0.0,0.0,0.0,0.0,0.0,0.0,0.0,0.0,0.0,0.0,0.0,0.0,0.0,0.0,1.809,1.9034,2.0517,2.1632,2.2197,2.2197,2.2197,2.2197,2.2197,2.2518,2.2731,2.2848,2.271,2.2763,2.292,2.1845,2.1343,2.1307,2.0351,1.9899,1.99,2.0888,2.1637,2.2256,2.3253,2.4056,2.4723,2.527,2.5584,2.5916,2.7195,0.0,0.0,0.0,0.0,2.7378,2.7828,2.8245,2.8852,3.003,3.0955,3.1438,3.0861,2.9198,2.7787,2.8155,2.7698,2.743,2.8219,2.8727,2.8885,2.8483,2.8979,2.9251,2.8528,2.9138,2.9701,2.9701,2.9701,2.9439,2.8716,2.927,2.942,2.8697,2.9288,2.9645,0.0,0.0,2.7148,2.6998,2.5533,2.5027,2.5748,2.5925,2.6255,2.6754,2.6255,2.5925,2.5767,2.5045,2.47,2.47,2.47,2.47,2.47,2.4858,2.4896,2.4867,2.4922,2.5068,2.5264,2.5322,2.5402,2.5526,2.5662,2.5623,2.5526,0.0,0.0,0.0,0.0,0.0,0.0,0.0,0.0,0.0,0.0,1.7306,1.7306,1.7306,1.7306,0.0,0.0,0.0,0.0,1.7362,0.0,0.0,2.0581,2.1632,2.2197,2.2197,2.2197,2.2197,2.2197,2.2476,2.2916,2.3446,2.2261,2.1929,2.2372,2.1295,2.0805,2.0792,2.0641,2.0289,1.9811,1.9989,2.0626,2.1539,2.1708,2.2708,2.4022,2.4109,2.4864,2.5978,2.7255,2.7612,0.0,0.0,0.0,2.7296,2.7314,2.7943,2.8761,2.9515,2.9417,2.8947,2.847,2.7614,2.7125,2.8138,2.7769,2.743,2.8219,2.791,2.7685,2.8294,2.851,2.8547,2.8426,2.9138,2.9701,2.9701,2.9701,2.9664,2.9532,2.9626,2.9645,2.9532,2.9626,2.9382,0.0,2.7721,2.6904,2.6207,2.5233,2.4737,2.4876,2.5617,2.5692,2.5037,2.5673,2.5617,2.4876,2.4764,2.47,2.47,2.47,2.47,2.4737,2.5504,2.5399,2.4742,2.4987,2.5084,2.5154,2.5373,2.548,2.5584,2.6281,2.6107,2.5604,0.0,0.0,0.0,0.0,0.0,0.0,0.0,0.0,0.0,0.0,0.0,1.7306,1.7306,1.7306,0.0,0.0,0.0,0.0,1.7739,1.8674,0.0,0.0,2.1344,2.1753,2.1753,2.1753,2.1608,2.1308,2.1584,2.221,2.3119,2.2344,2.2436,2.328,2.2457,2.189,2.1543,2.0955,2.0541,2.0303,2.0259,2.0905,2.1904,2.1856,2.2692,2.3891,2.3891,2.4262,2.4944,2.6306,2.6845,2.7031,2.7306,0.0,0.0,0.0,2.7373,2.8185,2.939,2.9158,2.8705,2.914,2.7957,2.6995,2.8137,2.743,2.6762,2.7552,2.7092,2.6649,2.6979,2.743,2.7588,2.7188,2.8221,2.9077,2.9022,2.948,2.9638,2.9142,2.9482,2.9577,2.9133,2.9456,2.9345,0.0,2.7646,2.6856,2.6038,2.5177,2.47,2.47,2.5064,2.5083,2.47,2.5083,2.5083,2.47,2.47,2.47,2.4718,2.5214,2.5158,2.4718,2.5102,2.5045,2.4715,2.4818,2.4955,2.5101,2.5219,2.5634,2.6165,2.6068,2.6087,2.6165,0.0,0.0,0.0,0.0,0.0,0.0,0.0,0.0,0.0,0.0,0.0,0.0,1.749,0.0,0.0,0.0,0.0,0.0,1.8057,0.0,0.0,0.0,0.0,2.1344,2.1211,2.1332,2.1198,2.0742,2.1051,2.1873,2.3184,2.3041,2.3452,2.4295,2.3504,2.2844,2.2259,2.1458,2.1031,2.0921,2.1017,2.1648,2.2542,2.2634,2.3302,2.4123,2.3949,2.3891,2.409,2.5334,2.5887,2.6146,2.6491,2.6779,0.0,0.0,0.0,2.7789,2.913,2.892,2.8518,2.9453,2.8178,2.7004,2.8137,2.7317,2.6537,2.7336,2.6722,2.6024,2.6024,2.6532,2.6728,2.6189,2.7511,2.8615,2.8569,2.9326,2.9655,2.8976,2.943,2.9554,2.8933,2.9371,2.9439,0.0,2.7786,2.6942,2.633,2.5271,2.47,2.47,2.47,2.47,2.47,2.47,2.47,2.47,2.47,2.47,2.4718,2.5372,2.5316,2.47,2.4933,2.4895,2.4707,2.4746,2.4867,2.5043,2.5097,2.5753,2.6595,2.6,2.6167,2.6605,0.0,0.0,0.0,0.0,0.0,0.0,0.0,0.0,0.0,0.0,0.0,0.0,1.803,1.7822,1.7684,1.7684,0.0,0.0,0.0,0.0,0.0,0.0,0.0,0.0,2.0641,2.1151,2.1333,2.116,2.1548,2.2603,2.4218,2.4592,2.4831,2.4908,2.364,2.2799,2.2309,2.2246,2.192,2.1526,2.2081,2.2645,2.3211,2.3775,2.4344,2.4747,2.4123,2.3891,2.4031,2.4791,2.4887,2.4928,2.6201,2.6452,2.6307,0.0,0.0,0.0,2.8508,2.8075,2.7555,2.7926,2.7348,2.7005,2.8137,2.774,2.7373,2.8172,2.7131,2.6084,2.6084,2.6121,2.614,2.611,2.7551,2.8695,2.8695,2.9396,2.9864,2.976,2.977,2.9754,2.9645,2.9673,2.9683,0.0,2.8124,2.7186,2.7148,2.559,2.47,2.47,2.47,2.47,2.47,2.47,2.47,2.47,2.47,2.47,2.47,2.4745,2.4737,2.4745,2.5579,2.5466,2.4715,2.4832,2.4902,2.4929,2.5043,2.571,2.6602,2.6564,2.6617,2.6683,0.0,0.0,0.0,0.0,0.0,0.0,0.0,0.0,0.0,0.0,0.0,0.0,0.0,1.8002,1.7904,1.7711,1.7711,0.0,0.0,0.0,0.0,0.0,0.0,0.0,0.0,2.0598,2.0657,2.0174,2.0591,2.1597,2.3159,2.3596,2.4201,2.4927,2.4493,2.3755,2.2782,2.246,2.2196,2.2068,2.2669,2.3245,2.3823,2.4343,2.4947,2.5386,2.4733,2.4239,2.3961,2.4294,2.4302,2.4287,2.5131,2.5561,2.5886,2.659,2.7147,2.7651,2.8147,2.8237,2.8246,2.8581,2.8078,2.7773,2.8952,2.8585,2.8077,2.8447,2.7652,2.674,2.6253,2.6154,2.6188,2.6212,2.7652,2.8749,2.8761,2.9536,3.0076,2.9999,2.9983,2.9951,2.9832,2.979,2.9502,0.0,0.0,2.696,2.6462,2.5327,2.47,2.47,2.47,2.47,2.47,2.47,2.47,2.47,2.47,2.47,2.47,2.47,2.47,2.4718,2.5027,2.4989,2.4707,2.4749,2.4818,2.4908,2.4942,2.5589,2.64,2.5946,2.6131,2.6578,0.0,0.0,0.0,0.0,0.0,0.0,0.0,0.0,0.0,1.8768,0.0,0.0,0.0,0.0,1.8193,1.803,1.7904,1.7947,1.8247,0.0,0.0,0.0,0.0,0.0,0.0,2.0338,2.0421,2.0073,2.0335,2.1223,2.2702,2.3192,2.3847,2.4563,2.4597,2.4179,2.3399,2.306,2.2761,2.2636,2.3469,2.4042,2.4464,2.4958,2.556,2.601,2.5114,2.4679,2.4534,2.4496,2.4365,2.4341,2.4931,2.539,2.587,2.664,2.7114,2.75,2.795,2.8326,2.8675,2.8955,2.8662,2.854,2.94,2.9195,2.8883,2.8988,2.8353,2.7637,2.716,2.7089,2.6934,2.6422,2.7803,2.8925,2.8938,2.9711,3.0241,3.013,3.0135,3.0064,2.9924,2.9866,2.958,0.0,0.0,0.0,2.6454,2.5324,2.47,2.47,2.47,2.47,2.47,2.47,2.47,2.47,2.47,2.47,2.47,2.47,2.47,2.47,2.47,2.47,2.47,2.47,2.4749,2.4825,2.4825,2.5441,2.6238,2.5508,2.5807,2.6497,0.0,0.0,0.0,0.0,0.0,0.0,0.0,0.0,2.0181,1.9158,0.0,0.0,0.0,0.0,0.0,1.861,1.8325,1.8259,1.8587,1.8614,0.0,0.0,0.0,0.0,1.982,2.0334,2.0729,2.1013,2.101,2.1705,2.3094,2.3626,2.3894,2.3915,2.3929,2.3985,2.4095,2.4079,2.3699,2.322,2.4483,2.4993,2.5065,2.5612,2.6239,2.6646,2.5303,2.5255,2.5741,2.533,2.5052,2.4996,2.5665,2.6005,2.6257,2.6657,2.7067,2.747,0.0,0.0,0.0,2.8858,2.9007,2.9148,2.9353,2.955,2.971,2.9782,2.9206,2.8719,2.8783,2.8843,2.8377,2.6743,2.8025,2.922,2.922,2.9895,3.0348,3.0228,3.0208,3.0114,2.9921,2.9916,0.0,0.0,2.831,2.7325,2.7299,2.5656,2.47,2.47,2.47,2.47,2.47,2.47,2.47,2.47,2.47,2.4707,2.4707,2.4707,2.4707,2.4707,2.4707,2.4707,2.4707,2.4707,2.4707,2.4707,2.4707,2.531,2.6062,2.5367,2.5705,2.6453,0.0,0.0,0.0,0.0,0.0,2.0952,2.0651,1.9953,1.9351,0.0,0.0,0.0,1.9035,1.9115,1.9187,1.9187,1.9092,1.8928,1.861,1.8774,1.8907,1.8987,2.0033,2.0346,1.982,2.0338,2.0844,2.129,2.1111,2.1598,2.2756,2.3533,2.3907,2.3937,2.4359,2.4332,2.394,2.3487,2.3235,2.3218,2.4423,2.4956,2.5106,2.6126,2.6646,2.6704,2.5821,2.5633,2.5716,2.5111,2.467,2.4492,2.502,2.5413,2.5795,2.6296,2.6691,2.7067,2.7512,0.0,0.0,0.0,0.0,0.0,2.9322,2.9443,2.9531,2.9764,2.9137,2.8593,2.8719,2.8817,2.8753,2.8288,2.9168,2.9909,2.9909,3.0107,3.0241,3.0194,3.0206,3.0164,3.0053,3.0038,0.0,0.0,2.8903,2.8012,2.7344,2.5656,2.47,2.47,2.47,2.47,2.47,2.47,2.47,2.47,2.47,2.473,2.4764,2.473,2.473,2.4764,2.4723,2.473,2.4757,2.4723,2.4738,2.4776,2.4723,2.49,2.5173,2.5004,2.5182,2.5496,0.0,0.0,0.0,2.2197,2.1488,2.0868,2.0622,1.9865,1.9324,0.0,0.0,0.0,1.9684,1.9809,1.9915,1.9899,1.9685,1.944,1.9119,1.9027,1.8987,1.8987,1.9805,2.0225,2.0129,2.0633,2.1181,2.1719,2.1645,2.1956,2.2615,2.3195,2.3476,2.3514,2.3853,2.3808,2.3467,2.3112,2.3013,2.321,2.442,2.4761,2.4654,2.534,2.5749,2.5879,2.5226,2.5168,2.5342,2.5038,2.4779,2.4596,2.4765,2.5141,2.5596,2.61,2.6521,2.6906,2.7348,2.7722,2.812,2.8657,0.0,0.0,2.9149,2.931,2.9444,2.9645,2.9349,2.907,2.918,2.9307,2.9407,2.9407,2.9853,3.0219,3.0273,3.0279,3.0267,3.0241,3.056,3.0602,3.0173,3.0452,3.046,3.0065,2.9224,2.8177,2.6862,2.548,2.4738,2.4707,2.473,2.4738,2.47,2.47,2.4715,2.4734,2.4734,2.4772,2.4844,2.4764,2.4757,2.4794,2.4768,2.4757,2.4794,2.4787,2.4816,2.4844,2.4801,2.4816,2.4847,2.4955,2.5037,2.5116,0.0,0.0,2.2197,2.2197,2.1765,2.1247,2.0779,2.0177,1.9832,0.0,1.9904,2.0105,2.0718,2.0706,2.0699,2.0706,2.0189,1.9868,1.9808,1.9314,1.8987,1.8987,1.9519,2.0045,2.0598,2.1059,2.161,2.224,2.2423,2.2547,2.2638,2.282,2.2888,2.2888,2.2888,2.2888,2.2888,2.2975,2.2986,2.3089,2.4292,2.4439,2.3891,2.3887,2.4196,2.452,2.3905,2.4094,2.4631,2.48,2.4916,2.4948,2.475,2.5028,2.5519,2.6043,2.6452,2.6808,2.7208,2.7636,2.8024,2.844,2.8694,0.0,2.8887,2.9138,2.9373,2.9437,2.9617,2.9771,2.983,3.004,3.0202,3.008,3.0223,3.0342,3.0373,3.0375,3.0367,3.0304,3.1053,3.1225,3.0294,3.093,3.1064,3.0261,2.9244,2.7951,2.6359,2.534,2.4779,2.4712,2.4764,2.4764,2.4715,2.4715,2.4746,2.4794,2.4808,2.4851,2.4915,2.4851,2.4816,2.4823,2.4816,2.4816,2.4849,2.4907,2.4915,2.4915,2.4908,2.4908,2.4929,2.505,2.5078,2.5143,0.0,2.1897,2.2197,2.2197,2.1765,2.1368,2.126,2.0418,1.9937,2.0394,2.0454,2.0815,2.1777,2.15,2.1247,2.1247,2.0754,2.0261,1.9832,1.9314,1.8987,1.8987,1.9519,2.0045,2.0598,2.1059,2.1693,2.2524,2.25,2.262,2.2843,2.2865,2.2888,2.2888,2.2888,2.2888,2.2931,2.3484,2.3117,2.2332,2.3592,2.3733,2.3247,2.3717,2.3635,2.3178,2.2599,2.2751,2.3287,2.3439,2.3847,2.4335,2.4606,2.4772,2.5028,2.5936,2.6257,2.6399,2.6808,2.721,2.7604,0.0,2.8383,0.0,2.887,2.8945,2.903,2.914,2.9345,2.9492,2.9512,3.0299,3.0761,3.0062,3.057,3.0898,3.0316,3.0234,3.0227,3.0226,3.0985,3.1162,3.0287,3.0987,3.1121,3.0261,2.8736,2.7671,2.7326,2.5756,2.4874,2.4861,2.4823,2.4787,2.4772,2.4772,2.4779,2.4794,2.4847,2.4934,2.5057,2.4934,2.4946,2.5037,2.4921,2.4927,2.5037,2.5057,2.5063,2.5057,2.4947,2.4973,2.5057,2.4974,2.5037,2.5187,2.1801,2.2017,2.2197,2.2197,2.1765,2.1404,2.1404,2.0718,2.0394,2.0935,2.1235,2.1596,2.2137,2.1957,2.1801,2.1801,2.132,2.0779,2.0225,1.9684,1.9263,1.8999,1.9266,1.9768,2.0569,2.1137,2.178,2.2604,2.2869,2.297,2.2888,2.2888,2.3084,2.3374,2.3055,2.3099,2.3389,2.3389,2.3025,2.2486,2.3129,2.2864,2.2072,2.2347,2.2251,2.191,2.1612,2.1699,2.1997,2.2433,2.2819,2.329,2.4069,2.4471,2.4851,2.5629,2.6025,2.6292,2.6691,2.6955,0.0,2.7631,0.0,0.0,0.0,2.8713,2.8922,2.8996,2.9134,2.9161,2.8852,2.9317,2.9638,2.9301,2.9674,3.0046,3.0147,3.0154,3.0321,3.0751,3.158,3.1935,3.1484,3.2248,3.221,3.093,2.9193,2.8027,2.7627,2.6331,2.5377,2.4865,2.4912,2.4898,2.4794,2.4837,2.4879,2.4952,2.4973,2.5051,2.5157,2.5044,2.5031,2.5101,2.5025,2.5031,2.5101,2.5139,2.5157,2.5132,2.5082,2.5088,2.5132,2.5063,2.5106,2.5195,2.2173,2.2197,2.2197,2.2197,2.1837,2.1548,2.1548,2.1103,2.0923,2.1344,2.1861,2.2197,2.2197,2.2197,2.2197,2.2197,2.1716,2.1223,2.0762,2.0237,1.9772,1.9324,1.9203,1.9627,2.0615,2.1213,2.1865,2.2644,2.3208,2.3363,2.3099,2.2946,2.3258,2.3876,2.3331,2.3374,2.3847,2.3316,2.2954,2.2736,2.2736,2.2151,2.1245,2.1081,2.093,2.0799,2.0669,2.0712,2.093,2.1583,2.1974,2.2364,2.3534,2.4261,0.0,0.0,2.583,2.6274,2.6607,0.0,0.0,0.0,0.0,2.7759,0.0,0.0,0.0,2.8834,2.8962,2.892,2.8417,0.0,0.0,2.8703,0.0,0.0,0.0,3.0057,0.0,3.1317,3.2183,3.2699,3.2699,3.3337,3.3127,3.1618,2.9982,2.8715,2.7895,2.6872,2.5937,2.5109,2.5094,2.5018,2.4823,2.49,2.4986,2.5101,2.5114,2.5151,2.521,2.5132,2.512,2.512,2.512,2.512,2.5126,2.5187,2.5191,2.5191,2.5191,2.5191,2.5191,2.5191,2.5191,2.5203,2.2101,2.2197,2.2197,2.2197,2.2149,2.2101,2.2101,2.1656,2.1332,2.1392,2.1861,2.2197,2.2197,2.2197,2.2197,2.2197,2.1716,2.138,2.132,2.082,2.0494,2.043,1.9961,2.0029,2.0758,2.1267,2.1943,2.2883,2.3283,2.3593,2.3775,2.3186,2.3258,2.3891,2.3818,2.3818,2.3891,2.3818,2.3136,2.2106,2.2106,2.2019,0.0,2.1228,2.0669,2.0117,1.9537,1.9696,2.0291,0.0,2.1532,2.2242,0.0,2.4235,2.4728,2.5332,0.0,0.0,0.0,0.0,0.0,0.0,2.6736,0.0,0.0,0.0,2.8281,2.8569,0.0,2.8885,0.0,0.0,0.0,0.0,0.0,0.0,2.9725,2.9847,3.0318,3.1347,3.2203,3.2699,0.0,3.2795,3.247,3.158,3.0579,2.9655,2.8808,2.7249,2.6321,2.614,2.545,2.5025,2.4888,2.5018,2.5076,2.5101,2.5169,2.5185,2.5191,2.5185,2.5199,2.5199,2.5199,2.5199,2.5199,2.5205,2.5191,2.5191,2.5191,2.5191,2.5191,2.5191,2.5191,2.5191,2.2089,2.2197,2.2197,2.2197,2.2197,2.2197,2.2197,2.2005,2.1861,2.1861,2.2053,2.2197,2.2197,2.2197,2.2318,2.263,2.245,2.2197,2.1885,2.1644,2.1235,2.0646,2.0467,2.0499,2.0787,2.1468,2.1978,2.2374,2.2907,2.3201,2.3302,2.3018,2.3447,2.4404,2.4065,2.4094,2.4389,2.4051,2.3368,2.2519,2.2519,2.2519,0.0,2.1003,2.0074,1.9478,1.9203,1.9275,1.9624,0.0,2.0901,0.0,0.0,0.0,0.0,2.495,0.0,0.0,0.0,0.0,0.0,0.0,0.0,0.0,2.7157,0.0,2.8079,0.0,0.0,0.0,0.0,0.0,0.0,0.0,2.8177,0.0,0.0,0.0,2.9765,0.0,0.0,0.0,0.0,0.0,0.0,0.0,3.1427,3.0567,2.9707,2.8516,2.7376,2.6332,2.6015,2.5584,2.5018,2.5114,2.5163,2.5163,2.5199,2.5191,2.5191,2.5191,2.5191,2.5191,2.5191,2.5191,2.5191,2.5191,2.5191,2.5191,2.5191,2.5191,2.5191,2.5191,2.5191,2.5191,2.2089,2.2197,2.2197,2.2197,2.2197,2.2197,2.2197,2.2197,2.2197,2.2197,2.2197,2.2197,2.2197,2.2197,2.2402,2.2963,2.3011,2.2915,2.2642,2.2549,2.2207,2.1597,2.1412,2.1452,2.1638,2.2221,2.2615,2.283,2.3065,2.3273,2.3447,2.3062,2.3505,2.4534,2.4283,2.4413,2.4795,2.453,2.3949,2.3171,2.3171,2.2968,2.249,2.0944,1.9827,1.9101,1.9101,1.9101,1.9203,1.987,2.0393,0.0,2.1892,0.0,2.4233,0.0,0.0,0.0,2.6118,0.0,0.0,0.0,0.0,0.0,0.0,0.0,0.0,0.0,0.0,0.0,0.0,0.0,0.0,0.0,0.0,2.7493,0.0,2.8834,0.0,0.0,0.0,0.0,0.0,0.0,0.0,0.0,0.0,3.1713,3.0605,2.972,2.847,2.67,2.6486,2.5971,2.5101,2.5175,2.5191,2.5191,2.5191,2.5191,2.5191,2.5191,2.5191,2.5191,2.5191,2.5191,2.5191,2.5191,2.5191,2.5191,2.5191,2.5191,2.5191,2.5191,2.5191,2.5191,2.2089,2.2197,2.2197,2.2197,2.2197,2.2197,2.2197,2.2197,2.2197,2.2197,2.2197,2.2197,2.2197,2.2197,2.2402,2.2963,2.3011,2.3228,2.3722,2.3393,2.3403,2.397,2.3195,2.3074,2.3809,2.3826,2.4187,2.4894,2.4215,2.4196,2.4805,2.3519,2.3273,2.3972,2.4573,2.4849,2.4853,2.5473,2.4994,2.3862,2.3862,2.3122,2.1946,0.0,2.019,1.9101,1.9101,0.0,0.0,1.987,2.0117,0.0,0.0,0.0,0.0,0.0,0.0,0.0,0.0,0.0,0.0,2.5839,0.0,0.0,0.0,0.0,2.6155,0.0,0.0,0.0,0.0,0.0,0.0,0.0,0.0,0.0,0.0,0.0,0.0,0.0,0.0,0.0,0.0,0.0,0.0,0.0,3.3452,0.0,3.1541,3.0624,2.9355,2.7608,2.6791,2.5971,2.5101,2.5175,2.5191,2.5191,2.5191,2.5191,2.5191,2.5191,2.5191,2.5191,2.5191,2.5191,2.5191,2.5191,2.5191,2.5191,2.5191,2.5191,2.5191,2.5191,2.5191,2.5191,2.2427,2.2537,2.2494,2.2371,2.2432,2.2537,2.2537,2.2537,2.2665,2.3053,2.3113,2.328,2.3669,2.3369,2.3489,2.4374,2.4102,2.4087,2.4624,2.4581,2.4463,2.43,2.4138,2.4003,2.3891,2.4333,2.4517,2.4397,2.4474,2.4413,2.4225,2.3775,2.3688,2.3905,2.4147,2.4457,2.4824,2.5042,2.4675,2.3847,0.0,2.2736,2.1873,0.0,2.0132,1.9696,1.9261,1.9101,0.0,1.9362,1.9725,2.0175,2.0671,2.1515,2.245,2.3072,2.3535,0.0,0.0,0.0,2.3619,2.511,0.0,0.0,0.0,0.0,0.0,0.0,0.0,0.0,0.0,0.0,0.0,0.0,0.0,0.0,0.0,0.0,0.0,0.0,0.0,0.0,0.0,0.0,0.0,0.0,3.2477,0.0,0.0,3.0968,2.9414,2.7726,2.7402,2.6587,2.5175,2.5199,2.5191,2.5191,2.5191,2.5191,2.5191,2.5191,2.5191,2.5191,2.5191,2.5191,2.5191,2.5191,2.5191,2.5191,2.5191,2.5191,2.5191,2.5191,2.5191,2.5191,2.2616,2.2739,2.2708,2.2555,2.2616,2.272,2.272,2.2878,2.3155,2.3547,2.38,2.4079,2.4469,2.4166,2.4294,2.5169,2.4867,2.4867,2.5391,2.5363,2.5336,2.5457,2.5256,2.5176,2.5245,2.5468,2.528,2.4704,2.5019,2.4733,2.3891,2.3891,2.3775,2.3557,2.3789,2.4263,2.4936,2.513,2.4878,2.4279,0.0,2.2723,0.0,0.0,2.0535,2.0045,0.0,1.9304,1.9101,1.9101,1.9391,1.9783,2.0016,2.0705,2.1568,2.2294,2.2661,2.3039,2.3786,2.3454,0.0,2.4414,2.4348,0.0,2.5523,0.0,2.5308,0.0,0.0,0.0,0.0,0.0,0.0,0.0,0.0,0.0,0.0,2.7643,0.0,0.0,0.0,0.0,0.0,0.0,3.1801,3.2642,3.2222,0.0,0.0,0.0,2.9746,2.7759,2.7701,2.6899,2.5229,2.5191,2.5191,2.5191,2.5191,2.5191,2.5191,2.5191,2.5191,2.5191,2.5191,2.5191,2.5191,2.5191,2.5191,2.5191,2.5191,2.5191,2.5191,2.5191,2.5191,2.5191,2.28,2.2909,2.2969,2.283,2.2769,2.2739,2.2769,2.3245,2.3636,2.3725,2.4224,2.4584,2.4612,2.4584,2.4796,2.5311,2.5335,2.5528,2.599,2.5741,2.609,2.7301,2.6456,2.6476,2.7637,2.7084,2.65,2.5861,2.5832,2.5168,2.3978,2.392,2.3572,2.2975,2.3586,2.432,2.5135,2.5712,2.5658,2.5088,2.3684,2.3037,2.2875,2.2432,2.1374,2.0166,2.0117,1.9667,1.9101,1.9101,1.9101,1.9217,1.9875,2.0221,2.0657,2.2006,2.2055,2.2007,2.349,2.3388,2.3023,2.3768,0.0,0.0,0.0,0.0,2.4149,0.0,0.0,0.0,0.0,0.0,0.0,0.0,0.0,0.0,0.0,0.0,2.641,0.0,0.0,0.0,0.0,3.0251,3.1641,3.2565,3.2604,3.2604,0.0,0.0,3.03,2.7778,2.7701,2.6899,2.5229,2.5191,2.5191,2.5191,2.5191,2.5191,2.5191,2.5191,2.5191,2.5191,2.5191,2.5191,2.5191,2.5191,2.5191,2.5191,2.5191,2.5191,2.5191,2.5191,2.5191,2.5191,2.4337,2.4452,2.4439,2.4423,2.3619,2.3168,2.3662,2.3855,2.4292,2.5203,2.5453,2.5701,2.615,2.5811,2.5758,2.6296,2.5934,2.5899,2.6401,2.6421,2.655,2.6889,2.6673,2.672,2.7026,2.6866,2.6733,2.6559,2.605,2.5643,2.5284,2.4326,2.3804,2.363,2.3302,2.3874,2.5106,2.5282,2.5272,2.5088,2.3783,2.3246,2.3172,0.0,2.2216,2.0979,2.0386,1.971,1.912,1.9213,1.9246,1.9294,1.9507,1.9852,2.0302,2.0912,2.124,2.1536,2.2187,2.2243,2.226,2.299,2.3172,2.3371,0.0,0.0,0.0,0.0,0.0,0.0,0.0,0.0,0.0,0.0,0.0,0.0,0.0,0.0,0.0,2.6446,0.0,0.0,2.8577,2.9087,3.0064,3.1687,3.1217,0.0,0.0,0.0,0.0,2.7759,2.7701,2.6899,2.5229,2.5191,2.5191,2.5191,2.5191,2.5191,2.5191,2.5191,2.5191,2.5191,2.5191,2.5191,2.5191,2.5191,2.5191,2.5191,2.5191,2.5191,2.5191,2.5191,2.5191,2.5191,2.5261,2.5619,2.5743,2.5442,2.4795,2.4364,2.4463,2.4723,2.5118,2.5811,2.6111,2.642,2.6753,2.65,2.6429,2.6716,2.6427,2.6357,2.6678,2.644,2.6446,2.6731,2.6493,2.6515,2.6806,2.6806,0.0,2.6344,2.6283,2.5803,2.495,2.4554,2.4022,2.3432,2.307,2.3751,2.5188,2.5283,2.5271,2.5069,2.4073,2.3739,0.0,2.3717,2.3113,2.2284,2.1674,2.0512,1.9246,1.9321,1.9339,1.9358,1.9395,1.9726,2.017,2.0496,2.0942,2.1371,2.1708,2.1812,2.1912,2.2326,2.2426,2.2609,2.3354,2.3189,2.3007,0.0,0.0,0.0,0.0,0.0,0.0,0.0,0.0,0.0,0.0,0.0,0.0,0.0,2.6779,0.0,0.0,2.8277,2.9224,3.0681,3.0073,0.0,0.0,0.0,0.0,2.8268,2.7886,2.7052,2.574,2.5382,2.5191,2.5191,2.5191,2.5191,2.5191,2.5191,2.5191,2.5191,2.5191,2.5191,2.5191,2.5191,2.5191,2.5191,2.5191,2.5191,2.5191,2.5191,2.5191,2.5191,2.604,2.6605,2.6783,2.6123,2.6013,2.5835,2.5327,2.5591,2.5921,2.6002,2.6474,2.6806,2.6806,2.6806,2.6806,2.6806,2.6806,2.6806,2.6806,2.6155,2.6065,2.6646,2.605,2.6006,2.6634,2.6675,2.6442,2.5948,2.6442,2.5836,2.4283,2.4626,2.4196,2.3134,2.2997,2.3785,2.5284,2.548,2.5417,2.5139,2.4464,2.4395,2.4603,2.4313,2.3966,2.3599,2.3323,2.1712,1.9723,1.9653,1.9638,1.9609,1.952,1.9836,2.0308,2.0614,2.1023,2.1433,2.1723,2.1812,2.1812,2.1812,2.1812,2.1978,2.2609,2.2758,2.2758,2.2758,2.3272,2.3338,0.0,0.0,0.0,0.0,0.0,0.0,0.0,0.0,2.6995,0.0,0.0,0.0,0.0,0.0,0.0,0.0,0.0,0.0,0.0,0.0,0.0,2.893,2.8115,2.7281,2.6402,0.0,2.5191,2.5191,2.5191,2.5191,2.5191,2.5191,2.5191,2.5191,2.5191,2.5191,2.5191,2.5191,2.5191,2.5191,2.5191,2.5191,2.5191,2.5191,2.5191,2.5191,2.7368,2.7465,2.7378,2.6746,2.6632,2.6603,2.6515,2.6138,2.6084,2.6594,2.6727,2.6806,2.6806,2.6806,2.6806,2.6806,2.6806,0.0,0.0,0.0,0.0,2.5977,2.5396,2.5367,2.5952,2.5992,2.6195,2.6631,2.6195,2.6068,2.6242,2.4762,2.4225,2.4433,2.3481,2.3837,2.5143,2.529,0.0,2.5696,2.5026,2.4803,2.4843,2.4784,2.4379,2.3841,2.3784,2.2809,2.1485,2.1032,2.085,2.0725,2.0233,2.053,2.1087,2.1167,2.1417,2.1738,2.1766,2.1812,2.1812,2.1812,2.1812,2.1829,2.1961,2.1995,2.1995,2.1995,2.2111,2.2308,2.2718,0.0,0.0,0.0,0.0,0.0,0.0,0.0,0.0,0.0,0.0,2.7997,0.0,0.0,0.0,0.0,0.0,0.0,0.0,0.0,0.0,0.0,2.8115,0.0,0.0,0.0,2.5191,2.5191,2.5191,2.5191,2.5191,2.5191,2.5191,2.5191,2.5191,2.5191,2.5191,2.5191,2.5191,2.5191,2.5191,2.5191,2.5191,2.5191,2.5191,2.5191,2.8683,2.8681,2.8493,2.7882,2.749,2.7157,0.0,2.6553,2.6474,2.6753,2.6806,2.6806,2.6806,2.6806,2.6806,2.6806,2.6806,2.6634,2.6312,2.5701,2.5168,2.4844,2.4554,2.466,2.5284,2.5618,2.6137,2.6806,2.6486,2.6326,2.6268,0.0,2.4738,2.4436,2.4332,2.4605,0.0,0.0,0.0,2.5659,2.5342,2.5365,2.5551,2.531,2.5158,2.5068,2.4831,2.4347,2.3642,2.2475,2.1806,2.1428,2.1153,2.1178,2.1293,2.1293,2.1541,2.1812,2.1812,2.1812,2.1812,2.1812,2.1812,2.1812,2.1812,2.1812,2.1812,2.1812,2.1812,2.2058,2.2944,2.3803,0.0,0.0,0.0,0.0,0.0,0.0,2.753,0.0,0.0,0.0,0.0,0.0,0.0,0.0,0.0,0.0,0.0,0.0,0.0,0.0,0.0,0.0,0.0,0.0,0.0,2.5191,2.5191,2.5191,2.5191,2.5191,2.5191,2.5191,2.5191,2.5197,2.5195,2.5206,2.5206,2.5195,2.5195,2.5195,2.5195,2.5195,2.5201,2.5193,2.945,2.9392,2.9174,2.8433,2.7868,2.736,2.6852,2.6806,2.6806,2.6806,2.6806,2.6806,2.6806,2.6806,2.6806,2.6806,2.6806,2.6588,2.6065,2.5415,2.4791,2.4123,2.4094,2.4326,2.4795,2.5483,2.6163,0.0,2.6858,0.0,0.0,0.0,0.0,0.0,0.0,0.0,0.0,0.0,2.635,2.6089,2.5942,2.6096,2.6383,2.5842,2.5883,2.615,2.5793,2.5649,2.545,2.4064,2.3035,2.2325,2.2071,2.1842,2.1598,2.1451,2.1602,2.1812,2.1812,2.1812,2.1812,2.1812,2.1812,2.1812,2.1812,2.1812,2.1812,2.1812,2.1825,2.2117,2.3051,2.3612,0.0,0.0,0.0,0.0,0.0,0.0,2.6615,0.0,0.0,0.0,2.6763,0.0,0.0,0.0,0.0,0.0,2.9439,2.9674,0.0,0.0,0.0,2.763,2.763,0.0,2.5191,2.5191,2.5191,2.5191,2.5191,2.5191,2.5191,2.5191,2.5197,2.5195,2.5204,2.5201,2.5195,2.5193,2.5198,2.5198,2.5193,2.5198,2.5195,2.5212,2.9028,2.8796,2.8418,2.7198,0.0,2.6852,2.682,2.6806,2.6806,2.6806,2.6806,2.6806,2.6806,2.6806,2.6806,2.6806,2.6806,2.6765,2.6718,2.6068,2.5415,2.4752,2.4723,2.4752,2.481,2.5573,2.6305,0.0,0.0,2.7126,0.0,0.0,0.0,0.0,0.0,0.0,0.0,2.7522,2.7789,2.807,2.7392,2.7164,2.7116,2.6416,2.6168,2.6185,2.615,2.6115,2.6115,2.5949,2.5157,2.4026,2.275,2.254,2.2612,2.1935,2.1783,2.1812,2.1812,2.1812,2.1812,2.1812,2.1812,2.1812,2.1812,2.1812,2.1812,2.1812,2.1899,2.2247,2.3125,2.2861,2.2939,0.0,0.0,0.0,0.0,0.0,2.5977,2.6277,0.0,0.0,0.0,2.7616,0.0,0.0,2.7768,0.0,2.8257,2.8955,2.911,2.8579,0.0,2.743,2.743,2.5939,2.5191,2.5191,2.5191,2.5191,2.5191,2.5191,2.5191,2.5191,2.5195,2.5204,2.5206,2.5192,2.5195,2.5193,2.5201,2.5195,2.5193,2.5201,2.5212,2.5217,0.0,0.0,0.0,0.0,0.0,0.0,0.0,2.7026,2.7026,2.7026,2.691,2.6832,2.6925,2.6925,2.6937,2.7026,2.7026,2.6865,2.6484,2.6205,2.5565,2.454,2.4496,2.4672,2.5023,2.5375,2.6046,0.0,0.0,2.7207,2.7192,2.72,0.0,0.0,0.0,2.7708,2.8304,2.8304,2.8343,2.8376,2.8078,2.7696,2.7265,2.6967,2.6584,2.6202,2.6202,2.6202,2.6202,2.6202,2.5601,2.4754,2.4196,2.3506,2.2841,2.2543,2.216,2.1812,2.1812,2.1812,2.1812,2.1812,2.1812,2.1812,2.1812,2.1825,2.1855,2.1855,2.2003,2.2221,2.257,2.2811,2.3004,0.0,0.0,0.0,0.0,0.0,0.0,2.6157,0.0,2.7371,0.0,0.0,0.0,0.0,0.0,0.0,0.0,0.0,0.0,2.9286,0.0,2.6973,2.757,2.5996,2.5191,2.5191,2.5191,2.5191,2.5191,2.5208,2.5206,2.5204,2.525,2.5266,2.5257,2.5253,2.5262,2.5261,2.5252,2.5266,2.5261,2.5252,2.5262,2.5259,2.8834,0.0,2.8039,0.0,2.7476,2.7207,2.7207,2.7207,2.7207,2.7207,2.7041,2.6963,2.7041,2.7041,2.7093,2.7181,2.7207,2.7015,2.6533,2.6503,2.5914,2.4616,2.4749,0.0,2.5191,2.556,2.6311,2.7458,2.766,2.7745,2.777,0.0,0.0,0.0,2.8771,2.8833,2.924,2.924,2.9149,2.8986,2.879,2.8392,2.7912,2.7696,2.7166,2.6518,2.6518,2.6385,2.6202,2.6202,2.5838,2.5392,2.5176,2.4398,2.3454,2.3023,2.2526,2.2077,2.1877,2.1825,2.1825,2.1855,2.1855,2.1855,2.1855,2.1899,2.1943,2.1988,2.2094,2.2214,2.2228,2.269,2.2987,2.2682,0.0,0.0,0.0,2.4369,0.0,2.5807,2.6681,2.7023,2.6487,2.675,0.0,0.0,0.0,0.0,0.0,0.0,0.0,0.0,0.0,0.0,0.0,2.588,2.5197,2.5191,2.5197,2.5203,2.5203,2.5193,2.522,2.5222,2.5282,2.5292,2.5302,2.5298,2.5293,2.5292,2.5297,2.5297,2.5292,2.5297,2.5293,2.5308,2.8245,2.8113,2.7907,2.7325,2.7207,2.7207,2.7207,2.7207,2.7207,2.7207,2.7207,2.7207,2.7207,2.7207,2.7207,2.7207,2.7207,2.7207,2.7192,2.7192,2.6602,0.0,0.0,2.5869,2.5206,2.643,2.7407,2.81,0.0,0.0,2.9074,0.0,2.9325,2.9788,2.9793,3.0032,3.0489,3.0489,3.0489,3.0406,2.9678,2.938,2.9317,2.8641,2.7928,2.73,2.73,2.6816,2.6202,2.6202,2.6185,2.6053,2.5325,2.5094,2.4795,2.3321,2.2891,2.274,2.2084,2.1913,2.1911,2.1984,2.2013,2.2013,2.2013,2.2013,2.2044,2.2168,2.22,2.2228,2.2282,2.2313,2.255,2.3274,0.0,0.0,0.0,2.4269,0.0,2.5049,2.5878,2.6436,2.649,2.7277,0.0,0.0,0.0,0.0,0.0,0.0,0.0,2.5708,2.5816,0.0,2.6112,2.5507,2.5201,2.5191,2.5201,2.5193,2.5193,2.5201,2.5247,2.5311,2.5311,2.5302,2.5308,2.5308,2.5293,2.5292,2.5298,2.5293,2.5292,2.5298,2.5308,2.5308,2.779,2.7761,2.7701,2.7503,2.7473,2.7473,2.7473,2.7473,2.7473,2.7473,2.7473,2.7585,2.7929,2.7585,2.7361,0.0,2.7473,2.7473,0.0,2.7473,2.722,2.6662,2.6829,2.7009,2.7186,2.7569,2.7856,2.8029,0.0,0.0,0.0,2.9572,2.9832,3.0279,3.0279,3.0363,3.0506,3.0506,3.0506,3.0472,3.0241,2.9843,2.9383,2.9168,2.8638,2.8063,2.8085,2.7638,2.7025,2.7132,2.6763,2.6243,2.5994,2.5543,2.5011,2.4547,2.3718,2.2917,2.2715,2.2326,2.1969,2.1982,2.2013,2.2013,2.2013,2.2075,2.2166,2.2254,2.2268,2.2268,2.2296,2.2296,2.2381,2.2615,2.2599,0.0,0.0,0.0,2.5273,2.5125,2.5867,2.6432,0.0,2.6298,0.0,0.0,0.0,0.0,0.0,0.0,0.0,0.0,2.5635,0.0,2.6365,2.5585,2.5206,2.5201,2.5206,2.5209,2.5266,2.5276,2.5273,2.5293,2.5293,2.5298,2.5308,2.5308,2.5303,2.5298,2.5303,2.5303,2.5298,2.5303,2.5308,2.5308,2.76,2.7735,2.787,2.787,2.8042,2.8165,2.8165,2.8165,2.8165,2.8165,2.8165,2.8271,2.8567,2.8247,0.0,2.8165,2.7993,2.787,2.787,2.787,2.7674,2.7319,2.7496,2.7762,2.8091,2.8268,0.0,2.8258,2.8902,2.9513,3.007,3.007,3.022,3.0506,3.0506,3.0526,3.0589,3.0589,3.0589,3.0589,3.0589,3.0306,2.9892,2.9892,2.948,2.8924,2.8982,2.8517,2.7901,2.7975,2.7455,2.6783,2.6783,2.6246,2.5562,2.5228,2.4547,2.3794,2.3257,2.2817,2.2425,2.2185,2.2118,2.2118,2.2118,2.218,2.224,2.2282,2.2296,2.2296,2.2296,2.2296,2.2296,2.2296,2.2778,2.3228,2.3506,0.0,2.565,0.0,0.0,0.0,0.0,2.5666,2.5815,0.0,0.0,0.0,0.0,0.0,0.0,2.625,2.528,0.0,2.6002,2.5502,2.5215,2.5209,2.5239,2.5266,2.5302,2.5302,2.5293,2.5308,2.5308,2.5308,2.5308,2.5308,2.5308,2.5308,2.5308,2.5308,2.5308,2.5308,2.5308,2.5308,2.772,2.8103,2.8453,0.0,2.8889,0.0,2.9176,2.9129,2.9097,2.9097,2.9097,2.9097,2.9159,2.9143,2.9166,2.9189,0.0,0.0,0.0,2.8376,2.8083,2.7496,2.7938,2.8221,2.8281,2.8678,2.889,2.8811,2.9145,2.9728,3.0506,3.0506,3.0506,3.0506,3.0506,3.0589,3.0692,3.0712,3.0712,3.0712,3.0712,3.0712,3.0712,3.0712,3.0373,2.9867,2.9886,2.9417,2.8764,2.88,2.8263,2.7609,2.7609,2.7106,2.6351,2.553,2.5364,2.5111,2.3813,2.3373,2.3152,2.2535,2.233,2.2296,2.2296,2.2296,2.2296,2.2296,2.2296,2.2296,2.2296,2.2296,2.2296,2.2296,2.3227,2.4002,2.4181,0.0,0.0,0.0,0.0,0.0,0.0,2.5338,2.5356,0.0,0.0,0.0,0.0,0.0,2.6042,2.4753,2.4773,2.4936,2.5192,2.5276,2.5276,2.5217,2.5262,2.5302,2.5308,2.5308,2.5308,2.5308,2.5308,2.5308,2.5308,2.5308,2.5308,2.5308,2.5308,2.5308,2.5308,2.5308,2.5308,2.5308,0.0,0.0,2.9903,3.0406,3.0188,2.9927,2.9927,2.9468,2.9097,2.9097,2.9097,2.9234,2.9595,2.9639,2.9772,3.0135,2.94,2.8912,2.8912,2.8912,2.8995,2.9204,2.9315,2.9572,2.9932,3.0037,3.0079,3.0079,2.9112,2.9284,3.0506,3.0506,3.0506,3.0489,3.0609,3.0671,3.0712,3.081,3.0851,3.0851,3.0851,3.0851,3.0851,3.0851,3.0754,3.066,3.0703,3.0236,2.9633,2.9726,2.8831,2.7682,2.7682,2.716,2.6538,2.6267,2.5849,2.5395,2.5075,2.4179,2.3344,2.319,2.2733,2.2296,2.2296,2.2296,2.2296,2.2296,2.2296,2.2296,2.2296,2.2296,2.2296,2.2296,2.3413,2.4065,2.3469,2.5057,0.0,0.0,2.4915,2.534,2.5393,2.4842,2.4979,0.0,0.0,0.0,0.0,2.5575,2.5466,2.4811,2.4783,2.4943,2.5276,2.5287,2.5287,2.5282,2.5288,2.5303,2.5308,2.5308,2.5308,2.5308,2.5308,2.5308,2.5308,2.5308,2.5308,2.5308,2.5308,2.5308,2.5308,2.5308,2.5308,2.5404,3.0076,3.0648,3.1126,3.1494,3.1443,3.1348,3.1348,3.0985,3.0629,3.0299,3.0251,3.021,3.0124,3.0113,3.022,3.0468,2.9853,2.9416,2.9416,2.9416,2.9528,2.9788,3.0006,3.0241,3.0489,3.0506,3.0506,3.0506,2.94,2.9417,3.0506,3.0568,3.0589,3.0609,3.0733,3.0794,3.0834,3.0915,3.0952,3.0952,3.0952,3.0952,3.0952,3.0952,3.0992,3.1052,3.1092,3.0842,3.0524,3.0579,2.98,2.8749,2.8395,2.7771,2.7078,2.669,2.6337,2.5966,2.5645,2.4732,2.3731,2.3071,2.2598,2.2296,2.2296,2.2296,2.2296,2.2296,2.2296,2.2296,2.2296,2.2296,2.2468,2.3,2.3789,2.4375,2.4432,2.5283,0.0,2.4742,2.4736,2.4821,2.486,2.4456,2.4557,2.5438,2.5099,0.0,2.4939,2.4949,2.4897,2.4802,2.483,2.4987,2.5302,2.5307,2.5307,2.5307,2.5298,2.5308,2.5308,2.5308,2.5308,2.5308,2.5308,2.5308,2.5308,2.5308,2.5308,2.5308,2.5308,2.5308,2.5308,2.5308,2.5308,2.5423,3.1197,3.1822,3.2322,3.2436,3.2679,3.2884,3.2884,3.2685,3.2315,3.1681,3.1499,3.1201,3.0572,3.0506,3.0506,3.0506,3.0135,2.9919,2.9919,2.9919,2.9919,2.9919,3.03,3.0506,3.0506,3.039,3.039,3.0506,2.9761,2.9798,3.0531,3.0651,3.0712,3.0749,3.0871,3.0952,3.0995,3.1015,3.1035,3.1035,3.1035,3.1035,3.1035,3.1035,3.1112,3.119,3.119,3.119,3.119,3.119,3.0717,2.9989,2.9347,2.8535,2.7672,2.7046,2.6793,2.6556,2.5947,2.5151,2.4169,2.2818,2.2381,2.2296,2.2296,2.2296,2.2296,2.2296,2.2296,2.2296,2.2296,2.2437,2.2859,2.3848,2.4321,2.4883,2.5715,0.0,2.5264,2.5155,2.4582,2.419,2.419,2.419,2.419,2.419,2.419,2.4237,2.4303,2.4294,2.4459,2.4809,2.4869,2.5031,2.5303,2.5308,2.5308,2.5308,2.5308,2.5308,2.5308,2.5308,2.5308,2.5308,2.5308,2.5308,2.5308,2.5308,2.5308,2.5308,2.5308,2.5308,2.5308,2.5308,2.5385,2.5615,3.1731,3.2763,3.373,3.4341,3.3991,3.3624,3.3624,3.258,3.173,3.1615,3.1052,3.0621,3.0506,3.0506,3.0506,3.0506,3.0426,3.0384,3.0384,3.0384,3.0384,3.0384,3.0447,3.0506,3.0506,2.9877,2.9877,3.0506,2.9761,2.9838,3.0671,3.0692,3.0753,3.0871,3.0952,3.0995,3.0995,3.1131,3.1171,3.1171,3.1171,3.1171,3.1171,3.1171,3.1171,3.119,3.119,3.119,3.119,3.119,3.0717,3.0072,2.9973,2.8939,2.779,2.7655,2.7199,2.6674,2.6556,2.554,2.4305,2.3427,2.2767,2.2296,2.2296,2.2296,2.2296,2.2296,2.2296,2.2296,2.2296,2.3079,2.3786,2.3975,2.5017,2.5642,2.5143,0.0,2.5144,2.4455,2.4281,2.419,2.419,2.419,2.419,2.419,2.419,2.4237,2.4303,2.4294,2.4468,2.4862,2.4883,2.5031,2.5303,2.5308,2.5308,2.5308,2.5308,2.5308,2.5308,2.5308,2.5308,2.5308,2.5308,2.5308,2.5308,2.5308,2.5308,2.5308,2.5308,2.5308,2.5308,2.5308,2.5769,2.6524,3.2889,3.3733,3.4502,3.4833,3.4618,3.4386,3.4386,3.3475,3.2646,3.2249,3.1548,3.0936,3.0539,3.0506,3.0506,3.0506,3.0506,3.0506,3.0506,3.0506,3.0531,3.0609,3.0609,3.0651,3.0712,3.0379,3.0362,3.0712,3.0362,3.0419,3.081,3.0834,3.0895,3.0955,3.1055,3.1112,3.1112,3.1171,3.119,3.119,3.119,3.119,3.119,3.119,3.119,3.119,3.119,3.119,3.119,3.119,3.097,3.0632,3.0243,2.9347,2.8366,2.7925,2.7266,2.6607,2.6218,2.532,2.4321,2.3579,2.2852,2.2296,2.2296,2.2296,2.2338,2.2487,2.2515,2.2528,2.2552,2.3476,2.4225,2.4272,2.4944,0.0,0.0,2.4927,2.4622,2.4245,2.419,2.419,2.419,2.419,2.419,2.419,2.42,2.4238,2.4312,2.44,2.4599,2.4895,2.5043,2.5165,2.5303,2.5308,2.5308,2.5308,2.5308,2.5308,2.5308,2.5308,2.5308,2.5308,2.5308,2.5308,2.5308,2.5308,2.5308,2.5308,2.5308,2.5308,2.5365,2.5827,2.625,2.6794,3.3789,3.4386,3.4899,3.4899,3.4899,3.4899,3.4899,3.4144,3.3387,3.2824,3.1983,3.1219,3.0638,3.0589,3.0589,3.0589,3.0589,3.0589,3.0589,3.0589,3.063,3.0692,3.0733,3.0794,3.0892,3.0892,3.0892,3.0892,3.0892,3.0912,3.0932,3.0992,3.1015,3.1055,3.1151,3.119,3.119,3.119,3.119,3.119,3.119,3.119,3.119,3.119,3.119,3.119,3.119,3.119,3.119,3.119,3.119,3.1106,3.0531,2.9854,2.9093,2.8315,2.7418,2.6573,2.6015,2.5186,2.4355,2.3814,2.2984,2.2338,2.2374,2.2415,2.2511,2.2756,2.282,2.2833,2.2884,2.3774,2.4538,2.4587,0.0,0.0,0.0,2.4713,2.419,2.419,2.419,2.419,2.419,2.419,2.4199,2.4209,2.4201,2.4247,2.4321,2.4503,2.4716,2.4948,2.519,2.5308,2.5308,2.5308,2.5308,2.5308,2.5308,2.5308,2.5308,2.5308,2.5308,2.5308,2.5308,2.5404,2.5596,2.5385,2.5538,2.5865,2.5462,2.5423,2.5673,2.6346,2.6736,2.7101,3.3789,3.4386,3.4899,3.4899,3.4899,3.4899,3.4899,3.3798,3.2951,3.2901,3.1759,3.0922,3.0871,3.0871,3.0871,3.0871,3.0871,3.0871,3.0871,3.0871,3.0831,3.0692,3.0831,3.0892,3.0892,3.0892,3.0892,3.0892,3.0892,3.0932,3.0995,3.0995,3.1072,3.119,3.119,3.119,3.119,3.119,3.119,3.119,3.119,3.119,3.119,3.119,3.119,3.119,3.119,3.119,3.119,3.119,3.119,3.119,3.114,3.0615,2.9871,2.9128,2.7859,2.6691,2.6623,2.5591,2.4491,2.4423,2.3401,2.2443,2.2639,2.2773,2.29,2.3123,2.3171,2.3153,2.3183,2.4098,2.4849,2.4861,0.0,0.0,2.5393,2.4713,2.419,2.419,2.419,2.419,2.419,2.419,2.4209,2.4192,2.4201,2.4257,2.4394,2.452,2.4749,2.5066,2.5208,2.5308,2.5308,2.5308,2.5308,2.5308,2.5308,2.5308,2.5308,2.5308,2.5308,2.5308,2.5308,2.5769,2.6447,2.5635,2.625,2.7544,2.5923,2.5788,2.6505,2.6582,2.7101,2.7934,3.4004,3.4456,3.4923,3.4994,3.5024,3.5048,3.5152,3.433,3.3534,3.3078,3.2173,3.1411,3.0942,3.0892,3.0892,3.0892,3.0892,3.0892,3.0892,3.0892,3.0892,3.0895,3.1012,3.1092,3.1092,3.1092,3.1092,3.1092,3.1092,3.1092,3.1131,3.1131,3.1151,3.1207,3.1684,3.1633,3.1224,3.1701,3.1633,3.119,3.119,3.119,3.119,3.119,3.119,3.119,3.119,3.119,3.119,3.119,3.119,3.119,3.119,3.0683,2.9871,2.8726,2.7726,2.7021,2.7051,2.6296,2.5388,2.4986,2.4227,2.3454,2.2941,2.2958,2.3147,2.3392,2.3448,2.3448,2.3511,2.4397,2.4935,2.431,0.0,2.5227,2.4732,2.4392,2.419,2.419,2.419,2.419,2.419,2.419,2.419,2.4201,2.4247,2.4294,2.4394,2.4657,2.4916,2.5203,2.5269,2.5308,2.5308,2.5308,2.5308,2.5308,2.5308,2.5308,2.5327,2.5865,2.6115,2.6135,2.6678,2.7101,2.7371,2.7044,2.7294,2.7838,2.7178,2.7101,2.7467,2.7967,2.8357,2.878,3.4485,3.4738,3.5041,3.5152,3.5158,3.5188,3.5291,3.47,3.3968,3.3225,3.253,3.1816,3.1076,3.0992,3.0992,3.0992,3.0992,3.0992,3.0992,3.0992,3.0992,3.0995,3.1131,3.119,3.119,3.119,3.119,3.119,3.119,3.119,3.119,3.119,3.1309,3.1582,3.2073,3.2158,3.1918,3.2425,3.2341,3.1867,3.163,3.1565,3.1532,3.1275,3.119,3.119,3.119,3.119,3.119,3.119,3.1269,3.1351,3.1351,3.0706,2.9755,2.8767,2.7891,2.7303,2.7542,2.7201,2.6527,2.5464,2.4783,2.4138,2.3335,2.3271,2.3459,2.3724,2.3795,2.3806,2.3837,2.4454,2.4734,2.4028,2.4541,2.4824,2.4281,2.419,2.419,2.419,2.419,2.419,2.419,2.4209,2.4209,2.422,2.4284,2.4384,2.449,2.4746,2.4993,2.5233,2.5269,2.5308,2.5308,2.5308,2.5308,2.5308,2.5308,2.5308,2.5327,2.6192,2.6601,2.6659,2.7525,2.8049,2.8261,2.8011,2.8217,2.8621,2.8102,2.8049,2.8338,2.8896,2.9107,2.9223,3.5268,3.5291,3.5291,3.5291,3.5291,3.5291,3.5291,3.4751,3.4044,3.3299,3.2684,3.2039,3.1275,3.119,3.119,3.119,3.119,3.119,3.119,3.119,3.1151,3.0995,3.1131,3.119,3.119,3.119,3.119,3.119,3.119,3.119,3.1207,3.1207,3.1616,3.231,3.231,3.2713,3.3406,3.3406,3.3406,3.3339,3.2615,3.231,3.2226,3.1478,3.1207,3.119,3.119,3.119,3.119,3.121,3.1428,3.1695,3.1695,3.0732,2.959,2.9539,2.8514,2.7545,2.8152,2.8311,2.7843,2.5906,2.4959,2.4373,2.3829,2.3764,2.3886,2.4151,2.419,2.419,2.419,2.419,2.419,2.419,2.419,2.419,2.419,2.419,2.419,2.419,2.419,2.419,2.419,2.4191,2.422,2.4284,2.4358,2.449,2.4692,2.4818,2.4949,2.5109,2.5233,2.5308,2.5308,2.5308,2.5308,2.5308,2.5308,2.5308,2.5346,2.6212,2.6621,2.6678,2.7544,2.8376,2.905,2.8261,2.8909,3.0231,2.8563,2.8415,2.9107,2.9107,2.9107,2.9223,3.5423,3.536,3.5331,3.5423,3.5446,3.5452,3.5503,3.5346,3.4761,3.3495,3.3182,3.2594,3.1326,3.119,3.119,3.119,3.119,3.119,3.119,3.119,3.1171,3.1151,3.1171,3.119,3.119,3.119,3.119,3.119,3.119,3.1464,3.1972,3.1972,3.2378,3.3085,3.3609,3.3677,3.344,3.3947,3.388,3.3389,3.3169,3.2767,3.2276,3.2056,3.1667,3.119,3.119,3.119,3.1249,3.1468,3.162,3.175,3.2092,3.1195,3.0027,3.0057,2.9095,2.8084,2.8365,2.8589,2.8391,2.707,2.6321,2.568,2.4817,2.4346,2.4103,2.418,2.419,2.419,2.419,2.419,2.419,2.419,2.419,2.419,2.419,2.419,2.419,2.419,2.419,2.419,2.419,2.4191,2.422,2.4284,2.4421,2.4572,2.4818,2.4881,2.4993,2.5238,2.5274,2.5308,2.5308,2.5308,2.5308,2.5308,2.5308,2.5615,2.6231,2.7101,2.7813,2.8396,2.9275,2.9788,2.9981,2.975,2.9942,3.0346,2.9846,2.9788,3.0,3.0,3.0,3.0038,3.552,3.5458,3.5435,3.552,3.5543,3.5549,3.56,3.56,3.5059,3.3592,3.3406,3.2848,3.136,3.119,3.119,3.119,3.119,3.119,3.119,3.119,3.119,3.119,3.119,3.119,3.119,3.119,3.1326,3.165,3.165,3.2002,3.273,3.273,3.3119,3.3846,3.4303,3.4404,3.4298,3.4759,3.4692,3.423,3.3947,3.3389,3.2696,3.2412,3.1853,3.121,3.1349,3.1408,3.1449,3.1805,3.2074,3.2266,3.2536,3.1862,3.0883,3.0591,2.9735,2.8848,2.8717,2.8822,2.8777,2.8136,2.7483,2.6684,2.5436,2.4907,2.4585,2.4263,2.419,2.419,2.419,2.419,2.419,2.419,2.419,2.419,2.419,2.419,2.419,2.419,2.419,2.4199,2.42,2.4219,2.4284,2.4375,2.4446,2.4574,2.4734,2.484,2.4962,2.5132,2.5243,2.5308,2.5308,2.5308,2.5308,2.5308,2.5654,2.6096,2.664,2.7832,2.8646,2.9146,3.0019,3.0404,3.0404,3.0404,3.0404,3.0404,3.0404,3.0404,3.0404,3.0404,3.0404,3.0404,3.5577,3.56,3.56,3.56,3.56,3.56,3.56,3.56,3.5092,3.3694,3.3508,3.2966,3.1546,3.1393,3.136,3.1292,3.1241,3.119,3.119,3.119,3.119,3.119,3.119,3.1224,3.1292,3.1292,3.1633,3.2293,3.2361,3.2784,3.3508,3.3508,3.3897,3.459,3.459,3.4979,3.56,3.56,3.5622,3.5599,3.4927,3.4202,3.3426,3.2751,3.1987,3.1329,3.1638,3.175,3.1823,3.2214,3.2668,3.3052,3.3052,3.2652,3.1974,3.1105,3.0378,2.9712,2.9148,2.9005,2.9005,2.9005,2.8448,2.7486,2.587,2.5448,2.5172,2.4373,2.419,2.419,2.419,2.419,2.419,2.419,2.419,2.419,2.419,2.4199,2.4199,2.419,2.4199,2.419,2.4201,2.4266,2.4367,2.4491,2.45,2.4508,2.4525,2.4772,2.4908,2.4922,2.5179,2.5308,2.5308,2.5385,2.5423,2.5423,2.6212,2.6678,2.689,2.8396,2.9146,2.9261,3.0058,3.0404,3.0404,3.0404,3.0404,3.0404,3.0404,3.0404,3.0404,3.0404,3.0404,3.0404,3.56,3.56,3.56,3.56,3.56,3.56,3.56,3.56,3.5278,3.437,3.4252,3.3914,3.3017,3.2933,3.2696,3.2107,3.1532,3.119,3.119,3.119,3.119,3.119,3.119,3.1461,3.2056,3.2056,3.2141,3.2293,3.2882,3.3541,3.4252,3.4252,3.4658,3.5346,3.5346,3.5447,3.56,3.56,3.5805,3.6135,3.5963,3.5275,3.4321,3.4164,3.3259,3.2074,3.2144,3.2196,3.2317,3.2781,3.3202,3.3559,3.3559,3.3068,3.2331,3.1508,3.0716,2.9954,2.9195,2.9005,2.9005,2.9005,2.8877,2.8308,2.6704,2.5852,2.5172,2.4373,2.419,2.419,2.419,2.419,2.419,2.419,2.419,2.419,2.419,2.42,2.4191,2.4199,2.42,2.421,2.4201,2.4321,2.4421,2.4491,2.45,2.4559,2.4645,2.4804,2.4955,2.5049,2.5203,2.5308,2.5308,2.5981,2.6327,2.6327,2.6505,2.7294,2.8569,2.8934,2.9467,3.0135,3.0327,3.0404,3.0404,3.0404,3.0404,3.0404,3.0404,3.0404,3.0404,3.0404,3.0404,3.0404,3.56,3.56,3.56,3.56,3.56,3.56,3.56,3.56,3.5329,3.459,3.4489,3.4218,3.3491,3.3406,3.3102,3.2361,3.1633,3.1343,3.1701,3.1393,3.136,3.1718,3.1735,3.1904,3.2293,3.2987,3.3359,3.3359,3.3728,3.4303,3.503,3.503,3.5233,3.56,3.56,3.56,3.56,3.56,3.5871,3.6266,3.5883,3.5263,3.4565,3.4197,3.3336,3.2334,3.2553,3.2766,3.2972,3.325,3.3498,3.3698,3.3698,3.3446,3.3018,3.221,3.1403,3.0595,2.9787,2.9299,2.9005,2.9005,2.9005,2.8675,2.7457,2.6862,2.6219,2.5026,2.4768,2.4658,2.4263,2.419,2.419,2.419,2.419,2.419,2.419,2.4191,2.4201,2.4199,2.4228,2.4266,2.4284,2.4384,2.4465,2.45,2.45,2.4542,2.4607,2.4727,2.4867,2.4993,2.5138,2.543,2.5923,2.6365,2.7005,2.7794,2.7794,2.8261,2.9107,2.9525,2.9967,3.0404,3.0404,3.0404,3.0404,3.0404,3.0404,3.0404,3.0404,3.0404,3.0404,3.0404,3.0404,3.0404,3.56,3.56,3.56,3.56,3.56,3.56,3.56,3.56,3.538,3.4776,3.4692,3.4455,3.3846,3.3558,3.3152,3.2547,3.1819,3.1698,3.2446,3.1918,3.185,3.2462,3.2496,3.2496,3.2496,3.3795,3.4489,3.4489,3.4624,3.5013,3.56,3.56,3.56,3.56,3.56,3.5644,3.5734,3.5734,3.6045,3.6481,3.5818,3.5255,3.4783,3.4163,3.3331,3.2586,3.2957,3.3283,3.3534,3.3619,3.3671,3.3712,3.3712,3.3766,3.3642,3.2839,3.2027,3.1231,3.0411,2.961,2.9005,2.9005,2.9005,2.8822,2.8154,2.7897,2.7376,2.5907,2.5503,2.5191,2.453,2.4281,2.419,2.419,2.419,2.4199,2.4199,2.4201,2.4219,2.4209,2.4257,2.433,2.4394,2.4465,2.45,2.45,2.45,2.45,2.45,2.4639,2.4749,2.4861,2.5165,2.571,2.6551,2.686,2.7717,2.9107,2.9261,2.9319,2.9357,3.0077,3.0404,3.0404,3.0404,3.0404,3.0404,3.0404,3.0404,3.0404,3.0404,3.0404,3.0404,3.0404,3.0404,3.0404,3.56,3.56,3.56,3.56,3.56,3.56,3.56,3.56,3.5566,3.5447,3.5447,3.5397,3.5312,3.4146,3.3372,3.3271,3.2581,3.2462,3.3203,3.3169,3.3152,3.3254,3.3254,3.3254,3.3254,3.4066,3.4489,3.4489,3.5148,3.5498,3.56,3.56,3.56,3.56,3.56,3.5827,3.6216,3.6216,3.6698,3.7504,3.738,3.6733,3.5805,3.5696,3.4733,3.3426,3.3502,3.3587,3.3684,3.3753,3.378,3.3793,3.3793,3.3775,3.3642,3.2839,3.2027,3.1231,3.0411,2.961,2.9005,2.9005,2.9005,2.8968,2.8858,2.8301,2.753,2.6631,2.5888,2.5374,2.5264,2.4677,2.419,2.419,2.419,2.4209,2.421,2.4257,2.4266,2.4219,2.4257,2.433,2.4394,2.4465,2.45,2.45,2.45,2.45,2.45,2.4639,2.4715,2.4738,2.5703,2.63,2.6432,2.798,2.8876,2.9107,2.9871,3.0212,3.0231,3.0346,3.0404,3.0404,3.0404,3.0404,3.0404,3.0404,3.0404,3.0404,3.0404,3.0404,3.0404,3.0404,3.0404,3.0404,3.56,3.56,3.56,3.56,3.56,3.56,3.56,3.56,3.56,3.56,3.56,3.56,3.56,3.4658,3.4015,3.4015,3.3339,3.322,3.3964,3.3626,3.3592,3.3998,3.4015,3.4015,3.4015,3.4742,3.5246,3.5506,3.5831,3.6002,3.6002,3.6224,3.622,3.6002,3.6224,3.6308,3.6322,3.6597,3.7075,3.765,3.7254,3.6916,3.6577,3.5707,3.4907,3.4221,3.3793,3.3671,3.3712,3.378,3.3807,3.3807,3.3807,3.3807,3.3733,3.3366,3.2375,3.1323,3.0962,2.9941,2.9005,2.9005,2.9005,2.9005,2.9005,2.873,2.8246,2.7438,2.699,2.6605,2.6153,2.5411,2.4879,2.4879,2.4493,2.4209,2.4192,2.4266,2.433,2.4357,2.4358,2.4375,2.4447,2.4482,2.45,2.45,2.45,2.45,2.45,2.4549,2.4837,2.5349,2.5975,2.6778,2.779,2.866,2.9338,2.9833,3.0212,3.0404,3.0404,3.0404,3.0404,3.0404,3.0404,3.0404,3.0404,3.0404,3.0404,3.0404,3.0404,3.0404,3.0404,3.0404,3.0404,3.0404]}]]